     2.11           OBSERVATION DATA    G (GPS)             RINEX VERSION / TYPE
teqc 2010Oct21 OPUS Account 20111028 15:27:03UTC            PGM / RUN BY / DATE
U 1526                                                      MARKER NAME
3055                                                        MARKER NUMBER
CSMIDDLETON NGS                                             OBSERVER / AGENCY
4624K01647 TRIMBLE NETR5 4.41                               REC # / TYPE / VERS
12694052 TRM41249.00 NONE                                   ANT # / TYPE
  -745172.2690 -5576682.4959  2994254.5898                  APPROX POSITION XYZ
        2.0040        0.0000        0.0000                  ANTENNA: DELTA H/E/N
     1     1                                                WAVELENGTH FACT L1/2
     5    L1    L2    C1    P1    P2                        # / TYPES OF OBSERV
    15                                                      LEAP SECONDS
  2011     8    23     0     0    0.0000000     GPS         TIME OF FIRST OBS
                                                            END OF HEADER
 11  8 23  0  0  0.0000000  0  9G04G09G10G17G12G05G25G02G30
 112856964.99118  87940662.52855  21475964.164                    21475972.492
 123038117.37217  95873933.44854  23413386.258                    23413396.691
 109826537.80218  85579226.34356  20899277.055                    20899285.598
 120993726.92717  94280936.11417  23024340.211                    23024349.566
 113858116.04717  88720670.74917  21666480.133                    21666487.465
 116929319.34217  91113871.76217  22250893.656                    22250902.664
 128656597.83016 100251988.45616  24482547.680                    24482559.555
 108471744.59618  84523600.73056  20641471.664                    20641477.160
 127825234.09115  99604189.06252  24324354.875                    24324363.836
 11  8 23  0  0 30.0000000  0  9G04G09G10G17G12G05G25G02G30
 112931198.043 8  87998506.44545  21490090.086                    21490098.320
 123112504.604 7  95931897.42644  23427541.750                    23427552.113
 109817313.400 8  85572038.52246  20897521.703                    20897530.223
 121043236.575 7  94319514.994 7  23033761.602                    23033771.164
 113790712.136 7  88668148.239 7  21653653.586                    21653660.555
 116835173.899 7  91040511.767 7  22232977.719                    22232987.531
 128554457.177 6 100172398.400 6  24463111.563                    24463122.879
 108466820.401 8  84519763.72346  20640534.930                    20640540.344
 127721010.165 6  99522975.70842  24304521.477                    24304531.328
 11  8 23  0  1  0.0000000  0  9G04G09G10G17G12G05G25G02G30
 113005597.885 8  88056480.32745  21504247.695                    21504256.410
 123187114.157 7  95990034.63944  23441739.117                    23441750.125
 109808711.875 8  85565336.05846  20895884.813                    20895893.043
 121092892.625 6  94358207.966 7  23043210.430                    23043220.043
 113723694.070 7  88615926.379 7  21640900.375                    21640907.715
 116741287.714 7  90967353.798 7  22215112.070                    22215121.652
 128452444.838 6 100092908.325 6  24443699.008                    24443710.047
 108462200.049 8  84516163.47746  20639655.594                    20639661.230
 127616976.652 6  99441910.68643  24284725.211                    24284734.645
 11  8 23  0  1 30.0000000  0  9G04G09G10G17G12G05G25G02G30
 113080162.550 8  88114582.65745  21518436.695                    21518445.102
 123261942.947 6  96048342.69344  23455978.539                    23455989.602
 109800734.173 8  85559119.69246  20894366.555                    20894375.047
 121142695.209 7  94397015.114 7  23052688.063                    23052697.355
 113657064.657 7  88564007.356 7  21628221.070                    21628229.066
 116647663.999 7  90894400.355 7  22197295.734                    22197305.309
 128350563.706 6 100013520.493 6  24424311.656                    24424322.832
 108457882.795 8  84512799.41946  20638833.922                    20638839.688
 127513136.627 6  99360996.42143  24264964.906                    24264974.891
 11  8 23  0  2  0.0000000  0  9G04G09G10G17G12G05G25G02G30
 113154889.913 8  88172811.75745  21532656.969                    21532665.164
 123336987.215 7  96106818.63844  23470259.328                    23470270.309
 109793380.929 7  85553389.91146  20892967.328                    20892975.559
 121192645.309 7  94435937.220 7  23062193.289                    23062202.934
 113590826.185 8  88512392.982 7  21615616.313                    21615623.648
 116554305.816 7  90821653.809 7  22179530.195                    22179539.238
 128248816.217 6  99934236.796 6  24404949.688                    24404961.641
 108453867.598 7  84509670.72446  20638069.922                    20638075.371
 127409492.895 6  99280235.11443  24245242.281                    24245251.824
 11  8 23  0  2 30.0000000  0  9G04G09G10G17G12G05G25G02G30
 113229777.893 8  88231166.01245  21546907.359                    21546915.746
 123412243.490 6  96165459.79944  23484579.547                    23484591.605
 109786652.560 7  85548147.04346  20891686.953                    20891695.203
 121242743.711 7  94474974.878 7  23071726.266                    23071736.375
 113524981.485 7  88461085.432 7  21603086.523                    21603094.074
 116461215.697 7  90749116.132 7  22161815.719                    22161824.887
 128147204.727 6  99855059.065 6  24385612.695                    24385624.910
 108450153.309 7  84506776.49246  20637362.961                    20637368.637
 127306047.986 6  99199628.75143  24225556.961                    24225566.965
 11  8 23  0  3  0.0000000  0  9G04G09G10G17G12G05G25G02G30
 113304824.118 8  88289643.56945  21561188.602                    21561196.836
 123487708.713 7  96224263.73144  23498940.672                    23498952.066
 109780549.856 7  85543391.70846  20890525.828                    20890534.266
 121292990.759 7  94514128.372 6  23081288.625                    23081297.418
 113459532.707 7  88410086.399 7  21590631.750                    21590639.730
 116368396.872 7  90676789.863 7  22144152.734                    22144162.313
 128045731.869 6  99775989.364 6  24366303.531                    24366314.969
 108446738.723 7  84504115.79446  20636713.008                    20636718.762
 127202804.756 6  99119179.55043  24205910.758                    24205921.094
 11  8 23  0  3 30.0000000  0  9G04G09G10G17G12G05G25G02G30
 113380026.891 8  88348243.11545  21575499.523                    21575507.453
 123563379.409 6  96283227.81844  23513340.297                    23513351.531
 109775073.093 8  85539124.12746  20889483.211                    20889491.719
 121343387.120 7  94553398.196 6  23090878.914                    23090886.633
 113394482.149 7  88359397.663 7  21578253.078                    21578260.871
 116275851.734 7  90604676.872 7  22126541.938                    22126551.707
 127944400.007 6  99697029.538 6  24347020.195                    24347032.707
 108443622.848 8  84501687.85446  20636120.156                    20636125.961
 127099766.097 7  99038889.73943  24186303.141                    24186312.605
 11  8 23  0  4  0.0000000  0  9G04G09G10G17G12G05G25G02G30
 113455383.723 8  88406962.69845  21589839.195                    21589847.410
 123639252.049 7  96342349.25244  23527778.688                    23527789.672
 109770222.946 8  85535344.79946  20888560.516                    20888568.527
 121393933.516 7  94592784.923 6  23100497.578                    23100505.465
 113329832.516 7  88309021.326 7  21565950.836                    21565958.293
 116183583.543 7  90532779.688 7  22108984.141                    22108993.418
 127843211.831 6  99618181.624 6  24327764.742                    24327776.922
 108440804.386 7  84499491.66146  20635583.805                    20635589.684
 126996934.575 6  98958761.34743  24166734.953                    24166744.680
 11  8 23  0  4 30.0000000  0  9G04G09G10G17G12G05G25G02G30
 113530892.984 8  88465801.06045  21604208.516                    21604216.625
 123715323.483 7  96401625.57144  23542254.023                    23542266.145
 109766000.282 8  85532054.42246  20887756.930                    20887765.039
 121444630.499 7  94632289.006 6  23110145.063                    23110152.516
 113265586.154 7  88258959.238 7  21553724.867                    21553733.180
 116091595.532 7  90461100.819 7  22091479.109                    22091488.531
 127742170.013 6  99539447.812 6  24308537.063                    24308548.867
 108438282.786 8  84497526.79146  20635104.188                    20635109.836
 126894313.237 6  98878796.71443  24147206.953                    24147216.523
 11  8 23  0  5  0.0000000  0  9G04G09G10G17G12G05G25G02G30
 113606552.221 8  88524756.30945  21618606.078                    21618614.164
 123791590.039 7  96461053.94944  23556768.055                    23556779.160
 109762404.967 8  85529252.89746  20887072.438                    20887080.766
 121495478.700 7  94671910.963 6  23119821.141                    23119827.543
 113201745.429 7  88209213.216 7  21541576.406                    21541584.594
 115999890.335 7  90389642.323 7  22074027.883                    22074037.719
 127641277.070 6  99460829.974 6  24289337.930                    24289349.922
 108436056.627 8  84495792.13446  20634680.172                    20634685.895
 126791904.870 6  98798998.05843  24127719.047                    24127728.602
 11  8 23  0  5 30.0000000  0  9G04G09G10G17G12G05G25G02G30
 113682359.552 8  88583826.94945  21633031.727                    21633040.172
 123868048.403 7  96520631.79944  23571317.625                    23571328.422
 109759437.751 8  85526940.80246  20886508.031                    20886515.922
 121546478.837 7  94711651.299 6  23129525.867                    23129532.816
 113138312.741 7  88159785.149 7  21529505.289                    21529513.988
 115908470.712 7  90318406.369 7  22056631.195                    22056640.234
 127540535.471 6  99382330.065 6  24270168.063                    24270179.418
 108434124.848 8  84494286.85946  20634313.078                    20634318.574
 126689712.178 6  98719367.43443  24108272.039                    24108281.512
 11  8 23  0  6  0.0000000  0  9G04G09G10G17G12G05G25G02G30
 113758312.993 8  88643011.43645  21647484.750                    21647493.555
 123944695.114 7  96580356.39844  23585902.594                    23585914.184
 109757099.225 8  85525118.60246  20886062.609                    20886070.930
 121597631.327 7  94751510.333 6  23139259.625                    23139266.965
 113075290.620 7  88110677.015 7  21517512.773                    21517520.316
 115817340.052 7  90247395.568 7  22039289.695                    22039298.598
 127439947.947 7  99303950.189 6  24251026.586                    24251038.242
 108432486.395 8  84493010.15046  20634001.070                    20634006.516
 126587738.064 6  98639907.13042  24088865.734                    24088876.480
 11  8 23  0  6 30.0000000  0  9G04G09G10G17G12G05G25G02G30
 113834410.366 8  88702308.06445  21661965.945                    21661974.297
 124021526.896 7  96640225.21044  23600523.414                    23600534.504
 109755389.586 8  85523786.42846  20885737.750                    20885746.043
 121648936.675 7  94791488.472 6  23149022.008                    23149030.773
 113012681.127 7  88061890.399 7  21505598.531                    21505606.258
 115726500.701 7  90176611.745 7  22022003.242                    22022012.520
 127339516.919 7  99225692.273 6  24231915.727                    24231926.504
 108431139.755 8  84491960.83446  20633744.773                    20633750.484
 126485985.243 6  98560619.26943  24069504.336                    24069513.602
 11  8 23  0  7  0.0000000  0  9G04G09G10G17G12G05G25G02G30
 113910649.872 8  88761715.45045  21676473.594                    21676481.984
 124098540.384 7  96700235.64344  23615179.078                    23615189.680
 109754309.024 8  85522944.45646  20885532.063                    20885540.133
 121700395.698 7  94831586.346 6  23158815.531                    23158824.070
 112950487.021 7  88013427.475 7  21493763.500                    21493771.313
 115635955.681 7  90106057.289 7  22004773.641                    22004782.492
 127239245.030 7  99147558.353 7  24212834.453                    24212845.867
 108430084.191 8  84491138.31946  20633543.953                    20633549.875
 126384456.470 6  98481505.98042  24050183.531                    24050193.668
 11  8 23  0  7 30.0000000  0  9G04G09G10G17G12G05G25G02G30
 113987029.405 8  88821231.94545  21691008.516                    21691016.762
 124175732.068 7  96760384.88044  23629867.977                    23629879.496
 109753857.902 8  85522592.96246  20885445.859                    20885454.488
 121752008.936 7  94871804.412 6  23168635.992                    23168646.277
 112888710.690 7  87965290.085 7  21482007.977                    21482015.707
 115545708.086 7  90035734.587 7  21987599.859                    21987609.082
 127139135.051 7  99069550.619 7  24193783.820                    24193795.449
 108429318.638 8  84490541.78946  20633398.461                    20633403.938
 126283154.853 6  98402569.64943  24030905.773                    24030916.414
 11  8 23  0  8  0.0000000  0  9G04G09G10G17G12G05G25G02G30
 114063546.845 8  88880855.89545  21705569.289                    21705577.773
 124253098.241 7  96820670.08844  23644590.578                    23644602.332
 109754036.351 8  85522732.03646  20885479.938                    20885488.434
 121803777.048 6  94912143.117 6  23178488.148                    23178497.586
 112827354.131 8  87917479.804 7  21470332.039                    21470339.773
 115455760.796 7  89965645.907 7  21970483.414                    21970492.820
 127039189.270 7  98991670.806 7  24174764.883                    24174776.176
 108428841.587 8  84490170.07146  20633307.477                    20633312.898
 126182082.865 6  98323812.34643  24011672.766                    24011683.574
 11  8 23  0  8 30.0000000  0  9G04G09G10G17G12G05G25G02G30
 114140200.395 8  88940585.90345  21720155.953                    21720164.230
 124330636.041 7  96881089.04044  23659345.602                    23659357.230
 109754845.036 8  85523362.19146  20885633.961                    20885642.094
 121855700.658 7  94952603.009 6  23188368.797                    23188378.129
 112766420.556 7  87869999.119 7  21458736.773                    21458744.035
 115366116.849 7  89895793.573 7  21953424.555                    21953433.953
 126939410.693 7  98913921.272 7  24155776.953                    24155789.191
 108428652.661 8  84490022.85846  20633271.695                    20633277.176
 126081243.853 6  98245236.52843  23992484.102                    23992494.172
 11  8 23  0  9  0.0000000  0  9G04G09G10G17G12G05G25G02G30
 114216988.066 8  89000420.42745  21734768.219                    21734776.688
 124408342.102 7  96941639.12544  23674132.563                    23674144.270
 109756284.001 8  85524483.48646  20885907.477                    20885916.035
 121907780.303 7  94993184.503 7  23198279.266                    23198288.531
 112705911.469 8  87822849.216 7  21447222.148                    21447229.910
 115276778.874 7  89826179.659 7  21936424.211                    21936432.855
 126839801.628 6  98836303.847 7  24136822.313                    24136833.973
 108428750.425 8  84490099.04246  20633289.906                    20633295.711
 125980640.277 6  98166844.16943  23973340.156                    23973349.977
 11  8 23  0  9 30.0000000  0  9G04G09G10G17G12G05G25G02G30
 114293907.688 7  89060357.78645  21749405.258                    21749414.301
 124486212.719 7  97002317.42544  23688950.063                    23688962.754
 109758353.253 8  85526095.90546  20886301.414                    20886309.047
 121960016.391 7  95033887.874 7  23208219.828                    23208229.855
 112645829.395 7  87776032.054 7  21435789.258                    21435796.941
 115187749.810 7  89756806.443 7  21919482.289                    21919491.285
 126740364.621 6  98758820.481 7  24117899.953                    24117912.270
 108429133.388 8  84490397.45246  20633363.375                    20633368.852
 125880274.969 6  98088637.45643  23954241.016                    23954251.262
 11  8 23  0 10  0.0000000  0  9G04G09G10G17G12G05G25G02G30
 114370957.083 7  89120396.25445  21764067.500                    21764076.363
 124564244.456 6  97063121.25243  23703799.711                    23703811.770
 109761052.887 7  85528199.52846  20886815.172                    20886823.465
 122012409.552 7  95074713.616 7  23218190.344                    23218200.051
 112586176.604 8  87729549.403 7  21424437.609                    21424445.543
 115099032.374 7  89687676.065 7  21902599.742                    21902609.266
 126641102.247 6  98681473.216 6  24099010.641                    24099022.594
 108429800.243 7  84490917.08646  20633490.078                    20633495.449
 125780150.660 7  98010618.53043  23935187.930                    23935198.168
 11  8 23  0 10 30.0000000  0  9G04G09G10G17G12G05G25G02G30
 114448134.598 8  89180534.56445  21778753.656                    21778762.332
 124642434.154 6  97124048.22144  23718679.313                    23718690.746
 109764383.689 7  85530794.97646  20887448.977                    20887457.059
 122064960.644 7  95115662.470 7  23228190.094                    23228199.531
 112526955.478 8  87683403.112 7  21413168.180                    21413176.355
 115010629.491 7  89618790.794 7  21885777.344                    21885786.563
 126542017.346 6  98604264.239 6  24080156.070                    24080167.523
 108430750.361 7  84491657.44046  20633670.336                    20633676.672
 125680270.381 7  97932789.73643  23916181.188                    23916191.277
 11  8 23  0 11  0.0000000  0  9G04G09G10G17G12G05G25G02G30
 114525438.480 8  89240771.33045  21793463.891                    21793472.984
 124720778.465 6  97185095.63744  23733587.234                    23733599.488
 109768345.406 8  85533882.04245  20888202.203                    20888210.992
 122117670.064 7  95156734.674 7  23238221.008                    23238229.965
 112468168.491 8  87637595.087 7  21401981.688                    21401989.512
 114922543.995 7  89550152.825 7  21869014.859                    21869024.184
 126443112.597 6  98527195.646 6  24061334.391                    24061346.734
 108431982.678 8  84492617.68346  20633905.461                    20633911.063
 125580636.959 6  97855153.31643  23897221.602                    23897232.203
 11  8 23  0 11 30.0000000  0  9G04G09G10G17G12G05G25G02G30
 114602866.499 8  89301104.82545  21808198.281                    21808207.156
 124799273.910 6  97246260.81243  23748524.125                    23748536.211
 109772938.018 7  85537460.70745  20889076.828                    20889084.484
 122170538.468 7  95197930.790 7  23248281.203                    23248290.887
 112409818.407 8  87592127.531 7  21390877.898                    21390885.016
 114834778.976 7  89481764.599 7  21852313.852                    21852322.719
 126344390.665 7  98450269.501 6  24042548.828                    24042559.836
 108433495.832 8  84493796.76046  20634193.336                    20634198.270
 125481253.316 6  97777711.52543  23878309.328                    23878319.895
 11  8 23  0 12  0.0000000  0  9G04G09G10G17G12G05G25G02G30
 114680416.594 8  89361533.44845  21822955.719                    21822963.738
 124877917.060 6  97307541.09044  23763489.922                    23763501.836
 109778161.303 8  85541530.80646  20890070.867                    20890078.902
 122223566.130 7  95239250.990 7  23258372.070                    23258381.172
 112351906.504 8  87547001.408 7  21379857.617                    21379865.055
 114747337.029 7  89413628.121 7  21835674.383                    21835683.121
 126245853.790 7  98373487.571 6  24023797.750                    24023808.816
 108435288.394 8  84495193.55046  20634534.102                    20634540.262
 125382121.883 6  97700466.22643  23859445.672                    23859455.789
 11  8 23  0 12 30.0000000  0  9G04G09G10G17G12G05G25G02G30
 114758086.738 8  89422055.60345  21837736.570                    21837744.824
 124956704.636 6  97368933.88243  23778482.984                    23778494.281
 109784015.644 8  85546092.63246  20891184.789                    20891192.676
 122276753.876 7  95280695.922 7  23268493.477                    23268502.473
 112294435.153 8  87502218.566 7  21368920.453                    21368928.984
 114660220.748 7  89345745.378 7  21819096.813                    21819105.188
 126147504.670 7  98296851.928 6  24005082.000                    24005093.832
 108437359.309 7  84496807.26246  20634928.469                    20634934.262
 125283245.674 6  97623419.83143  23840629.570                    23840639.703
 11  8 23  0 13  0.0000000  0  9G04G09G10G17G12G05G25G02G30
 114835875.368 8  89482670.07945  21852538.977                    21852547.125
 125035633.159 7  97430436.53343  23793502.750                    23793513.855
 109790500.883 8  85551146.06146  20892419.078                    20892426.918
 122330101.882 7  95322265.749 7  23278645.719                    23278654.363
 112237406.961 8  87457781.036 7  21358068.516                    21358076.242
 114573433.315 7  89278118.889 7  21802581.031                    21802589.957
 126049346.045 7  98220364.717 6  23986403.250                    23986414.555
 108439707.331 8  84498636.89646  20635375.281                    20635380.945
 125184627.603 6  97546574.59243  23821863.828                    23821873.145
 11  8 23  0 13 30.0000000  0  9G04G09G10G17G12G05G25G02G30
 114913780.217 7  89543375.09845  21867363.781                    21867372.273
 125114699.229 6  97492046.36444  23808548.828                    23808559.797
 109797616.961 8  85556691.07146  20893773.313                    20893781.789
 122383611.006 7  95363961.121 6  23288828.344                    23288836.352
 112180824.051 7  87413690.472 7  21347301.344                    21347308.941
 114486977.547 7  89210750.848 7  21786128.539                    21786137.633
 125951380.582 7  98144028.024 6  23967761.125                    23967772.008
 108442331.589 8  84500681.78546  20635874.555                    20635880.055
 125086270.353 6  97469932.62343  23803146.438                    23803156.078
 11  8 23  0 14  0.0000000  0  9G04G09G10G17G12G05G25G02G30
 114991799.820 8  89604169.55245  21882210.328                    21882219.176
 125193899.952 7  97553761.10943  23823619.969                    23823631.285
 109805363.836 8  85562727.61646  20895247.625                    20895255.344
 122437281.894 7  95405782.542 6  23299041.469                    23299049.695
 112124689.119 8  87369948.974 7  21336619.258                    21336626.973
 114400856.040 7  89143643.259 7  21769741.047                    21769749.539
 125853610.922 7  98067843.946 6  23949155.500                    23949167.414
 108445230.939 8  84502941.03346  20636426.414                    20636431.738
 124988177.044 6  97393496.35043  23784479.586                    23784489.668
 11  8 23  0 14 30.0000000  0  9G04G09G10G17G12G05G25G02G30
 115069931.785 7  89665051.56045  21897077.766                    21897087.133
 125273231.378 7  97615577.72943  23838716.375                    23838727.512
 109813741.357 8  85569255.57946  20896841.352                    20896849.715
 122491114.889 7  95447730.278 6  23309285.000                    23309293.984
 112069003.476 8  87326557.570 7  21326022.453                    21326030.035
 114315071.535 7  89076798.269 7  21753416.359                    21753425.270
 125756039.478 7  97991814.316 6  23930588.305                    23930599.980
 108448403.657 8  84505413.29346  20637029.883                    20637035.914
 124890350.191 6  97317267.65643  23765864.430                    23765874.031
 11  8 23  0 15  0.0000000  0  9G04G09G10G17G12G05G25G02G30
 115148174.523 7  89726019.91145  21911967.203                    21911976.395
 125352690.406 7  97677493.71643  23853837.344                    23853848.551
 109822749.438 8  85576274.87746  20898555.297                    20898563.789
 122545110.880 7  95489805.020 6  23319559.344                    23319569.328
 112013770.146 8  87283518.623 7  21315511.969                    21315519.602
 114229627.259 8  89010218.388 7  21737157.031                    21737165.508
 125658669.193 7  97915941.418 6  23912059.797                    23912071.113
 108451849.203 8  84508098.13846  20637685.234                    20637691.410
 124792792.926 6  97241249.09743  23747299.672                    23747309.031
 11  8 23  0 15 30.0000000  0  9G04G09G10G17G12G05G25G02G30
 115226526.080 8  89787073.02545  21926877.000                    21926886.238
 125432273.618 7  97739506.48043  23868981.414                    23868993.148
 109832388.074 8  85583785.50846  20900389.898                    20900397.840
 122599270.121 7  95532006.964 6  23329865.500                    23329874.938
 111958991.033 7  87240833.600 7  21305087.492                    21305095.352
 114144525.657 8  88943905.514 7  21720962.602                    21720970.988
 125561502.592 7  97840227.257 6  23893569.234                    23893581.051
 108455566.172 8  84510994.48946  20638392.859                    20638398.699
 124695508.009 6  97165442.72043  23728787.422                    23728796.582
 11  8 23  0 16  0.0000000  0  9G04G09G10G17G12G05G25G02G30
 115304984.866 8  89848209.69145  21941807.563                    21941815.984
 125511977.640 7  97801613.38143  23884148.758                    23884160.941
 109842657.036 8  85591787.29646  20902343.750                    20902351.945
 122653593.293 7  95574336.642 6  23340203.133                    23340212.563
 111904668.506 8  87198504.363 7  21294750.563                    21294757.836
 114059769.830 8  88877862.068 7  21704834.016                    21704842.555
 125464542.531 7  97764674.002 7  23875118.367                    23875129.961
 108459553.596 8  84514101.58746  20639151.391                    20639157.242
 124598498.349 7  97089850.84843  23710327.320                    23710335.914
 11  8 23  0 16 30.0000000  0  9G04G09G10G17G12G05G25G02G30
 115383548.898 8  89909428.35345  21956757.828                    21956766.574
 125591799.091 6  97863811.77143  23899337.859                    23899349.895
 109853556.168 8  85600280.14446  20904418.094                    20904425.891
 122708080.810 7  95616794.386 6  23350571.711                    23350581.402
 111850805.106 8  87156532.866 7  21284500.719                    21284508.098
 113975362.292 7  88812090.037 7  21688771.867                    21688780.227
 125367791.557 7  97689283.691 7  23856707.531                    23856719.457
 108463809.978 8  84517418.26146  20639961.719                    20639967.266
 124501766.802 7  97014475.66443  23691919.602                    23691928.297
 11  8 23  0 17  0.0000000  0  9G04G09G10G17G12G05G25G02G30
 115462216.365 8  89970727.60845  21971727.539                    21971736.168
 125671734.773 7  97926099.19343  23914549.602                    23914560.734
 109865085.369 8  85609263.95046  20906611.414                    20906619.941
 122762733.302 6  95659380.650 6  23360970.977                    23360981.270
 111797402.462 8  87114920.430 7  21274338.406                    21274346.059
 113891305.936 8  88746591.633 7  21672776.320                    21672784.945
 125271252.336 7  97614058.391 6  23838336.227                    23838348.488
 108468334.452 8  84520943.83746  20640822.648                    20640828.098
 124405316.168 7  96939319.36643  23673565.625                    23673573.988
 11  8 23  0 17 30.0000000  0  9G04G09G10G17G12G05G25G02G30
 115540985.200 7  90032105.85145  21986716.578                    21986725.855
 125751781.128 7  97988472.85243  23929782.000                    23929793.023
 109877243.802 8  85618738.07246  20908925.391                    20908934.000
 122817551.155 6  95702095.768 6  23371403.617                    23371412.918
 111744462.700 8  87073668.671 7  21264264.508                    21264271.430
 113807603.370 7  88681368.915 7  21656848.461                    21656856.820
 125174927.457 7  97539000.093 7  23820006.578                    23820018.438
 108473125.521 8  84524677.15146  20641734.313                    20641739.715
 124309149.114 7  96864384.05443  23655265.008                    23655273.500
 11  8 23  0 18  0.0000000  0  9G04G09G10G17G12G05G25G02G30
 115619853.706 7  90093561.77645  22001724.844                    22001733.918
 125831934.776 7  98050930.16344  23945035.352                    23945046.488
 109890031.368 8  85628702.43446  20911359.000                    20911367.137
 122872535.084 6  95744940.343 6  23381866.820                    23381875.930
 111691988.195 8  87032779.454 7  21254279.180                    21254286.465
 113724257.360 7  88616424.038 7  21640988.055                    21640995.938
 125078819.672 7  97464110.949 7  23801717.789                    23801729.406
 108478182.248 8  84528617.47146  20642696.648                    20642702.141
 124213268.670 7  96789672.07743  23637020.492                    23637028.305
 11  8 23  0 18 30.0000000  0  9G04G09G10G17G12G05G25G02G30
 115698820.150 7  90155094.02345  22016751.711                    22016761.078
 125912192.762 6  98113468.73343  23960306.852                    23960319.527
 109903447.520 8  85639156.58146  20913911.813                    20913919.828
 122927685.522 6  95787914.606 6  23392361.578                    23392370.855
 111639980.973 8  86992254.349 7  21244382.297                    21244389.828
 113641270.663 7  88551759.159 7  21625195.594                    21625204.453
 124982931.583 7  97389393.014 7  23783470.891                    23783482.039
 108483503.541 8  84532763.94746  20643709.047                    20643714.500
 124117677.561 7  96715185.60143  23618829.461                    23618838.566
 11  8 23  0 19  0.0000000  0  9G04G09G10G17G12G05G25G02G30
 115777882.606 8  90216701.08845  22031797.227                    22031806.375
 125992551.639 6  98176085.92543  23975598.906                    23975611.035
 109917492.184 8  85650100.46846  20916584.586                    20916592.598
 122983002.978 7  95831019.078 6  23402888.516                    23402897.883
 111588443.290 8  86952095.126 7  21234575.273                    21234582.563
 113558646.071 8  88487376.428 7  21609472.836                    21609481.816
 124887265.733 7  97314848.258 7  23765266.453                    23765277.613
 108489087.872 8  84537115.39046  20644771.742                    20644777.031
 124022378.542 7  96640926.66444  23600694.109                    23600703.836
 11  8 23  0 19 30.0000000  0  9G04G09G10G17G12G05G25G02G30
 115857039.251 7  90278381.55145  22046859.891                    22046868.895
 126073008.071 6  98238779.11043  23990909.328                    23990921.781
 109932164.862 8  85661533.70746  20919376.805                    20919384.832
 123038487.996 7  95874254.131 6  23413447.000                    23413455.688
 111537376.923 8  86912303.161 7  21224857.445                    21224865.258
 113476386.322 8  88423277.983 7  21593819.344                    21593827.875
 124791824.884 7  97240478.796 6  23747104.219                    23747116.066
 108494934.292 8  84541671.06446  20645884.609                    20645889.945
 123927374.573 7  96566897.68943  23582616.547                    23582625.250
 11  8 23  0 20  0.0000000  0  9G04G09G10G17G12G05G25G02G30
 115936288.222 7  90340133.97545  22061940.547                    22061949.238
 126153558.577 6  98301545.60443  24006238.102                    24006250.422
 109947465.258 8  85673456.08346  20922287.906                    20922296.402
 123094140.939 7  95917620.017 6  23424038.125                    23424045.859
 111486784.015 8  86872880.134 7  21215230.383                    21215238.020
 113394493.933 8  88359465.805 7  21578235.828                    21578244.484
 124696611.661 7  97166286.708 6  23728985.516                    23728997.316
 108501041.209 8  84546429.71246  20647046.469                    20647052.152
 123832668.371 7  96493100.68543  23564593.883                    23564603.297
 11  8 23  0 20 30.0000000  0  9G04G09G10G17G12G05G25G02G30
 116015627.917 7  90401957.08045  22077038.242                    22077047.355
 126234199.871 7  98364382.81644  24021584.219                    24021596.195
 109963392.820 8  85685867.15746  20925319.023                    20925327.102
 123149962.543 7  95961117.348 6  23434660.320                    23434668.680
 111436666.939 8  86833827.878 7  21205693.141                    21205700.594
 113312971.851 7  88295942.167 7  21562722.625                    21562731.410
 124601628.848 7  97092274.171 7  23710911.547                    23710922.594
 108507407.765 8  84551390.68346  20648258.242                    20648263.773
 123738262.822 7  96419537.95043  23546629.492                    23546638.359
 11  8 23  0 21  0.0000000  0  9G04G09G10G17G12G05G25G02G30
 116095056.612 7  90463849.53145  22092153.172                    22092161.871
 126314928.849 6  98427288.36344  24036945.391                    24036958.316
 109979947.059 8  85698766.56146  20928469.250                    20928477.371
 123205953.082 7  96004746.321 6  23445315.266                    23445324.805
 111387027.863 8  86795148.095 7  21196247.258                    21196254.965
 113231822.678 7  88232709.104 7  21547280.633                    21547288.848
 124506879.124 7  97018443.259 6  23692880.422                    23692892.086
 108514032.813 8  84556553.06046  20649518.617                    20649524.160
 123644160.928 7  96346211.82643  23528722.352                    23528730.930
 11  8 23  0 21 30.0000000  0  9G04G09G10G17G12G05G25G02G30
 116174572.183 7  90525809.68645  22107284.922                    22107292.996
 126395741.882 6  98490259.41543  24052323.828                    24052336.703
 109997126.904 8  85712153.45346  20931738.688                    20931747.156
 123262113.080 7  96048507.325 6  23456001.648                    23456010.535
 111337868.051 8  86756841.772 7  21186892.414                    21186899.695
 113151048.729 7  88169768.432 7  21531909.719                    21531918.363
 124412364.813 7  96944795.787 6  23674895.320                    23674906.070
 108520914.559 8  84561915.46246  20650828.453                    20650833.684
 123550365.014 7  96273124.17144  23510873.086                    23510882.402
 11  8 23  0 22  0.0000000  0  9G04G09G10G17G12G05G25G02G30
 116254173.029 7  90587836.29145  22122432.219                    22122440.801
 126476635.600 6  98553293.35643  24067717.578                    24067730.477
 110014932.296 8  85726027.78546  20935126.273                    20935134.676
 123318443.040 7  96092400.792 6  23466721.023                    23466729.383
 111289190.056 8  86718910.890 7  21177628.953                    21177636.000
 113070653.087 7  88107122.539 7  21516610.719                    21516618.895
 124318088.839 7  96871334.005 6  23656955.297                    23656966.738
 108528051.982 8  84567477.09246  20652186.609                    20652191.844
 123456878.186 7  96200277.34344  23493082.984                    23493092.625
 11  8 23  0 22 30.0000000  0  9G04G09G10G17G12G05G25G02G30
 116333857.663 7  90649928.19445  22137596.141                    22137604.059
 126557607.177 6  98616387.94743  24083126.320                    24083138.691
 110033363.157 8  85740389.49846  20938633.961                    20938642.680
 123374943.662 7  96136427.205 6  23477472.617                    23477481.848
 111240996.060 8  86681357.144 7  21168458.297                    21168465.844
 112990638.269 7  88044773.377 7  21501384.422                    21501392.801
 124224054.021 7  96798060.133 6  23639061.578                    23639071.871
 108535444.539 8  84573237.51846  20653593.633                    20653598.961
 123363703.412 7  96127673.65144  23475352.469                    23475361.734
 11  8 23  0 23  0.0000000  0  9G04G09G10G17G12G05G25G02G30
 116413624.314 7  90712083.99445  22152774.875                    22152783.785
 126638653.160 6  98679540.47643  24098548.586                    24098561.313
 110052418.650 8  85755237.94046  20942260.102                    20942268.340
 123431615.062 7  96180586.694 6  23488256.469                    23488265.313
 111193287.796 8  86644181.900 7  21159379.766                    21159387.246
 112911006.899 7  87982723.025 7  21486231.016                    21486239.105
 124130262.918 7  96724976.179 6  23621213.789                    23621224.406
 108543090.597 8  84579195.48246  20655048.352                    20655053.906
 123270843.421 7  96055315.25344  23457681.969                    23457691.012
 11  8 23  0 23 30.0000000  0  9G04G09G10G17G12G05G25G02G30
 116493471.110 7  90774302.27145  22167968.844                    22167978.035
 126719770.211 6  98742748.41543  24113985.016                    24113997.719
 110072097.944 8  85770572.43746  20946005.055                    20946013.465
 123488457.897 7  96224879.770 7  23499073.945                    23499083.027
 111146067.359 8  86607386.780 7  21150393.789                    21150401.063
 112831761.621 7  87920973.508 7  21471150.930                    21471159.367
 124036718.187 7  96652084.235 6  23603412.563                    23603423.953
 108550989.030 8  84585350.10446  20656550.992                    20656556.824
 123178301.067 7  95983204.35944  23440071.813                    23440080.375
 11  8 23  0 24  0.0000000  0  9G04G09G10G17G12G05G25G02G30
 116573396.219 7  90836581.55845  22183178.227                    22183187.438
 126800954.970 6  98806009.11443  24129434.500                    24129446.512
 110092399.986 8  85786392.20446  20949868.430                    20949876.254
 123545472.557 7  96269306.742 7  23509923.352                    23509933.664
 111099336.865 8  86570973.425 7  21141501.156                    21141508.734
 112752904.837 8  87859526.722 7  21456145.219                    21456153.719
 123943422.427 7  96579386.276 7  23585658.742                    23585670.039
 108559138.241 8  84591700.14546  20658102.031                    20658107.559
 123086079.018 7  95911343.06144  23422522.266                    23422530.504
 11  8 23  0 24 30.0000000  0  9G04G09G10G17G12G05G25G02G30
 116653397.939 7  90898920.53045  22198402.375                    22198411.043
 126882204.212 6  98869320.05343  24144894.766                    24144908.426
 110113324.255 8  85802696.82746  20953849.859                    20953858.703
 123602659.447 7  96313867.907 7  23520806.508                    23520815.766
 111053097.840 8  86534943.028 7  21132701.969                    21132709.832
 112674439.560 7  87798385.011 7  21441213.648                    21441222.383
 123850378.318 7  96506884.404 6  23567953.305                    23567964.313
 108567537.232 8  84598244.80846  20659699.938                    20659705.355
 122994180.113 7  95839733.54543  23405034.797                    23405042.766
 11  8 23  0 25  0.0000000  0  9G04G09G10G17G12G05G25G02G30
 116733474.878 7  90961318.12645  22213640.625                    22213648.918
 126963514.841 6  98932678.84043  24160368.688                    24160381.422
 110134870.329 8  85819485.96646  20957950.109                    20957958.625
 123660019.097 7  96358563.688 6  23531720.648                    23531730.316
 111007352.561 7  86499297.358 7  21123997.063                    21124004.660
 112596368.258 7  87737550.297 7  21426357.000                    21426365.797
 123757588.766 7  96434580.883 7  23550295.758                    23550306.887
 108576184.986 8  84604983.30046  20661345.852                    20661350.895
 122902607.348 7  95768378.16843  23387609.109                    23387616.777
 11  8 23  0 25 30.0000000  0  9G04G09G10G17G12G05G25G02G30
 116813625.367 7  91023773.01945  22228892.742                    22228901.102
 127044883.497 6  98996082.82443  24175852.563                    24175865.082
 110157037.515 8  85836759.09146  20962168.594                    20962176.781
 123717551.940 7  96403394.434 6  23542668.680                    23542678.668
 110962103.330 8  86464038.231 7  21115386.414                    21115393.828
 112518693.566 8  87677024.618 7  21411576.148                    21411584.438
 123665056.412 7  96362477.789 7  23532686.992                    23532698.492
 108585080.355 8  84611914.75246  20663038.961                    20663044.063
 122811363.479 7  95697279.07144  23370245.664                    23370254.313
 11  8 23  0 26  0.0000000  0  9G04G09G10G17G12G05G25G02G30
 116893847.532 7  91086283.75045  22244158.461                    22244166.727
 127126306.905 6  99059529.44143  24191346.734                    24191360.082
 110179824.924 8  85854515.51546  20966504.547                    20966513.078
 123775258.672 6  96448360.656 6  23553650.203                    23553659.359
 110917351.290 8  86429166.531 7  21106870.359                    21106878.031
 112441418.107 8  87616810.031 7  21396870.727                    21396879.355
 123572783.795 7  96290577.086 7  23515128.750                    23515139.816
 108594222.031 8  84619038.12746  20664778.016                    20664784.000
 122720451.202 7  95626438.37843  23352946.422                    23352954.813
 11  8 23  0 26 30.0000000  0  9G04G09G10G17G12G05G25G02G30
 116974139.826 7  91148849.12745  22259437.742                    22259445.379
 127207781.958 6  99123016.30643  24206851.430                    24206864.012
 110203231.840 8  85872754.68446  20970959.141                    20970967.102
 123833139.501 6  96493462.540 6  23564664.320                    23564674.266
 110873098.632 8  86394683.956 7  21098449.664                    21098456.746
 112364544.388 7  87556908.493 7  21382242.383                    21382251.250
 123480773.742 7  96218880.973 7  23497618.734                    23497630.906
 108603608.861 8  84626352.54146  20666564.531                    20666569.859
 122629873.396 7  95555858.29543  23335709.117                    23335718.387
 11  8 23  0 27  0.0000000  0  9G04G09G10G17G12G05G25G02G30
 117054500.556 7  91211467.84345  22274729.977                    22274738.289
 127289305.368 6  99186540.84343  24222365.055                    24222377.012
 110227257.359 8  85891475.88946  20975530.742                    20975538.309
 123891194.964 7  96538700.529 6  23575711.922                    23575721.656
 110829347.440 8  86360592.121 7  21090124.109                    21090131.164
 112288075.019 8  87497322.036 7  21367690.258                    21367699.219
 123389028.955 7  96147391.576 7  23480160.148                    23480172.105
 108613239.761 8  84633857.13846  20668397.281                    20668402.590
 122539632.948 7  95485541.08844  23318536.664                    23318546.188
 11  8 23  0 27 30.0000000  0  9G04G09G10G17G12G05G25G02G30
 117134927.802 7  91274138.38744  22290034.875                    22290043.195
 127370873.699 6  99250100.41543  24237887.836                    24237899.563
 110251900.793 8  85910678.58746  20980220.141                    20980228.336
 123949425.372 6  96584074.775 6  23586792.648                    23586803.102
 110786099.245 8  86326892.245 7  21081893.609                    21081900.875
 112212012.349 8  87438052.488 7  21353216.375                    21353225.309
 123297551.908 7  96076110.796 7  23462752.633                    23462764.645
 108623112.806 8  84641550.42046  20670275.953                    20670281.133
 122449732.418 7  95415488.74043  23301429.930                    23301439.051
 11  8 23  0 28  0.0000000  0  9G04G09G10G17G12G05G25G02G30
 117215420.394 7  91336859.85044  22305351.867                    22305360.633
 127452483.910 6  99313692.62143  24253417.422                    24253430.078
 110277161.139 8  85930361.97946  20985027.656                    20985035.266
 124007831.077 6  96629585.699 6  23597906.109                    23597916.930
 110743356.086 8  86293585.899 7  21073760.633                    21073767.426
 112136358.854 8  87379101.783 7  21338819.828                    21338828.703
 123206345.373 7  96005040.811 7  23445397.203                    23445408.715
 108633227.254 8  84649431.80346  20672200.664                    20672206.371
 122360174.740 7  95345703.59043  23284387.203                    23284396.336
 11  8 23  0 28 30.0000000  0  9G04G09G10G17G12G05G25G02G30
 117295976.445 7  91399630.76344  22320680.594                    22320689.801
 127534132.699 6  99377314.88243  24268954.281                    24268967.148
 110303037.179 8  85950525.16046  20989951.086                    20989959.262
 124066412.616 6  96675233.605 6  23609054.859                    23609064.809
 110701119.552 8  86260674.324 7  21065722.711                    21065730.211
 112061117.131 8  87320471.920 7  21324501.570                    21324510.168
 123115411.919 7  95934183.599 7  23428093.172                    23428104.254
 108643581.895 8  84657500.36446  20674171.070                    20674176.195
 122270962.472 7  95276187.56644  23267410.797                    23267419.336
 11  8 23  0 29  0.0000000  0  9G04G09G10G17G12G05G25G02G30
 117376594.554 7  91462450.03044  22336021.961                    22336031.527
 127615816.999 6  99440964.81043  24284498.891                    24284511.242
 110329528.523 8  85971167.77646  20994992.203                    20995000.457
 124125170.364 6  96721018.793 6  23620236.594                    23620245.836
 110659392.137 8  86228159.461 7  21057782.484                    21057790.039
 111986290.040 8  87262165.157 7  21310262.703                    21310270.910
 123024754.501 7  95863541.485 7  23410841.688                    23410853.816
 108654175.674 8  84665755.25946  20676186.805                    20676192.684
 122182098.681 7  95206943.09144  23250500.422                    23250509.203
 11  8 23  0 29 30.0000000  0  9G04G09G10G17G12G05G25G02G30
 117457272.776 7  91525316.12745  22351374.797                    22351383.766
 127697533.370 6  99504639.74043  24300049.258                    24300061.008
 110356633.504 8  85992288.57246  21000150.008                    21000158.148
 124184104.652 6  96766941.564 6  23631451.383                    23631461.234
 110618174.976 8  86196042.200 7  21049938.852                    21049946.684
 111911879.586 8  87204183.017 7  21296102.859                    21296110.773
 122934375.442 7  95793116.283 7  23393643.250                    23393654.531
 108665006.935 8  84674195.20746  20678248.172                    20678253.727
 122093585.871 7  95137972.13044  23233656.594                    23233665.895
 11  8 23  0 30  0.0000000  0  9G04G09G10G17G12G05G25G02G30
 117538009.890 7  91588228.09345  22366738.414                    22366747.402
 127779279.129 6  99568337.56243  24315605.188                    24315617.719
 110384352.025 8  86013887.44446  21005424.680                    21005432.602
 124243216.402 7  96813002.614 6  23642700.078                    23642709.254
 110577470.251 8  86164324.227 7  21042193.336                    21042200.324
 111837888.704 8  87146527.827 7  21282022.461                    21282031.023
 122844277.906 7  95722910.463 7  23376497.680                    23376509.902
 108676075.093 8  84682819.73846  20680354.445                    20680359.797
 122005427.256 7  95069277.14844  23216880.422                    23216889.984
 11  8 23  0 30 30.0000000  0  9G04G09G10G17G12G05G25G02G30
 117618804.841 7  91651185.14545  22382113.734                    22382121.980
 127861051.146 6  99632055.88943  24331165.930                    24331178.445
 110412683.014 8  86035963.56646  21010816.063                    21010824.117
 124302506.002 7  96859202.231 6  23653982.414                    23653992.070
 110537279.863 8  86133007.051 7  21034544.875                    21034551.949
 111764320.084 8  87089201.685 7  21268023.117                    21268031.516
 122754464.833 7  95652926.293 7  23359406.945                    23359418.051
 108687379.279 8  84691628.19746  20682505.414                    20682510.656
 121917625.918 7  95000860.55744  23200172.461                    23200182.246
 11  8 23  0 31  0.0000000  0  9G04G09G10G17G12G05G25G02G30
 117699655.169 7  91714185.34745  22397498.922                    22397506.973
 127942845.580 6  99695791.68943  24346730.719                    24346743.262
 110441624.588 8  86058515.47046  21016323.508                    21016331.055
 124361973.224 7  96905540.288 6  23665298.984                    23665308.676
 110497604.896 8  86102091.498 7  21026995.648                    21027002.625
 111691175.660 8  87032206.065 7  21254104.242                    21254112.582
 122664938.114 7  95583165.261 6  23342371.023                    23342382.000
 108698917.208 8  84700618.80446  20684701.516                    20684706.723
 121830183.754 7  94932723.83744  23183533.164                    23183542.191
 11  8 23  0 31 30.0000000  0  9G04G09G10G17G12G05G25G02G30
 117780559.450 7  91777227.57645  22412894.781                    22412902.633
 128024659.507 6  99759542.67043  24362298.391                    24362312.691
 110471175.802 8  86081542.40946  21021946.867                    21021954.781
 124421618.478 7  96952017.055 6  23676648.961                    23676658.648
 110458447.656 8  86071579.357 7  21019543.531                    21019551.055
 111618457.620 8  86975542.705 7  21240266.547                    21240274.492
 122575700.482 7  95513629.500 7  23325389.617                    23325400.234
 108710687.932 8  84709790.80546  20686940.828                    20686946.699
 121743103.645 6  94864869.25544  23166962.773                    23166971.832
 11  8 23  0 32  0.0000000  0  9G04G09G10G17G12G05G25G02G30
 117861516.092 7  91840310.62645  22428300.203                    22428309.418
 128106489.529 6  99823306.21044  24377871.898                    24377884.664
 110501335.785 7  86105043.70645  21027686.039                    21027694.344
 124481442.210 6  96998632.917 6  23688032.344                    23688041.684
 110419809.125 8  86041471.420 7  21012191.086                    21012198.672
 111546168.577 7  86919213.625 7  21226510.047                    21226518.477
 122486754.777 7  95444321.208 7  23308463.305                    23308474.754
 108722690.205 8  84719143.24646  20689224.781                    20689230.504
 121656388.361 7  94797298.95144  23150461.148                    23150470.328
 11  8 23  0 32 30.0000000  0  9G04G09G10G17G12G05G25G02G30
 117942523.475 7  91903433.21244  22443714.969                    22443723.875
 128188332.236 6  99887079.61443  24393446.125                    24393458.758
 110532103.343 8  86129018.42746  21033541.070                    21033549.457
 124541445.095 6  97045388.331 6  23699451.164                    23699460.793
 110381691.178 8  86011769.114 7  21004937.234                    21004944.305
 111474310.905 8  86863220.685 7  21212836.102                    21212844.234
 122398103.337 7  95375242.213 7  23291593.570                    23291604.730
 108734922.644 8  84728675.02146  20691552.484                    20691558.219
 121570040.516 6  94730014.97244  23134029.109                    23134039.020
 11  8 23  0 33  0.0000000  0  9G04G09G10G17G12G05G25G02G30
 118023580.161 6  91966594.26044  22459139.680                    22459149.105
 128270185.042 6  99950860.93243  24409021.789                    24409034.531
 110563477.443 8  86153465.77546  21039511.219                    21039519.797
 124601627.268 6  97092283.471 6  23710902.891                    23710913.707
 110344095.596 8  85982473.849 7  20997783.484                    20997790.520
 111402887.129 8  86807565.837 7  21199244.680                    21199253.051
 122309749.074 7  95306394.774 7  23274780.148                    23274791.652
 108747384.417 8  84738385.51346  20693923.977                    20693929.551
 121484063.011 7  94663019.55644  23117668.617                    23117677.711
 11  8 23  0 33 30.0000000  0  9G04G09G10G17G12G05G25G02G30
 118104684.840 6  92029792.66144  22474572.539                    22474582.742
 128352044.530 6 100014647.45143  24424598.898                    24424612.023
 110595456.879 8  86178384.82046  21045596.609                    21045605.152
 124661989.091 6  97139318.580 6  23722390.344                    23722399.910
 110307024.324 8  85953587.144 7  20990729.023                    20990736.141
 111331899.539 8  86752250.872 7  21185736.125                    21185744.539
 122221694.788 7  95237781.089 6  23258024.063                    23258034.770
 108760074.139 8  84748273.62046  20696338.445                    20696344.367
 121398458.652 7  94596314.90744  23101378.883                    23101387.707
 11  8 23  0 34  0.0000000  0  9G04G09G10G17G12G05G25G02G30
 118185835.831 7  92093027.18044  22490015.242                    22490025.375
 128433907.682 6 100078436.80243  24440177.727                    24440190.133
 110628040.259 8  86203774.47145  21051797.086                    21051804.953
 124722530.659 6  97186493.796 6  23733910.453                    23733920.590
 110270478.700 8  85925110.026 7  20983774.500                    20983781.695
 111261350.566 8  86697277.692 7  21172310.844                    21172319.535
 122133943.102 7  95169403.200 7  23241325.789                    23241336.703
 108772990.553 8  84758338.37946  20698796.625                    20698802.016
 121313230.142 7  94529903.11744  23085160.227                    23085168.777
 11  8 23  0 34 30.0000000  0  9G04G09G10G17G12G05G25G02G30
 118267031.668 7  92156296.64444  22505466.984                    22505476.324
 128515771.426 6 100142226.59843  24455755.852                    24455768.867
 110661226.491 8  86229633.86546  21058112.297                    21058120.281
 124783252.628 6  97233809.535 6  23745464.992                    23745475.832
 110234460.440 8  85897043.844 7  20976920.484                    20976927.648
 111191242.776 8  86642648.297 7  21158969.578                    21158978.305
 122046496.603 7  95101263.101 7  23224685.445                    23224695.855
 108786132.672 8  84768579.00746  20701297.789                    20701303.016
 121228380.120 7  94463786.25844  23069013.625                    23069021.957
 11  8 23  0 35  0.0000000  0  9G04G09G10G17G12G05G25G02G30
 118348271.056 7  92219600.05044  22520926.742                    22520935.445
 128597632.519 6 100206014.34943  24471333.938                    24471346.043
 110695014.516 8  86255962.18746  21064541.828                    21064550.020
 124844155.329 6  97281266.125 6  23757054.906                    23757065.879
 110198971.337 8  85869389.981 7  20970167.383                    20970174.262
 111121578.202 8  86588364.255 7  21145712.813                    21145721.414
 121959358.002 7  95033362.920 7  23208103.406                    23208114.352
 108799499.322 8  84778994.60046  20703840.992                    20703846.152
 121143911.437 7  94397966.52144  23052939.047                    23052948.402
 11  8 23  0 35 30.0000000  0  9G04G09G10G17G12G05G25G02G30
 118429552.203 7  92282935.98544  22536394.523                    22536402.750
 128679487.942 6 100269797.69243  24486909.359                    24486922.410
 110729402.516 8  86282758.03746  21071085.781                    21071094.117
 124905238.727 6  97328863.498 6  23768679.031                    23768689.781
 110164012.578 8  85842149.393 7  20963514.938                    20963522.027
 111052358.983 8  86534427.238 7  21132540.891                    21132549.441
 121872529.762 7  94965704.575 7  23191580.422                    23191591.547
 108813088.689 8  84789583.73146  20706427.180                    20706432.273
 121059826.471 7  94332445.84244  23036938.438                    23036947.391
 11  8 23  0 36  0.0000000  0  9G04G09G10G17G12G05G25G02G30
 118510873.639 7  92346303.32444  22551868.891                    22551876.996
 128761334.408 6 100333573.99843  24502484.609                    24502498.125
 110764389.435 8  86310020.57446  21077743.719                    21077751.789
 124966503.660 6  97376602.374 6  23780338.117                    23780347.398
 110129585.638 8  85815323.212 7  20956963.344                    20956970.805
 110983587.667 8  86480839.248 7  21119454.453                    21119462.734
 121786014.572 7  94898290.180 7  23175116.883                    23175128.023
 108826900.007 8  84800345.81046  20709055.422                    20709060.148
 120976128.008 7  94267226.28444  23021010.813                    23021020.047
 11  8 23  0 36 30.0000000  0  9G04G09G10G17G12G05G25G02G30
 118592234.077 7  92409701.07044  22567351.234                    22567359.813
 128843168.673 6 100397340.83743  24518057.672                    24518070.605
 110799973.783 8  86337748.64146  21084514.992                    21084523.305
 125027950.340 6  97424482.868 6  23792030.023                    23792040.414
 110095692.014 8  85788912.588 7  20950513.586                    20950520.934
 110915266.720 8  86427602.197 7  21106453.250                    21106461.363
 121699815.153 7  94831121.849 7  23158713.836                    23158724.465
 108840931.960 8  84811279.81346  20711725.633                    20711731.254
 120892818.792 7  94202310.06844  23005158.055                    23005166.461
 11  8 23  0 37  0.0000000  0  9G04G09G10G17G12G05G25G02G30
 118673632.209 7  92473128.14444  22582841.227                    22582849.117
 128924987.818 6 100461095.89843  24533627.063                    24533640.594
 110836154.494 8  86365941.39946  21091400.148                    21091407.992
 125089578.954 6  97472505.109 6  23803758.391                    23803768.563
 110062333.623 8  85762919.040 7  20944165.813                    20944172.883
 110847398.357 8  86374717.797 7  21093538.109                    21093546.754
 121613934.299 7  94764201.738 7  23142371.617                    23142381.590
 108855183.540 8  84822384.94746  20714437.211                    20714443.160
 120809901.592 7  94137699.28644  22989379.563                    22989388.469
 11  8 23  0 37 30.0000000  0  9G04G09G10G17G12G05G25G02G30
 118755066.464 7  92536583.39144  22598336.734                    22598345.188
 129006788.854 6 100524836.81943  24549193.641                    24549206.816
 110872930.209 8  86394597.79846  21098398.281                    21098406.617
 125151390.012 7  97520669.524 6  23815520.555                    23815529.703
 110029511.832 8  85737343.625 7  20937920.102                    20937927.367
 110779984.831 8  86322187.828 7  21080709.797                    21080718.191
 121528374.631 7  94697531.904 7  23126090.211                    23126100.352
 108869653.713 8  84833660.41546  20717190.953                    20717196.449
 120727379.182 7  94073396.15544  22973675.969                    22973684.570
 11  8 23  0 38  0.0000000  0  9G04G09G10G17G12G05G25G02G30
 118836535.466 7  92600065.68644  22613840.008                    22613848.699
 129088568.756 6 100588561.24243  24564755.438                    24564769.871
 110910299.460 8  86423716.68846  21105509.273                    21105517.352
 125213383.557 6  97568976.175 6  23827316.891                    23827327.555
 109997228.108 8  85712187.482 7  20931776.273                    20931784.422
 110713028.392 8  86270014.016 7  21067968.453                    21067976.840
 121443138.662 7  94631114.313 7  23109869.555                    23109880.754
 108884340.736 8  84845104.85946  20719985.711                    20719991.242
 120645254.066 7  94009402.60844  22958047.945                    22958056.582
 11  8 23  0 38 30.0000000  0  9G04G09G10G17G12G05G25G02G30
 118918037.674 7  92663573.87244  22629349.047                    22629358.629
 129170324.365 6 100652266.77743  24580314.242                    24580326.727
 110948260.848 8  86453296.98445  21112733.367                    21112741.121
 125275560.385 6  97617425.601 6  23839149.469                    23839158.223
 109965484.338 8  85687452.094 7  20925736.195                    20925743.707
 110646531.486 8  86218198.288 7  21055314.258                    21055322.488
 121358229.167 7  94564951.122 7  23093711.664                    23093723.133
 108899243.785 8  84856717.63446  20722821.648                    20722827.711
 120563528.997 7  93945720.78344  22942495.945                    22942504.840
 11  8 23  0 39  0.0000000  0  9G04G09G10G17G12G05G25G02G30
 118999572.114 7  92727107.17644  22644864.992                    22644874.543
 129252052.609 6 100715951.04043  24595866.164                    24595879.191
 110986813.071 8  86483337.67645  21120069.133                    21120077.840
 125337920.415 6  97666017.811 6  23851016.047                    23851025.359
 109934281.469 8  85663138.181 7  20919798.477                    20919805.953
 110580495.926 8  86166742.051 7  21042748.344                    21042756.504
 121273648.862 7  94499044.443 7  23077616.523                    23077627.766
 108914361.912 8  84868497.99746  20725698.281                    20725704.305
 120482206.716 7  93882352.81744  22927021.586                    22927029.898
 11  8 23  0 39 30.0000000  0  9G04G09G10G17G12G05G25G02G30
 119081136.938 7  92790664.13044  22660385.742                    22660396.004
 129333750.624 6 100779611.66843  24611413.211                    24611425.898
 111025954.539 8  86513837.51746  21127517.883                    21127525.773
 125400463.762 6  97714752.849 6  23862917.430                    23862927.227
 109903620.753 8  85639246.731 7  20913963.828                    20913971.223
 110514923.800 8  86115646.938 8  21030270.000                    21030278.602
 121189400.256 7  94433396.237 7  23061584.547                    23061596.309
 108929693.494 8  84880444.68746  20728616.063                    20728621.742
 120401289.755 7  93819300.69444  22911622.148                    22911632.410
 11  8 23  0 40  0.0000000  0  9G04G09G10G17G12G05G25G02G30
 119162730.981 7  92854243.87844  22675913.156                    22675922.242
 129415415.087 6 100843246.12543  24626952.922                    24626966.926
 111065683.648 8  86544795.25445  21135078.086                    21135085.977
 125463190.932 6  97763631.147 6  23874853.672                    23874863.988
 109873503.837 8  85615779.017 7  20908232.844                    20908240.328
 110449817.782 8  86064915.011 8  21017880.734                    21017889.344
 121105485.999 7  94368008.533 7  23045616.000                    23045627.777
 108945237.334 8  84892556.77946  20731573.961                    20731579.785
 120320780.796 7  93756566.46744  22896302.391                    22896311.848
 11  8 23  0 40 30.0000000  0  9G04G09G10G17G12G05G25G02G30
 119244352.802 7  92917845.28444  22691445.445                    22691454.652
 129497042.871 6 100906852.00643  24642487.039                    24642500.047
 111105998.823 8  86576209.66545  21142749.789                    21142757.867
 125526102.208 6  97812652.903 6  23886825.031                    23886835.363
 109843932.174 8  85592736.172 7  20902605.516                    20902612.813
 110385179.837 8  86014547.832 8  21005580.617                    21005588.918
 121021908.518 7  94302883.288 7  23029711.641                    23029723.035
 108960992.096 8  84904833.20646  20734572.367                    20734577.863
 120240682.175 7  93694152.01044  22881060.141                    22881069.434
 11  8 23  0 41  0.0000000  0  9G04G09G10G17G12G05G25G02G30
 119326000.878 7  92981467.13144  22706982.680                    22706991.781
 129578631.411 6 100970427.30543  24658012.766                    24658025.609
 111146898.674 8  86608079.66845  21150532.984                    21150540.938
 125589197.789 6  97861818.260 6  23898831.617                    23898842.258
 109814906.796 8  85570119.003 7  20897082.008                    20897089.438
 110321012.067 8  85964547.017 8  20993369.953                    20993378.203
 120938670.587 7  94238022.600 7  23013871.867                    23013883.637
 108976956.912 8  84917273.31846  20737610.133                    20737615.766
 120160996.748 7  93632059.50444  22865896.648                    22865906.031
 11  8 23  0 41 30.0000000  0  9G04G09G10G17G12G05G25G02G30
 119407674.110 7  93045108.58044  22722524.531                    22722533.172
 129660177.356 6 101033969.40743  24673529.797                    24673543.055
 111188381.441 8  86640403.88946  21158426.469                    21158434.660
 125652477.939 6  97911127.472 6  23910874.836                    23910884.098
 109786429.115 8  85547928.614 7  20891663.234                    20891670.527
 110257316.776 8  85914914.367 7  20981249.398                    20981257.020
 120855774.793 7  94173428.516 7  22998097.391                    22998109.059
 108993130.619 8  84929876.21246  20740688.055                    20740693.473
 120081727.156 7  93570291.01844  22850812.188                    22850821.078
 11  8 23  0 42  0.0000000  0  9G04G09G10G17G12G05G25G02G30
 119489371.097 7  93108768.56044  22738070.695                    22738079.285
 129741677.531 6 101097475.84843  24689039.555                    24689053.453
 111230445.510 8  86673181.07445  21166430.984                    21166439.160
 125715942.890 6  97960580.646 6  23922951.063                    23922961.762
 109758500.633 8  85526166.162 7  20886348.180                    20886355.527
 110194095.759 8  85865651.288 8  20969218.547                    20969227.012
 120773223.784 7  94109103.092 7  22982388.578                    22982399.996
 109009511.913 8  84942640.85046  20743805.180                    20743810.387
 120002875.884 7  93508848.50044  22835807.305                    22835816.203
 11  8 23  0 42 30.0000000  0  9G04G09G10G17G12G05G25G02G30
 119571090.479 7  93172445.97744  22753621.305                    22753630.242
 129823129.252 6 101160944.48043  24704539.719                    24704553.109
 111273089.668 8  86706410.27645  21174546.172                    21174553.918
 125779592.927 6  98010178.073 6  23935062.992                    23935073.559
 109731122.556 8  85504832.609 7  20881138.516                    20881146.047
 110131351.344 8  85816759.573 8  20957278.422                    20957286.852
 120691020.176 7  94045048.346 7  22966745.984                    22966756.898
 109026099.561 8  84955566.28546  20746961.547                    20746967.414
 119924445.596 7  93447734.02044  22820882.344                    22820891.758
 11  8 23  0 43  0.0000000  0  9G04G09G10G17G12G05G25G02G30
 119652830.843 7  93236139.69344  22769175.523                    22769185.391
 129904529.461 6 101224372.99643  24720029.344                    24720043.180
 111316311.831 8  86740089.87446  21182771.156                    21182778.852
 125843428.198 6  98059919.852 6  23947210.711                    23947221.063
 109704296.200 8  85483928.964 7  20876033.688                    20876041.090
 110069085.477 8  85768240.763 7  20945429.719                    20945437.910
 120609166.341 7  93981266.165 6  22951169.820                    22951180.328
 109042892.439 8  84968651.64046  20750157.367                    20750162.910
 119846438.671 7  93386949.43444  22806038.016                    22806047.598
 11  8 23  0 43 30.0000000  0  9G04G09G10G17G12G05G25G02G30
 119734590.871 7  93299848.74544  22784734.719                    22784743.594
 129985875.224 6 101287759.11443  24735509.484                    24735523.031
 111360110.132 7  86774218.41345  21191105.219                    21191113.484
 125907448.843 6  98109806.037 6  23959393.945                    23959403.516
 109678022.565 8  85463456.006 7  20871034.016                    20871041.762
 110007300.381 8  85720096.576 7  20933672.414                    20933680.457
 120527665.026 7  93917758.660 7  22935660.281                    22935670.781
 109059889.262 8  84981895.92246  20753391.430                    20753397.109
 119768857.795 7  93326496.83944  22791275.141                    22791284.340
 11  8 23  0 44  0.0000000  0  9G04G09G10G17G12G05G25G02G30
 119816369.381 7  93363572.19344  22800297.148                    22800305.305
 130067163.310 6 101351100.29743  24750978.125                    24750991.508
 111404482.985 8  86808794.65145  21199549.070                    21199557.516
 125971655.221 7  98159836.958 6  23971612.789                    23971621.000
 109652302.809 8  85443414.647 7  20866139.648                    20866146.918
 109945997.914 8  85672328.450 7  20922006.828                    20922015.367
 120446518.735 7  93854527.788 7  22920218.641                    22920229.172
 109077088.749 8  84995298.12146  20756664.500                    20756670.422
 119691705.448 7  93266378.14544  22776593.461                    22776601.984
 11  8 23  0 44 30.0000000  0  9G04G09G10G17G12G05G25G02G30
 119898165.184 7  93427309.11844  22815862.148                    22815870.289
 130148390.948 6 101414394.33943  24766435.281                    24766448.598
 111449428.690 7  86843817.25845  21208102.070                    21208110.398
 126036047.312 6  98210012.597 6  23983865.117                    23983875.598
 109627138.672 8  85423806.232 7  20861351.297                    20861358.172
 109885179.935 8  85624937.857 7  20910433.813                    20910441.641
 120365730.109 7  93791575.627 7  22904845.531                    22904856.012
 109094490.014 8  85008857.54046  20759976.008                    20759981.574
 119614984.301 7  93206595.46444  22761993.945                    22762002.586
 11  8 23  0 45  0.0000000  0  9G04G09G10G17G12G05G25G02G30
 119979976.809 7  93491058.37344  22831430.383                    22831438.813
 130229554.921 6 101477638.76943  24781880.383                    24781894.039
 111494945.900 7  86879285.21045  21216764.070                    21216772.020
 126100625.735 7  98260333.428 6  23996154.633                    23996163.109
 109602530.609 8  85404631.129 7  20856667.852                    20856675.570
 109824848.833 8  85577926.645 7  20898953.109                    20898961.309
 120285301.795 7  93728904.230 7  22889540.578                    22889550.598
 109112091.713 8  85022573.14846  20763325.773                    20763331.273
 119538696.773 6  93147150.66944  22747476.156                    22747485.695
 11  8 23  0 45 30.0000000  0  9G04G09G10G17G12G05G25G02G30
 120061803.207 7  93554819.09844  22847001.328                    22847010.359
 130310652.454 6 101540831.42143  24797313.148                    24797326.594
 111541032.618 8  86915196.93245  21225533.867                    21225542.047
 126165390.531 7  98310799.501 6  24008479.102                    24008488.285
 109578480.023 8  85385890.417 7  20852091.445                    20852098.590
 109765006.413 8  85531296.229 7  20887564.773                    20887573.859
 120205236.194 7  93666515.451 7  22874304.047                    22874314.621
 109129892.531 8  85036443.91146  20766712.969                    20766718.254
 119462845.344 7  93088045.67344  22733042.906                    22733051.277
 11  8 23  0 46  0.0000000  0  9G04G09G10G17G12G05G25G02G30
 120143642.948 7  93618590.24144  22862575.531                    22862584.434
 130391680.725 6 101603970.12243  24812731.648                    24812745.973
 111587687.122 8  86951551.07445  21234411.930                    21234420.031
 126230342.084 6  98361411.081 6  24020838.500                    24020848.211
 109554988.267 8  85367585.150 7  20847621.359                    20847628.578
 109705654.967 8  85485048.384 8  20876271.023                    20876279.492
 120125536.058 7  93604411.454 7  22859137.570                    22859148.668
 109147891.862 8  85050469.36146  20770137.805                    20770143.195
 119387432.694 7  93029282.57444  22718691.828                    22718700.391
 11  8 23  0 46 30.0000000  0  9G04G09G10G17G12G05G25G02G30
 120225494.912 7  93682370.93244  22878150.672                    22878160.023
 130472636.868 6 101667052.54843  24828138.313                    24828152.203
 111634907.656 8  86988346.29145  21243397.531                    21243405.617
 126295480.056 6  98412167.908 6  24033233.852                    24033243.594
 109532056.747 8  85349716.445 7  20843257.078                    20843264.508
 109646796.051 8  85439184.326 8  20865070.664                    20865079.043
 120046203.910 7  93542594.204 7  22844040.984                    22844052.242
 109166087.958 8  85064648.12346  20773600.289                    20773606.168
 119312461.365 7  92970863.36544  22704425.766                    22704434.277
 11  8 23  0 47  0.0000000  0  9G04G09G10G17G12G05G25G02G30
 120307357.980 7  93746160.28244  22893729.547                    22893738.320
 130553517.940 6 101730076.53842  24843529.109                    24843543.410
 111682692.297 8  87025581.07045  21252490.758                    21252499.145
 126360805.017 6  98463070.421 6  24045664.695                    24045675.254
 109509686.459 8  85332285.046 7  20839000.508                    20839007.949
 109588431.849 8  85393705.772 7  20853964.258                    20853972.547
 119967242.332 7  93481065.701 7  22829015.672                    22829026.246
 109184479.969 8  85078979.55646  20777100.313                    20777105.758
 119237933.810 7  92912789.94644  22690243.531                    22690251.844
 11  8 23  0 47 30.0000000  0  9G04G09G10G17G12G05G25G02G30
 120389230.752 7  93809957.18244  22909309.438                    22909318.773
 130634320.781 6 101793039.59143  24858905.531                    24858919.848
 111731039.069 8  87063253.88245  21261691.086                    21261699.012
 126426316.978 6  98514118.691 6  24058131.203                    24058140.973
 109487877.554 8  85315291.091 7  20834850.680                    20834857.836
 109530564.041 8  85348614.013 7  20842952.164                    20842960.320
 119888653.678 7  93419827.775 7  22814060.250                    22814071.578
 109203066.550 8  85093462.60646  20780637.031                    20780643.512
 119163852.273 7  92855064.08944  22676146.641                    22676154.602
 11  8 23  0 48  0.0000000  0  9G04G09G10G17G12G05G25G02G30
 120471113.412 6  93873761.82544  22924890.594                    22924900.461
 130715044.294 6 101855940.82542  24874267.602                    24874281.309
 111779947.999 8  87101364.74445  21270997.883                    21271006.609
 126492017.603 6  98565313.967 6  24070634.086                    24070643.840
 109466633.145 8  85298737.027 7  20830807.539                    20830815.594
 109473196.249 8  85303911.868 8  20832035.703                    20832043.719
 119810442.141 7  93358883.723 7  22799177.203                    22799188.465
 109221848.137 8  85108097.61946  20784211.445                    20784217.070
 119090220.910 7  92797689.01644  22662134.117                    22662143.137
 11  8 23  0 48 30.0000000  0  8G04G10G17G12G05G25G02G30
 120553003.411 6  93937572.21244  22940473.508                    22940483.367
 111829415.547 8  87139910.89745  21280411.328                    21280419.262
 126557905.951 6  98616655.510 6  24083172.469                    24083181.922
 109445952.947 8  85282622.583 7  20826872.453                    20826879.738
 109416328.870 8  85259599.665 7  20821213.945                    20821221.957
 119732608.865 7  93298234.423 7  22784366.531                    22784377.395
 109240822.261 8  85122882.66546  20787821.930                    20787827.734
 119017040.898 7  92740665.61844  22648208.539                    22648217.305
 11  8 23  0 49  0.0000000  0  8G04G10G17G12G05G25G02G30
 120634899.644 6  94001387.41244  22956057.219                    22956067.848
 111879439.429 8  87178890.55445  21289930.398                    21289938.797
 126623981.597 6  98668143.019 6  24095745.813                    24095756.246
 109425837.733 8  85266948.393 7  20823044.469                    20823051.906
 109359963.362 8  85215678.518 8  20810487.961                    20810496.480
 119655156.139 7  93237881.639 7  22769627.430                    22769638.738
 109259987.679 8  85137816.75746  20791468.727                    20791475.246
 118944314.344 7  92683995.57644  22634369.336                    22634378.484
 11  8 23  0 49 30.0000000  0  8G04G10G17G12G05G25G02G30
 120716800.455 7  94065206.20044  22971643.320                    22971653.031
 111930017.441 8  87218301.99445  21299555.414                    21299563.500
 126690244.515 6  98719776.481 6  24108354.992                    24108364.234
 109406287.925 8  85251714.788 7  20819324.375                    20819331.453
 109304101.452 8  85172149.796 8  20799857.625                    20799865.719
 119578086.112 7  93177827.097 7  22754961.484                    22754972.258
 109279342.547 8  85152898.47746  20795152.039                    20795157.781
 118872043.265 7  92627680.43844  22620616.656                    22620625.469
 11  8 23  0 50  0.0000000  0  8G04G10G17G12G05G25G02G30
 120798704.728 7  94129027.68744  22987229.000                    22987238.543
 111981147.737 8  87258143.77645  21309285.406                    21309293.336
 126756694.976 6  98771556.106 6  24120999.313                    24121009.336
 109387304.697 8  85236922.670 7  20815711.984                    20815718.918
 109248744.996 8  85129014.930 7  20789323.617                    20789331.797
 119501401.343 7  93118072.762 7  22740368.734                    22740380.117
 109298885.854 8  85168127.03646  20798870.727                    20798876.750
 118800230.210 7  92571722.20844  22606951.414                    22606959.699
 11  8 23  0 50 30.0000000  0  8G04G10G17G12G05G25G02G30
 120880611.393 7  94192851.03344  23002815.500                    23002824.410
 112032828.808 7  87298414.74245  21319119.523                    21319127.746
 126823333.429 6  98823482.153 6  24133680.406                    24133690.910
 109368889.057 8  85222572.820 7  20812207.492                    20812214.418
 109193896.052 8  85086275.528 8  20778886.344                    20778894.207
 119425104.591 7  93058620.763 7  22725849.578                    22725861.020
 109318616.873 8  85183501.85946  20802625.656                    20802631.531
 118728877.815 7  92516122.95044  22593373.477                    22593381.719
 11  8 23  0 51  0.0000000  0  8G04G10G17G12G05G25G02G30
 120962519.698 7  94256675.67044  23018402.648                    23018411.266
 112085058.790 7  87339113.43545  21329058.664                    21329066.645
 126890159.715 6  98875554.600 6  24146397.133                    24146407.223
 109351042.470 8  85208666.409 7  20808811.375                    20808818.758
 109139556.561 8  85043933.110 7  20768545.883                    20768553.922
 119349198.586 7  92999473.254 7  22711405.203                    22711416.586
 109338534.649 8  85199022.20046  20806416.125                    20806421.613
 118657988.695 7  92460884.69444  22579883.352                    22579892.492
 11  8 23  0 51 30.0000000  0  8G04G10G17G12G05G25G02G30
 121044428.160 7  94320500.43544  23033989.617                    23033997.871
 112137835.197 7  87380237.93345  21339101.156                    21339109.621
 126957174.086 6  98927773.585 6  24159149.680                    24159160.406
 109333765.079 8  85195203.493 7  20805524.063                    20805531.203
 109085728.045 8  85001988.844 8  20758302.438                    20758310.777
 119273685.492 7  92940631.911 7  22697036.172                    22697046.723
 109358637.701 8  85214686.91946  20810241.508                    20810247.121
 118587564.858 7  92406008.98444  22566482.250                    22566491.305
 11  8 23  0 52  0.0000000  0  8G04G10G17G12G05G25G02G30
 121126335.649 7  94384324.43344  23049575.344                    23049584.551
 112191155.916 7  87421786.56745  21349247.492                    21349256.555
 127024376.301 6  98980139.021 6  24171937.578                    24171948.145
 109317058.005 8  85182185.002 7  20802344.852                    20802351.512
 109032412.090 8  84960443.987 7  20748156.906                    20748164.828
 119198567.641 7  92882098.560 7  22682741.430                    22682752.113
 109378924.658 8  85230494.94146  20814102.266                    20814107.734
 118517608.679 7  92351497.69244  22553170.313                    22553179.082
 11  8 23  0 52 30.0000000  0  8G04G10G17G12G05G25G02G30
 121208241.217 7  94448146.94644  23065161.906                    23065169.672
 112245019.334 7  87463758.08045  21359497.805                    21359506.352
 127091767.054 6  99032651.294 6  24184762.609                    24184771.910
 109300922.344 8  85169611.771 7  20799273.992                    20799281.188
 108979610.858 8  84919300.216 7  20738108.906                    20738117.051
 119123847.986 7  92823875.514 7  22668522.828                    22668533.824
 109399395.323 8  85246446.12346  20817997.195                    20818002.730
 118448122.924 7  92297352.97844  22539947.414                    22539956.555
 11  8 23  0 53  0.0000000  0  8G04G10G17G12G05G25G02G30
 121290143.604 7  94511966.97944  23080746.961                    23080755.961
 112299423.035 7  87506150.58545  21369850.711                    21369858.754
 127159345.991 6  99085310.240 6  24197621.000                    24197630.969
 109285358.387 8  85157484.009 7  20796312.633                    20796319.332
 108927325.628 8  84878558.514 8  20728159.867                    20728167.852
 119049528.571 7  92765964.313 7  22654379.828                    22654391.180
 109420047.655 8  85262538.85746  20821927.641                    20821932.809
 118379109.411 7  92243576.23744  22526814.609                    22526823.168
 11  8 23  0 53 30.0000000  0  8G04G10G17G12G05G25G02G30
 121372041.779 7  94575783.73144  23096331.516                    23096341.055
 112354365.449 8  87548962.86045  21380306.039                    21380314.289
 127227113.224 6  99138115.869 6  24210517.734                    24210527.867
 109270367.333 8  85145802.666 7  20793459.477                    20793466.785
 108875558.302 8  84838220.376 7  20718308.313                    20718316.609
 118975612.031 7  92708367.081 7  22640314.313                    22640325.750
 109440880.785 8  85278772.47046  20825892.039                    20825897.418
 118310570.809 7  92190169.58045  22513772.086                    22513780.824
 11  8 23  0 54  0.0000000  0  8G04G10G17G12G05G25G02G30
 121453934.801 7  94639596.48444  23111915.531                    23111924.691
 112409844.177 8  87592193.03545  21390863.602                    21390871.707
 127295069.037 6  99191068.454 6  24223449.539                    24223458.875
 109255949.393 8  85134567.911 7  20790715.891                    20790723.078
 108824310.431 8  84798287.012 8  20708556.477                    20708564.402
 118902100.834 7  92651085.691 7  22626325.445                    22626336.262
 109461893.760 8  85295146.22746  20829890.391                    20829896.164
 118242509.382 7  92137134.74644  22500819.906                    22500829.113
 11  8 23  0 54 30.0000000  0  8G04G10G17G12G05G25G02G30
 121535821.416 7  94703404.27244  23127497.578                    23127507.547
 112465856.649 8  87635839.11145  21401522.016                    21401530.477
 127363213.282 6  99244167.879 6  24236415.977                    24236426.137
 109242105.564 8  85123780.512 7  20788081.617                    20788089.277
 108773583.983 8  84758759.947 8  20698903.391                    20698911.457
 118828997.170 7  92594121.861 7  22612414.422                    22612424.863
 109483085.213 8  85311659.05246  20833922.977                    20833928.805
 118174927.175 7  92084473.33644  22487959.820                    22487968.738
 11  8 23  0 55  0.0000000  0  8G04G10G17G12G05G25G02G30
 121617700.853 7  94767206.43344  23143079.258                    23143088.723
 112522401.659 8  87679900.15045  21412282.141                    21412290.668
 127431546.290 6  99297414.366 6  24249419.305                    24249429.738
 109228837.062 8  85113441.424 7  20785556.711                    20785563.793
 108723380.267 8  84719640.207 8  20689349.836                    20689357.902
 118756303.993 7  92537477.894 7  22598581.078                    22598591.660
 109504454.653 8  85328310.56246  20837989.391                    20837994.922
 118107827.031 7  92032187.56044  22475190.984                    22475199.648
 11  8 23  0 55 30.0000000  0  8G04G10G17G12G05G25G02G30
 121699571.695 7  94831001.91144  23158658.781                    23158668.125
 112579476.382 7  87724373.94645  21423143.422                    21423151.602
 127500067.980 6  99350807.908 6  24262458.844                    24262468.566
 109216144.006 8  85103550.724 7  20783141.297                    20783148.566
 108673700.751 8  84680928.934 8  20679895.898                    20679903.898
 118684023.208 7  92481155.269 7  22584826.422                    22584837.391
 109526000.350 8  85345099.42946  20842089.367                    20842094.945
 118041210.706 7  91980278.77944  22462514.250                    22462523.148
 11  8 23  0 56  0.0000000  0  8G04G10G17G12G05G25G02G30
 121781433.370 7  94894790.23644  23174236.508                    23174245.508
 112637078.961 7  87769259.07945  21434104.242                    21434112.820
 127568778.289 6  99404348.410 6  24275534.430                    24275543.145
 109204027.443 8  85094109.248 7  20780835.453                    20780842.840
 108624547.440 8  84642627.680 8  20670542.625                    20670550.535
 118612157.501 7  92425156.087 7  22571150.953                    22571161.645
 109547721.551 8  85362025.04246  20846222.867                    20846228.504
 117975080.712 7  91928748.97644  22449930.563                    22449938.402
 11  8 23  0 56 30.0000000  0  8G04G10G17G12G05G25G02G30
 121863284.469 6  94958570.33143  23189812.234                    23189821.688
 112695207.233 7  87814553.82645  21445165.711                    21445174.496
 127637677.353 7  99458035.981 6  24288645.758                    24288654.348
 109192487.873 8  85085117.373 7  20778639.180                    20778646.840
 108575921.678 8  84604737.524 8  20661289.273                    20661297.164
 118540709.172 7  92369482.122 7  22557555.031                    22557565.445
 109569616.981 8  85379086.40946  20850389.500                    20850394.887
 117909439.239 7  91877599.82844  22437439.172                    22437447.352
 11  8 23  0 57  0.0000000  0  8G04G10G17G12G05G25G02G30
 121945124.179 6  95022341.50944  23205385.883                    23205394.551
 112753858.842 7  87860256.37745  21456326.875                    21456335.512
 127706765.225 6  99511870.693 6  24301792.797                    24301802.184
 109181525.618 8  85076575.346 7  20776553.398                    20776561.402
 108527824.848 8  84567259.508 8  20652136.789                    20652144.633
 118469680.622 7  92314135.252 7  22544038.547                    22544049.410
 109591685.725 8  85396282.82846  20854588.977                    20854594.633
 117844288.457 7  91826833.03445  22425041.531                    22425049.742
 11  8 23  0 57 30.0000000  0  8G04G10G17G12G05G25G02G30
 122026951.296 6  95086102.92744  23220957.266                    23220965.664
 112813031.502 8  87906364.93345  21467586.906                    21467595.582
 127776041.885 6  99565852.452 6  24314975.094                    24314985.008
 109171141.642 8  85068483.931 7  20774577.563                    20774584.484
 108480258.637 8  84530194.956 8  20643085.391                    20643092.992
 118399074.249 7  92259117.352 7  22530602.438                    22530612.742
 109613926.753 8  85413613.49146  20858821.422                    20858826.820
 117779630.651 7  91776450.40245  22412737.391                    22412745.855
 11  8 23  0 58  0.0000000  0  8G04G10G17G12G05G25G02G30
 122108764.870 6  95149853.78943  23236525.688                    23236534.371
 112872722.852 8  87952877.66445  21478945.828                    21478954.164
 127845507.282 7  99619981.338 6  24328194.055                    24328204.227
 109161336.119 8  85060843.265 7  20772711.375                    20772718.996
 108433224.491 8  84493545.012 8  20634134.570                    20634142.828
 118328892.213 7  92204430.090 7  22517247.500                    22517257.926
 109636338.603 8  85431077.27246  20863085.836                    20863091.598
 117715467.779 7  91726453.42745  22400527.500                    22400536.391
 11  8 23  0 58 30.0000000  0  8G04G10G17G12G05G25G02G30
 122190563.966 7  95213593.36344  23252091.484                    23252100.582
 112932930.705 8  87999792.86845  21490403.086                    21490411.383
 127915161.556 6  99674257.379 6  24341448.508                    24341459.215
 109152109.543 8  85053653.710 7  20770956.086                    20770963.383
 108386723.635 8  84457310.616 8  20625285.977                    20625293.895
 118259136.908 7  92150075.347 7  22503973.633                    22503984.414
 109658920.303 8  85448673.40646  20867383.125                    20867388.781
 117651802.050 7  91676843.82145  22388412.031                    22388420.906
 11  8 23  0 59  0.0000000  0  9G04G29G10G17G12G05G25G02G30
 122272347.493 7  95277320.80444  23267653.953                    23267663.766
 129523785.17616 100927686.94815  24647567.477                    24647576.551
 112993652.837 7  88047108.80745  21501958.531                    21501966.289
 127985004.556 6  99728680.482 6  24354739.508                    24354749.012
 109143463.058 8  85046916.189 7  20769310.625                    20769317.438
 108340757.699 8  84421493.035 8  20616539.266                    20616547.012
 118189810.830 7  92096055.054 7  22490781.234                    22490791.488
 109681671.130 8  85466401.32446  20871712.758                    20871718.012
 117588635.825 7  91627623.42145  22376392.414                    22376400.313
 11  8 23  0 59 30.0000000  0  9G04G29G10G17G12G05G25G02G30
 122354115.186 7  95341035.91344  23283213.992                    23283223.438
 129444196.054 6 100865669.538 5  24632421.453                    24632431.508
 113054887.745 7  88094824.30145  21513611.430                    21513619.254
 128055036.910 6  99783251.098 6  24368066.898                    24368076.031
 109135397.044 8  85040630.973 7  20767775.773                    20767782.645
 108295328.714 8  84386093.853 8  20607894.250                    20607901.867
 118120916.797 7  92042371.445 7  22477670.609                    22477680.781
 109704590.282 8  85484260.39846  20876073.820                    20876079.258
 117525971.643 7  91578794.23745  22364467.609                    22364475.965
 11  8 23  1  0  0.0000000  0  9G04G29G10G17G12G05G25G02G30
 122435865.595 6  95404737.54744  23298770.414                    23298780.227
 129364527.386 6 100803590.140 5  24617261.836                    24617270.891
 113116632.275 7  88142936.91945  21525360.781                    21525369.031
 128125257.841 6  99837968.702 6  24381428.945                    24381438.852
 109127911.583 8  85034798.141 7  20766351.125                    20766358.680
 108250437.682 8  84351113.862 8  20599351.758                    20599359.703
 118052456.634 7  91989025.887 7  22464643.266                    22464653.449
 109727676.116 8  85502249.35846  20880467.258                    20880472.547
 117463811.096 7  91530357.49245  22352639.117                    22352647.266
 11  8 23  1  0 30.0000000  0  9G04G29G10G17G12G05G25G02G30
 122517597.774 7  95468424.96544  23314324.453                    23314333.719
 129284779.687 6 100741449.178 5  24602085.922                    24602095.586
 113178884.226 7  88191444.92445  21537206.805                    21537215.027
 128195667.669 6  99892833.537 5  24394827.320                    24394836.676
 109121007.186 8  85029418.082 7  20765037.375                    20765044.805
 108206085.720 8  84316553.931 8  20590911.852                    20590919.785
 117984432.505 7  91936020.100 7  22451698.797                    22451708.965
 109750927.843 8  85520367.57846  20884891.531                    20884897.160
 117402156.372 7  91482314.88645  22340906.055                    22340914.438
 11  8 23  1  1  0.0000000  0  9G04G29G10G17G12G05G25G02G30
 122599310.796 6  95532097.44944  23329873.695                    23329883.238
 129204953.517 6 100679247.046 5  24586894.984                    24586904.586
 113241641.302 7  88240346.54245  21549149.398                    21549157.090
 128266266.269 6  99947845.439 5  24408261.547                    24408270.938
 109114684.445 8  85024491.268 7  20763834.305                    20763841.555
 108162274.327 8  84282415.221 8  20582575.070                    20582582.688
 117916846.914 7  91883356.006 7  22438838.266                    22438847.648
 109774344.486 8  85538614.31946  20889347.688                    20889353.121
 117341009.575 7  91434668.05945  22329270.203                    22329278.516
 11  8 23  1  1 30.0000000  0  9G04G29G10G17G12G05G25G02G30
 122681003.063 6  95595753.78144  23345418.320                    23345428.297
 129125049.081 6 100616983.940 5  24571690.047                    24571699.617
 113304900.273 7  88289639.24445  21561186.891                    21561195.070
 128337053.065 6 100003004.036 5  24421731.234                    24421741.387
 109108942.696 8  85020017.181 7  20762741.992                    20762748.922
 108119004.662 8  84248698.630 8  20574340.734                    20574348.523
 117849701.525 7  91831034.921 7  22426060.273                    22426069.988
 109797924.041 8  85556988.00046  20893834.773                    20893840.523
 117280372.181 7  91387418.16645  22317731.398                    22317739.785
 11  8 23  1  2  0.0000000  0  9G04G29G10G17G12G05G25G02G30
 122762674.337 6  95659393.75744  23360960.180                    23360969.805
 129045067.410 6 100554660.627 5  24556470.047                    24556479.762
 113368659.642 8  88339321.86345  21573319.906                    21573327.695
 128408028.404 6 100058309.482 6  24435237.289                    24435247.375
 109103783.352 8  85015996.919 7  20761759.633                    20761767.148
 108076278.144 8  84215405.282 8  20566209.883                    20566217.859
 117782999.202 7  91779059.079 7  22413367.141                    22413377.355
 109821666.450 8  85575488.57646  20898352.977                    20898358.566
 117220246.835 7  91340567.26045  22306289.406                    22306297.781
 11  8 23  1  2 30.0000000  0  9G04G29G10G17G12G05G25G02G30
 122844323.822 6  95723016.74343  23376497.234                    23376507.676
 128965009.261 6 100492277.674 5  24541235.633                    24541245.133
 113432917.159 7  88389392.65745  21585547.641                    21585555.473
 128479192.279 6 100113761.827 5  24448780.547                    24448789.898
 109099207.058 8  85012430.982 8  20760888.859                    20760896.008
 108034096.016 8  84182536.121 8  20558183.094                    20558191.012
 117716742.246 7  91727430.258 7  22400758.930                    22400769.191
 109845570.675 8  85594115.24946  20902901.484                    20902907.223
 117160635.651 7  91294116.99245  22294945.992                    22294954.516
 11  8 23  1  3  0.0000000  0  9G04G29G10G17G12G05G25G02G30
 122925950.097 6  95786621.60844  23392029.961                    23392040.684
 128884874.717 6 100429835.230 5  24525986.398                    24525996.332
 113497670.103 7  88439849.49345  21597869.320                    21597877.668
 128550544.458 6 100169360.931 5  24462358.102                    24462367.316
 109095213.214 8  85009318.892 7  20760128.961                    20760136.422
 107992459.265 8  84150091.938 8  20550259.945                    20550267.543
 117650932.503 7  91676149.924 7  22388235.531                    22388246.266
 109869635.074 8  85612866.73746  20907480.914                    20907486.316
 117101540.284 7  91248068.65245  22283700.578                    22283708.582
 11  8 23  1  3 30.0000000  0  9G04G29G10G17G12G05G25G02G30
 123007552.668 6  95850207.99744  23407558.898                    23407568.723
 128804664.530 6 100367333.828 5  24510723.055                    24510732.387
 113562916.272 7  88490690.66345  21610285.773                    21610293.832
 128622085.021 6 100225106.836 5  24475971.547                    24475981.023
 109091802.532 8  85006661.226 7  20759480.141                    20759487.078
 107951369.404 8  84118073.894 8  20542440.781                    20542448.418
 117585572.437 7  91625219.972 7  22375798.078                    22375808.355
 109893858.942 8  85631742.48246  20912090.367                    20912096.449
 117042962.856 7  91202423.88545  22272553.703                    22272562.488
 11  8 23  1  4  0.0000000  0  9G04G29G10G17G12G05G25G02G30
 123089130.554 6  95913775.16443  23423083.031                    23423092.375
 128724379.207 6 100304773.890 6  24495445.094                    24495454.988
 113628652.898 7  88541913.99645  21622794.938                    21622803.082
 128693813.877 6 100280999.467 6  24489621.594                    24489630.902
 109088974.598 8  85004457.637 7  20758941.531                    20758949.250
 107910827.621 8  84086482.922 8  20534725.609                    20534733.664
 117520664.222 7  91574642.116 7  22363446.555                    22363456.910
 109918241.225 8  85650741.66546  20916730.148                    20916736.262
 116984905.322 7  91157184.24545  22261505.578                    22261514.434
 11  8 23  1  4 30.0000000  0  9G04G29G10G17G12G05G25G02G30
 123170682.959 7  95977322.46843  23438601.914                    23438610.871
 128644019.720 6 100242156.133 5  24480152.508                    24480163.004
 113694877.522 8  88593517.59245  21635397.258                    21635405.633
 128765730.776 6 100337038.629 5  24503308.297                    24503316.359
 109086730.310 8  85002708.854 8  20758514.680                    20758522.328
 107870835.164 8  84055320.005 8  20527115.547                    20527123.160
 117456210.135 7  91524418.126 7  22351181.000                    22351191.867
 109942781.048 8  85669863.60846  20921400.063                    20921406.336
 116927369.773 7  91112351.33845  22250556.922                    22250565.500
 11  8 23  1  5  0.0000000  0  8G04G29G10G12G05G25G02G30
 123252209.500 7  96040849.68143  23454116.047                    23454124.344
 128563587.059 6 100179481.362 6  24464846.703                    24464856.789
 113761588.588 8  88645500.23245  21648092.023                    21648100.324
 109085070.026 7  85001415.125 8  20758198.758                    20758206.168
 107831393.966 8  84024586.634 8  20519610.414                    20519617.996
 117392212.857 7  91474550.112 7  22339003.344                    22339013.820
 109967478.023 8  85689108.01446  20926099.898                    20926105.625
 116870358.661 7  91067927.09245  22239708.438                    22239716.672
 11  8 23  1  5 30.0000000  0  8G04G29G10G12G05G25G02G30
 123333708.694 7  96104355.52643  23469624.898                    23469633.438
 128483081.267 6 100116749.613 5  24449527.141                    24449536.883
 113828782.704 7  88697859.29345  21660878.563                    21660887.027
 109083993.456 8  85000576.250 8  20757993.477                    20758001.289
 107792504.000 8  83994282.793 8  20512209.586                    20512217.355
 117328673.933 7  91425039.251 7  22326911.828                    22326922.500
 109992330.180 7  85708473.32346  20930829.063                    20930835.254
 116813873.243 7  91023912.45345  22228959.414                    22228967.711
 11  8 23  1  6  0.0000000  0  8G04G29G10G12G05G25G02G30
 123415179.617 7  96167839.33443  23485128.000                    23485137.059
 128402502.878 6 100053961.280 5  24434193.516                    24434203.195
 113896457.355 7  88750592.80145  21673756.406                    21673765.066
 109083500.619 8  85000192.223 7  20757900.008                    20757907.473
 107754166.624 8  83964409.548 8  20504914.461                    20504922.020
 117265595.380 7  91375887.108 7  22314908.305                    22314919.324
 110017336.452 7  85727958.73246  20935587.688                    20935593.563
 116757915.175 7  90980308.74945  22218311.867                    22218318.863
 11  8 23  1  6 30.0000000  0  8G04G29G10G12G05G25G02G30
 123496621.192 7  96231300.27344  23500625.938                    23500635.250
 128321852.377 6  99991116.760 5  24418846.367                    24418855.398
 113964609.884 7  88803698.67945  21686724.938                    21686733.871
 109083591.718 8  85000263.213 8  20757917.500                    20757924.699
 107716383.016 8  83934967.807 8  20497723.898                    20497731.887
 117202979.282 7  91327095.347 7  22302993.219                    22303003.758
 110042495.758 8  85747563.38446  20940375.383                    20940380.832
 116702486.462 7  90937117.55245  22207763.484                    22207771.480
 11  8 23  1  7  0.0000000  0  8G04G29G10G12G05G25G02G30
 123578033.320 6  96294738.28244  23516118.063                    23516127.867
 128241130.994 6  99928217.040 5  24403485.914                    24403495.148
 114033238.489 7  88857175.53545  21699784.477                    21699793.645
 109084267.235 8  85000789.590 7  20758045.961                    20758053.332
 107679154.210 8  83905958.385 8  20490639.875                    20490647.602
 117140828.300 7  91278666.008 7  22291166.117                    22291176.613
 110067807.702 8  85767286.97646  20945192.063                    20945197.793
 116647589.400 7  90894340.59445  22197316.555                    22197325.078
 11  8 23  1  7 30.0000000  0  8G04G29G10G12G05G25G02G30
 123659415.186 6  96358152.71144  23531604.281                    23531614.117
 128160339.602 6  99865262.730 5  24388111.633                    24388120.910
 114102340.709 7  88911021.42045  21712934.258                    21712942.957
 109085527.716 8  85001771.781 7  20758285.703                    20758293.367
 107642481.587 8  83877382.346 8  20483660.898                    20483668.809
 117079144.786 7  91230600.945 7  22279428.586                    22279438.633
 110093271.614 8  85787128.97746  20950037.648                    20950043.234
 116593225.999 7  90851979.50445  22186971.594                    22186979.844
 11  8 23  1  8  0.0000000  0  8G04G29G10G12G05G25G02G30
 123740765.160 6  96421542.24844  23547084.914                    23547094.902
 128079478.579 6  99802254.188 5  24372724.883                    24372733.129
 114171913.145 7  88965233.71945  21726173.641                    21726182.207
 109087371.726 8  85003208.668 8  20758636.305                    20758643.660
 107606365.582 8  83849240.035 8  20476788.500                    20476796.227
 117017929.897 7  91182901.065 7  22267779.555                    22267789.719
 110118885.508 8  85807087.84846  20954912.016                    20954917.547
 116539397.228 7  90810035.01145  22176728.656                    22176736.984
 11  8 23  1  8 30.0000000  0  8G04G29G10G12G05G25G02G30
 123822082.886 6  96484906.66043  23562558.305                    23562569.254
 127998548.204 6  99739191.601 5  24357323.156                    24357332.473
 114241953.512 8  89019810.62545  21739502.414                    21739510.223
 109089799.699 8  85005100.591 7  20759098.672                    20759106.023
 107570807.263 8  83821532.288 8  20470021.813                    20470029.816
 116957186.007 8  91135568.194 7  22256220.852                    22256230.551
 110144648.509 8  85827162.91746  20959814.875                    20959820.250
 116486105.121 7  90768508.70345  22166587.633                    22166596.000
 11  8 23  1  9  0.0000000  0  8G04G29G10G12G05G25G02G30
 123903367.715 6  96548245.40443  23578027.109                    23578037.051
 127917549.298 6  99676075.665 5  24341910.117                    24341919.453
 114312459.495 8  89074750.34245  21752919.258                    21752926.738
 109092811.992 8  85007447.824 7  20759671.570                    20759679.277
 107535807.836 8  83794260.047 8  20463361.391                    20463369.523
 116896915.290 7  91088604.029 7  22244750.977                    22244761.805
 110170559.965 8  85847353.65546  20964745.016                    20964750.652
 116433351.628 7  90727402.08045  22156548.453                    22156557.633
 11  8 23  1  9 30.0000000  0  8G04G29G10G12G05G25G02G30
 123984619.081 7  96611558.11843  23593488.344                    23593498.328
 127836483.198 6  99612907.338 5  24326483.734                    24326493.895
 114383428.617 8  89130050.95245  21766424.688                    21766431.785
 109096408.691 8  85010250.422 8  20760356.211                    20760363.090
 107501368.420 8  83767424.172 8  20456807.977                    20456815.801
 116837120.142 7  91042010.457 7  22233372.375                    22233383.094
 110196619.275 8  85867659.60246  20969703.906                    20969709.793
 116381138.736 7  90686716.70245  22146612.969                    22146621.211
 11  8 23  1 10  0.0000000  0  8G04G29G10G12G05G25G02G30
 124065835.930 7  96674843.94744  23608943.828                    23608954.012
 127755350.303 6  99549687.026 6  24311044.578                    24311054.605
 114454857.987 7  89185710.20645  21780016.648                    21780024.402
 109100589.465 8  85013508.158 7  20761151.672                    20761159.203
 107467489.768 8  83741025.249 8  20450361.125                    20450368.906
 116777802.340 8  90995788.822 7  22222084.477                    22222095.078
 110222825.087 8  85888079.71146  20974690.930                    20974696.266
 116329467.999 7  90646453.79645  22136780.203                    22136788.500
 11  8 23  1 10 30.0000000  0  8G04G29G10G12G05G25G02G30
 124147017.788 7  96738102.50044  23624393.297                    23624402.016
 127674151.129 6  99486415.000 5  24295592.828                    24295602.051
 114526745.318 7  89241726.31645  21793696.180                    21793704.070
 109105354.267 8  85017220.969 7  20762058.781                    20762066.320
 107434173.025 8  83715064.198 8  20444020.922                    20444028.773
 116718964.099 7  90949940.883 7  22210888.039                    22210898.574
 110249176.783 8  85908613.49346  20979705.617                    20979711.094
 116278341.276 7  90606614.82745  22127050.797                    22127059.742
 11  8 23  1 11  0.0000000  0  8G04G29G10G12G05G25G02G30
 124228163.709 7  96801333.02344  23639834.250                    23639843.586
 127592886.693 6  99423092.138 5  24280127.797                    24280137.520
 114599087.939 7  89298097.18945  21807462.195                    21807470.691
 109110702.723 8  85021388.585 7  20763076.750                    20763084.176
 107401418.648 8  83689541.337 8  20437788.039                    20437796.051
 116660607.255 7  90904468.063 7  22199782.758                    22199793.469
 110275673.067 8  85929259.95146  20984747.695                    20984753.313
 116227760.152 7  90567200.99245  22117425.922                    22117433.988
 11  8 23  1 11 30.0000000  0  8G04G29G10G12G05G25G02G30
 124309272.545 7  96864534.67144  23655269.039                    23655278.043
 127511557.241 6  99359718.623 5  24264652.055                    24264661.250
 114671882.955 7  89354820.58045  21821315.023                    21821323.012
 109116634.776 8  85026010.938 7  20764205.203                    20764212.727
 107369227.471 7  83664457.346 8  20431662.070                    20431669.914
 116602733.467 7  90859371.652 7  22188770.109                    22188780.578
 110302312.509 8  85950017.95246  20989816.773                    20989822.453
 116177725.945 7  90528213.32845  22107904.680                    22107912.875
 11  8 23  1 12  0.0000000  0  8G04G29G10G12G05G25G02G30
 124390344.247 7  96927707.37743  23670696.430                    23670705.398
 127430164.064 6  99296295.448 5  24249162.766                    24249172.461
 114745127.786 7  89411894.48845  21835253.117                    21835261.012
 109123150.428 8  85031088.059 7  20765445.531                    20765452.465
 107337600.491 8  83639812.974 8  20425643.906                    20425651.492
 116545345.157 7  90814653.548 7  22177849.281                    22177860.105
 110329094.833 8  85970887.29146  20994913.453                    20994919.262
 116128240.711 7  90489653.42445  22098487.438                    22098496.035
 11  8 23  1 12 30.0000000  0  8G04G29G10G12G05G25G02G30
 124471377.866 7  96990850.42343  23686116.258                    23686125.129
 127348707.997 6  99232823.251 5  24233662.539                    24233671.777
 114818820.021 7  89469317.01645  21849276.219                    21849283.594
 109130249.651 8  85036619.912 7  20766796.313                    20766803.262
 107306538.500 8  83615608.866 8  20419732.641                    20419740.824
 116488444.292 7  90770315.263 7  22167021.063                    22167031.500
 110356019.080 8  85991867.22946  21000036.477                    21000042.602
 116079306.131 7  90451522.61945  22089175.836                    22089183.965
 11  8 23  1 13  0.0000000  0  8G04G29G10G12G05G25G02G30
 124552372.734 7  97053963.24143  23701529.266                    23701537.883
 127267189.830 6  99169302.656 6  24218149.500                    24218159.852
 114892956.957 7  89527086.06445  21863384.148                    21863391.680
 109137932.186 8  85042606.281 7  20768257.875                    20768264.941
 107276042.410 8  83591845.713 8  20413929.734                    20413937.410
 116432032.756 8  90726358.277 7  22156286.469                    22156297.004
 110383084.491 7  86012957.16646  21005187.141                    21005193.238
 116030923.745 7  90413822.10545  22079968.664                    22079977.215
 11  8 23  1 13 30.0000000  0  8G04G29G10G12G05G25G02G30
 124633328.380 7  97117045.54743  23716935.094                    23716943.867
 127185610.100 6  99105734.085 6  24202625.625                    24202634.648
 114967535.720 7  89585199.36845  21877576.023                    21877583.199
 109146197.326 8  85049046.644 7  20769830.813                    20769838.402
 107246112.796 8  83568523.972 8  20408234.344                    20408242.047
 116376112.571 7  90682784.155 7  22145644.859                    22145655.738
 110410290.070 8  86034156.33046  21010364.242                    21010369.832
 115983095.331 7  90376553.23945  22070867.023                    22070875.742
 11  8 23  1 14  0.0000000  0  8G04G29G10G12G05G25G02G30
 124714244.247 7  97180096.83743  23732332.273                    23732342.637
 127103970.071 6  99042118.484 6  24187090.820                    24187099.492
 115042554.275 7  89643655.38545  21891851.219                    21891859.648
 109155045.602 8  85055941.378 7  20771514.648                    20771522.074
 107216751.050 8  83545644.718 8  20402646.945                    20402654.602
 116320686.012 8  90639594.687 7  22135097.891                    22135108.336
 110437635.543 8  86055464.50146  21015567.844                    21015573.457
 115935822.568 7  90339717.37745  22061871.234                    22061880.320
 11  8 23  1 14 30.0000000  0  8G04G29G10G12G05G25G02G30
 124795118.480 7  97243115.67243  23747722.508                    23747732.262
 127022269.475 6  98978455.697 6  24171542.977                    24171552.563
 115118008.918 7  89702451.20145  21906210.148                    21906217.922
 109164475.742 8  85063289.523 7  20773309.289                    20773316.246
 107187956.829 8  83523207.693 8  20397167.555                    20397174.836
 116265753.769 8  90596790.391 7  22124644.555                    22124654.992
 110465118.087 8  86076879.49046  21020797.820                    21020802.773
 115889106.076 7  90303314.96645  22052982.039                    22052990.715
 11  8 23  1 15  0.0000000  0  8G04G29G10G12G05G25G02G30
 124875951.301 7  97306102.22043  23763104.469                    23763114.777
 126940510.142 6  98914747.145 6  24155984.836                    24155994.250
 115193897.496 7  89761585.15145  21920650.852                    21920659.098
 109174487.705 8  85071091.056 7  20775214.305                    20775221.520
 107159731.138 8  83501213.684 8  20391796.359                    20391803.859
 116211318.603 7  90554373.414 7  22114285.953                    22114295.980
 110492738.125 8  86098401.61546  21026053.430                    21026058.805
 115842948.067 7  90267347.70445  22044198.500                    22044207.164
 11  8 23  1 15 30.0000000  0  8G04G29G10G12G05G25G02G30
 124956742.024 6  97369055.99043  23778477.484                    23778488.234
 126858692.427 6  98850993.081 6  24140415.836                    24140424.754
 115270217.012 7  89821054.91045  21935173.953                    21935182.598
 109185081.345 8  85079345.818 7  20777230.336                    20777237.383
 107132074.571 8  83479663.151 8  20386533.336                    20386541.070
 116157382.152 8  90512345.044 7  22104022.195                    22104032.367
 110520494.370 8  86120029.86346  21031335.664                    21031340.672
 115797349.890 7  90231816.69445  22035521.320                    22035529.816
 11  8 23  1 16  0.0000000  0  8G04G29G10G12G05G25G02G30
 125037490.246 6  97431976.61343  23793844.070                    23793853.633
 126776817.697 6  98787194.597 6  24124835.344                    24124845.082
 115346965.004 7  89880858.52945  21949778.586                    21949786.922
 109196256.273 8  85088053.558 7  20779356.914                    20779364.051
 107104988.078 8  83458556.821 8  20381379.070                    20381386.648
 116103946.479 8  90470706.901 7  22093853.477                    22093864.023
 110548386.462 8  86141763.98146  21036642.961                    21036648.289
 115752313.248 7  90196723.25145  22026951.000                    22026959.289
 11  8 23  1 16 30.0000000  0  8G04G29G10G12G05G25G02G30
 125118194.865 6  97494863.25443  23809201.609                    23809211.172
 126694886.214 6  98723351.886 6  24109243.664                    24109253.809
 115424138.584 7  89940993.76645  21964464.672                    21964472.746
 109208011.779 8  85097213.689 7  20781593.852                    20781601.676
 107078471.927 8  83437894.916 8  20376333.109                    20376340.770
 116051013.123 8  90429460.156 7  22083780.914                    22083791.125
 110576412.834 8  86163602.72546  21041976.203                    21041981.801
 115707839.288 7  90162068.25245  22018487.641                    22018496.039
 11  8 23  1 17  0.0000000  0  8G04G29G10G12G05G25G02G30
 125198855.731 6  97557715.80543  23824551.211                    23824560.160
 126612899.317 6  98659466.019 6  24093642.172                    24093652.348
 115501735.536 7  90001458.90245  21979230.813                    21979238.617
 109220347.855 8  85106826.215 7  20783941.727                    20783949.051
 107052527.063 8  83417678.160 8  20371396.156                    20371403.648
 115998584.316 8  90388606.566 7  22073803.727                    22073814.477
 110604573.383 8  86185546.01546  21047335.180                    21047340.410
 115663929.837 7  90127853.14345  22010132.383                    22010140.395
 11  8 23  1 17 30.0000000  0  8G04G29G10G12G05G25G02G30
 125279472.088 6  97620533.67043  23839892.289                    23839901.121
 126530857.997 6  98595537.733 6  24078030.586                    24078040.414
 115579753.159 7  90062251.83445  21994076.656                    21994085.047
 109233264.223 8  85116890.915 7  20786399.227                    20786406.367
 107027154.147 8  83397907.092 8  20366567.633                    20366575.160
 115946661.732 8  90348147.432 7  22063922.875                    22063933.223
 110632867.153 8  86207593.10946  21052719.102                    21052724.879
 115620586.237 7  90094078.94445  22001884.391                    22001892.332
 11  8 23  1 18  0.0000000  0  8G04G29G10G12G05G25G02G30
 125360042.881 6  97683316.04543  23855224.328                    23855233.730
 126448762.938 6  98531567.561 6  24062408.125                    24062418.020
 115658188.124 7  90123370.00045  22009002.344                    22009010.766
 109246759.901 8  85127407.036 7  20788967.484                    20788974.637
 107002353.225 8  83378581.735 8  20361848.195                    20361855.891
 115895246.894 8  90308083.943 7  22054139.289                    22054149.031
 110661292.728 8  86229742.90946  21058128.828                    21058133.906
 115577809.494 7  90060746.45645  21993744.211                    21993752.070
 11  8 23  1 18 30.0000000  0  8G04G29G10G12G05G25G02G30
 125440567.835 6  97746062.72543  23870548.281                    23870557.043
 126366614.376 6  98467555.740 6  24046775.484                    24046785.648
 115737037.524 7  90184811.09445  22024007.430                    22024015.305
 109260833.695 8  85138373.624 7  20791645.719                    20791652.875
 106978124.646 8  83359702.352 8  20357237.648                    20357245.258
 115844341.282 8  90268417.249 7  22044452.188                    22044462.285
 110689848.991 8  86251994.53446  21063562.578                    21063568.090
 115535600.833 7  90027856.62445  21985712.328                    21985720.445
 11  8 23  1 19  0.0000000  0  8G04G29G10G12G05G25G02G30
 125521046.163 7  97808773.08343  23885863.352                    23885871.813
 126284413.835 6  98403503.438 6  24031133.867                    24031142.969
 115816298.986 7  90246573.26245  22039090.070                    22039098.277
 109275485.768 8  85149790.831 7  20794433.750                    20794440.984
 106954469.339 8  83341269.669 8  20352736.156                    20352743.566
 115793947.003 8  90229148.991 7  22034862.664                    22034872.664
 110718535.497 8  86274347.65146  21069021.523                    21069026.543
 115493961.908 7  89995410.75345  21977788.039                    21977796.387
 11  8 23  1 19 30.0000000  0  8G04G29G10G12G05G25G02G30
 125601477.557 6  97871446.84243  23901168.625                    23901177.109
 126202162.364 6  98339411.451 6  24015481.836                    24015490.930
 115895970.048 7  90308654.59645  22054250.875                    22054259.129
 109290715.921 8  85161658.476 7  20797332.125                    20797339.113
 106931387.418 8  83323283.793 8  20348343.852                    20348351.281
 115744065.894 8  90190280.602 7  22025370.922                    22025380.840
 110747351.628 8  86296801.77346  21074504.820                    21074510.242
 115452894.159 7  89963409.94745  21969973.172                    21969981.094
 11  8 23  1 20  0.0000000  0  8G04G29G10G12G05G25G02G30
 125681861.535 6  97934083.70943  23916465.102                    23916474.125
 126119860.769 6  98275280.373 5  23999820.063                    23999829.465
 115976047.662 7  90371052.73145  22069489.398                    22069497.320
 109306523.540 8  85173976.120 7  20800339.906                    20800347.465
 106908879.695 8  83305745.335 8  20344060.477                    20344068.094
 115694699.768 8  90151813.508 7  22015976.516                    22015986.641
 110776296.721 8  86319356.39646  21080012.977                    21080018.488
 115412399.025 7  89931855.31145  21962267.375                    21962275.816
 11  8 23  1 20 30.0000000  0  8G04G29G10G12G05G25G02G30
 125762197.942 6  97996683.47443  23931752.016                    23931761.930
 126037510.217 6  98211111.171 6  23984149.453                    23984158.469
 116056529.108 7  90433765.54345  22084804.945                    22084812.016
 109322907.643 8  85186742.956 7  20803457.813                    20803465.238
 106886946.666 8  83288654.696 8  20339886.711                    20339894.230
 115645850.413 8  90113749.086 7  22006680.961                    22006690.613
 110805370.176 8  86342011.03946  21085545.430                    21085551.055
 115372477.820 7  89900747.89445  21954670.578                    21954678.598
 11  8 23  1 21  0.0000000  0  8G04G29G10G12G05G25G02G30
 125842485.317 6  98059245.06143  23947029.367                    23947040.719
 125955111.371 6  98146904.327 5  23968469.273                    23968477.719
 116137411.489 7  90496790.78545  22100196.047                    22100203.418
 109339867.595 8  85199958.496 7  20806685.055                    20806692.316
 106865588.490 8  83272011.987 8  20335822.383                    20335829.844
 115597519.187 8  90076088.398 7  21997483.305                    21997493.723
 110834570.443 8  86364764.47746  21091101.914                    21091107.324
 115333131.548 7  89870088.47945  21947183.086                    21947191.598
 11  8 23  1 21 30.0000000  0  8G04G29G10G12G05G25G02G30
 125922723.539 6  98121768.36343  23962298.031                    23962308.906
 125872664.948 6  98082660.417 6  23952780.797                    23952789.191
 116218691.716 7  90560126.04044  22115662.688                    22115670.578
 109357402.432 8  85213622.008 7  20810022.063                    20810029.824
 106844805.026 8  83255817.111 8  20331867.531                    20331875.105
 115549707.399 8  90038832.460 7  21988385.844                    21988395.691
 110863896.531 8  86387615.97246  21096682.555                    21096688.023
 115294361.015 7  89839877.69345  21939805.602                    21939814.156
 11  8 23  1 22  0.0000000  0  8G04G29G10G12G05G25G02G30
 126002911.414 6  98184252.47943  23977557.383                    23977567.852
 125790171.988 6  98018380.260 6  23937082.570                    23937091.277
 116300366.473 7  90623768.71844  22131205.148                    22131212.371
 109375511.365 8  85227732.865 7  20813467.891                    20813474.672
 106824596.344 8  83240070.114 8  20328021.555                    20328029.102
 115502416.361 8  90001982.300 7  21979386.234                    21979396.605
 110893347.215 8  86410564.55846  21102287.148                    21102292.777
 115256167.093 7  89810116.20545  21932537.766                    21932545.359
 11  8 23  1 22 30.0000000  0  8G04G29G10G12G05G25G02G30
 126083049.542 6  98246697.81243  23992806.969                    23992818.078
 125707634.187 6  97954065.161 6  23921376.453                    23921384.621
 116382434.325 7  90687717.71844  22146821.633                    22146829.488
 109394194.750 8  85242291.341 7  20817023.367                    20817029.953
 106804964.135 8  83224772.324 8  20324286.070                    20324293.449
 115455649.073 8  89965540.264 7  21970486.766                    21970497.070
 110922923.334 8  86433610.88646  21107915.156                    21107920.383
 115218552.431 7  89780806.08645  21925379.703                    21925387.813
 11  8 23  1 23  0.0000000  0  8G04G29G10G12G05G25G02G30
 126163136.954 6  98309103.63343  24008046.766                    24008058.211
 125625051.919 6  97889715.383 6  23905661.742                    23905670.930
 116464892.069 7  90751970.51144  22162512.852                    22162521.078
 109413451.022 8  85257296.230 7  20820687.570                    20820694.887
 106785907.756 8  83209923.229 8  20320659.953                    20320667.586
 115409406.401 8  89929507.010 7  21961687.164                    21961697.543
 110952623.244 8  86456753.68746  21113566.469                    21113572.000
 115181517.382 7  89751947.63045  21918332.016                    21918340.297
 11  8 23  1 23 30.0000000  0  8G04G29G10G12G05G25G02G30
 126243172.960 6  98371469.43743  24023277.883                    24023288.434
 125542426.081 6  97825331.714 6  23889937.414                    23889946.816
 116547736.619 7  90816524.70145  22178277.961                    22178285.688
 109433279.760 8  85272747.182 7  20824461.414                    20824468.387
 106767427.621 8  83195523.167 8  20317142.867                    20317150.297
 115363689.782 8  89893883.668 7  21952987.438                    21952997.402
 110982445.947 8  86479992.17246  21119241.727                    21119247.488
 115145063.002 7  89723541.62745  21911394.641                    21911403.160
 11  8 23  1 24  0.0000000  0  8G04G29G10G12G05G25G02G30
 126323157.279 6  98433794.89443  24038498.914                    24038508.555
 125459758.028 7  97760915.111 6  23874206.516                    23874215.270
 116630965.396 7  90881378.28145  22194116.344                    22194123.934
 109453679.836 8  85288643.343 7  20828343.023                    20828350.215
 106749524.263 8  83181572.534 8  20313736.148                    20313743.383
 115318500.965 8  89858671.621 7  21944388.320                    21944398.504
 111012391.007 8  86503326.01346  21124939.766                    21124946.016
 115109190.488 7  89695589.02145  21904568.695                    21904576.711
 11  8 23  1 24 30.0000000  0  8G04G29G10G12G05G25G02G30
 126403089.893 6  98496080.12243  24053709.859                    24053718.949
 125377049.031 7  97696466.612 6  23858467.336                    23858477.164
 116714575.907 7  90946529.33744  22210026.602                    22210033.957
 109474650.794 8  85304984.340 7  20832333.602                    20832341.211
 106732198.136 8  83168071.684 8  20310439.195                    20310446.496
 115273841.925 8  89823872.380 7  21935889.914                    21935900.043
 111042458.225 8  86526755.04646  21130661.734                    21130667.371
 115073901.457 7  89668091.07045  21897853.047                    21897861.414
 11  8 23  1 25  0.0000000  0  8G04G29G10G12G05G25G02G30
 126482969.703 6  98558324.19843  24068910.016                    24068919.324
 125294299.690 7  97631986.674 6  23842721.008                    23842729.965
 116798564.677 7  91011975.12145  22226009.164                    22226017.027
 109496191.460 8  85321769.260 7  20836432.383                    20836439.914
 106715448.318 8  83155019.905 8  20307251.477                    20307259.320
 115229713.538 8  89789486.635 7  21927492.180                    21927502.723
 111072645.986 8  86550278.00546  21136406.156                    21136411.395
 115039196.299 7  89641048.09045  21891248.703                    21891257.172
 11  8 23  1 25 30.0000000  0  8G04G29G10G12G05G25G02G30
 126562795.790 6  98620526.40043  24084099.484                    24084110.523
 125211510.590 7  97567475.774 6  23826966.547                    23826975.582
 116882928.305 7  91077713.03244  22242062.602                    22242070.836
 109518300.427 8  85338997.014 7  20840639.789                    20840647.105
 106699274.840 8  83142417.219 8  20304174.195                    20304181.422
 115186116.795 8  89755515.165 7  21919196.273                    21919206.242
 111102952.730 8  86573893.66546  21142173.406                    21142178.594
 115005075.681 7  89614460.58645  21884755.992                    21884764.398
 11  8 23  1 26  0.0000000  0  8G04G29G10G12G05G25G02G30
 126642568.594 6  98682687.05643  24099280.789                    24099291.152
 125128683.583 6  97502935.316 6  23811204.633                    23811213.980
 116967664.974 7  91143741.64244  22258187.625                    22258195.602
 109540977.852 8  85356667.716 7  20844955.328                    20844962.285
 106683679.171 8  83130264.784 8  20301206.703                    20301213.684
 115143054.224 8  89721959.925 7  21911001.836                    21911012.160
 111133379.337 8  86597602.73046  21147963.398                    21147968.695
 114971541.405 7  89588329.98645  21878374.930                    21878383.457
 11  8 23  1 26 30.0000000  0  8G04G29G10G12G05G25G02G30
 126722287.338 6  98744805.58343  24114450.766                    24114461.008
 125045819.550 6  97438366.059 6  23795436.305                    23795445.152
 117052771.634 7  91210058.53444  22274382.695                    22274390.906
 109564222.307 8  85374780.272 7  20849378.859                    20849385.797
 106668660.794 8  83118562.182 8  20298348.195                    20298355.535
 115100526.856 8  89688821.723 7  21902908.930                    21902919.453
 111163924.359 8  86621404.07546  21153775.797                    21153781.254
 114938594.180 7  89562656.81545  21872105.273                    21872113.309
 11  8 23  1 27  0.0000000  0  8G04G29G10G12G05G25G02G30
 126801951.951 6  98806881.92943  24129610.383                    24129620.711
 124962919.762 7  97373768.914 6  23779661.219                    23779669.922
 117138245.808 6  91276661.82944  22290647.875                    22290656.445
 109588033.373 8  85393334.331 7  20853910.000                    20853916.809
 106654220.166 8  83107309.770 8  20295600.398                    20295607.363
 115058536.476 8  89656101.958 7  21894918.563                    21894928.738
 111194587.780 8  86645297.66946  21159610.750                    21159616.570
 114906235.254 7  89537442.06545  21865947.711                    21865955.164
 11  8 23  1 27 30.0000000  0  8G04G29G10G12G05G25G02G30
 126881561.510 6  98868915.36643  24144759.930                    24144769.133
 124879985.164 7  97309144.643 6  23763878.781                    23763888.211
 117224084.160 7  91343548.86044  22306982.742                    22306990.914
 109612409.563 8  85412328.745 7  20858548.313                    20858555.766
 106640356.627 8  83096507.035 8  20292961.914                    20292969.684
 115017084.119 8  89623801.416 7  21887030.305                    21887041.074
 111225368.044 8  86669282.30646  21165468.281                    21165474.020
 114874465.197 7  89512686.19345  21859901.516                    21859909.777
 11  8 23  1 28  0.0000000  0  8G04G29G10G12G05G25G02G30
 126961115.475 6  98930905.45143  24159898.305                    24159907.859
 124797016.454 7  97244493.781 6  23748091.188                    23748099.730
 117310283.532 7  91410717.21144  22323386.055                    22323393.824
 109637349.549 8  85431762.495 7  20863294.305                    20863301.527
 106627070.267 8  83086154.052 8  20290433.914                    20290440.906
 114976170.906 8  89591921.005 7  21879244.953                    21879255.020
 111256264.215 8  86693357.26546  21171347.273                    21171353.324
 114843284.710 7  89488389.70745  21853967.930                    21853976.371
 11  8 23  1 28 30.0000000  0  8G04G29G10G12G05G25G02G30
 127040613.369 6  98992851.87043  24175026.313                    24175035.805
 124714014.611 7  97179817.096 6  23732295.320                    23732304.629
 117396840.861 7  91478164.44445  22339857.805                    22339865.059
 109662852.316 8  85451634.752 7  20868147.102                    20868154.891
 106614360.889 8  83076250.663 8  20288015.281                    20288022.500
 114935798.073 8  89560461.666 7  21871561.953                    21871572.469
 111287275.433 8  86717521.86446  21177248.695                    21177254.801
 114812694.482 7  89464553.15145  21848146.930                    21848155.410
 11  8 23  1 29  0.0000000  0  8G04G29G10G12G05G25G02G30
 127120055.233 6  99054754.63843  24190143.469                    24190152.609
 124630981.227 7  97115115.816 6  23716495.266                    23716503.527
 117483754.201 7  91545889.13245  22356396.453                    22356404.254
 109688917.275 8  85471945.095 7  20873107.102                    20873114.563
 106602229.155 8  83066797.386 8  20285706.422                    20285714.223
 114895967.610 8  89529424.940 7  21863982.469                    21863992.871
 111318401.724 8  86741776.13146  21183172.016                    21183177.461
 114782695.987 7  89441177.69445  21842438.570                    21842447.473
 11  8 23  1 29 30.0000000  0  8G04G29G10G12G05G25G02G30
 127199440.839 6  99116613.58843  24205249.938                    24205258.625
 124547917.630 7  97050390.994 6  23700688.719                    23700697.121
 117571020.429 7  91613888.78845  22373002.969                    22373010.156
 109715543.557 8  85492692.830 7  20878173.898                    20878181.605
 106590674.847 8  83057794.055 8  20283507.992                    20283515.180
 114856680.862 8  89498811.882 7  21856506.570                    21856516.980
 111349642.686 8  86766119.73746  21189116.836                    21189122.555
 114753290.138 7  89418264.03945  21836843.242                    21836851.031
 11  8 23  1 30  0.0000000  0  8G04G29G10G12G05G25G02G30
 127278769.197 6  99178427.89543  24220345.141                    24220353.941
 124464824.400 7  96985643.058 6  23684876.461                    23684885.141
 117658636.264 7  91682160.86945  22389675.094                    22389683.234
 109742729.582 8  85513876.732 7  20883347.539                    20883354.926
 106579697.260 8  83049240.115 8  20281418.844                    20281426.285
 114817938.558 8  89468623.076 7  21849134.453                    21849144.480
 111380996.777 8  86790551.49846  21195083.711                    21195089.371
 114724477.085 7  89395812.30145  21831359.969                    21831368.199
 11  8 23  1 30 30.0000000  0  9G04G29G10G26G12G05G25G02G30
 127358040.523 6  99240197.79143  24235429.086                    24235439.391
 124381703.403 7  96920873.486 6  23669058.852                    23669067.375
 117746599.556 7  91750703.68144  22406413.750                    22406422.168
 130529842.09316 101711629.59353  24839009.281                    24839020.238
 109770474.778 8  85535496.346 7  20888627.336                    20888634.363
 106569297.174 8  83041136.179 8  20279439.734                    20279447.148
 114779742.740 7  89438860.099 7  21841865.750                    21841876.484
 111412464.253 8  86815071.60846  21201071.430                    21201077.246
 114696258.352 7  89373823.67745  21825990.125                    21825998.137
 11  8 23  1 31  0.0000000  0  9G04G29G10G26G12G05G25G02G30
 127437254.449 6  99301922.91943  24250503.258                    24250513.207
 124298555.472 7  96856082.923 6  23653236.445                    23653245.348
 117834907.173 7  91819514.82244  22423217.805                    22423226.828
 130438259.229 6 101640266.40943  24821581.836                    24821592.328
 109798777.895 8  85557550.701 7  20894013.438                    20894020.410
 106559474.307 8  83033482.026 8  20277570.781                    20277578.145
 114742094.383 8  89409523.724 7  21834701.719                    21834712.227
 111444044.067 8  86839679.26546  21207080.930                    21207086.234
 114668634.515 7  89352298.61345  21820733.797                    21820742.012
 11  8 23  1 31 30.0000000  0  9G04G29G10G26G12G05G25G02G30
 127516410.468 6  99363602.94343  24265565.625                    24265576.039
 124215381.764 7  96791272.260 6  23637409.023                    23637417.848
 117923556.136 7  91888591.94544  22440087.133                    22440095.988
 130346537.407 6 101568794.96343  24804127.609                    24804138.875
 109827637.270 7  85580038.506 7  20899505.227                    20899512.484
 106550228.186 8  83026277.291 8  20275810.945                    20275818.309
 114704994.595 8  89380614.776 7  21827641.773                    21827652.125
 111475735.176 7  86864373.63946  21213111.320                    21213116.875
 114641606.055 7  89331237.48045  21815590.273                    21815598.781
 11  8 23  1 32  0.0000000  0  9G04G29G10G26G12G05G25G02G30
 127595507.949 6  99425237.36443  24280618.016                    24280628.035
 124132183.296 7  96726442.291 6  23621576.508                    23621585.531
 118012543.126 7  91957932.47044  22457021.078                    22457029.129
 130254679.653 6 101497217.59343  24786647.367                    24786658.703
 109857051.752 8  85602958.873 7  20905102.406                    20905109.695
 106541558.527 8  83019521.747 8  20274161.055                    20274168.996
 114668444.327 8  89352134.045 7  21820686.578                    21820696.617
 111507536.802 7  86889154.13146  21219163.180                    21219168.660
 114615173.468 7  89310640.66445  21810559.766                    21810568.680
 11  8 23  1 32 30.0000000  0  9G04G29G10G26G12G05G25G02G30
 127674546.652 6  99486825.99443  24295657.953                    24295668.871
 124048961.156 7  96661593.849 6  23605740.602                    23605748.984
 118101865.387 7  92027534.21544  22474019.086                    22474026.773
 130162688.865 6 101425536.57143  24769142.070                    24769152.809
 109887020.209 8  85626310.901 7  20910805.047                    20910812.520
 106533465.314 8  83013215.375 8  20272621.383                    20272628.547
 114632444.916 8  89324082.566 7  21813835.789                    21813846.031
 111539448.375 8  86914020.30246  21225235.750                    21225241.281
 114589337.501 7  89290508.74745  21805643.953                    21805651.832
 11  8 23  1 33  0.0000000  0  9G04G29G10G26G12G05G25G02G30
 127753526.343 6  99548368.64643  24310687.711                    24310698.406
 123965716.580 7  96596727.957 6  23589899.383                    23589908.594
 118191520.406 7  92097395.29444  22491079.844                    22491087.160
 130070567.722 6 101353753.97343  24751611.797                    24751622.477
 109917541.642 7  85650093.818 7  20916613.234                    20916620.711
 106525948.293 8  83007357.981 8  20271190.656                    20271197.918
 114596997.660 8  89296461.324 7  21807090.781                    21807100.926
 111571469.724 7  86938972.00546  21231329.250                    21231334.840
 114564098.925 7  89270842.33545  21800840.875                    21800849.055
 11  8 23  1 33 30.0000000  0  9G04G29G10G26G12G05G25G02G30
 127832446.487 6  99609864.86643  24325705.398                    24325716.680
 123882450.890 7  96531845.612 6  23574054.063                    23574063.602
 118281504.965 7  92167513.12344  22508203.805                    22508210.945
 129978319.014 6 101281871.93543  24734057.961                    24734068.828
 109948614.194 8  85674306.191 7  20922526.242                    20922533.508
 106519006.740 8  83001949.005 8  20269869.766                    20269877.078
 114562103.422 8  89269271.013 7  21800450.398                    21800460.387
 111603599.871 7  86964008.50046  21237443.180                    21237449.055
 114539458.182 7  89251641.76045  21796151.953                    21796160.379
 11  8 23  1 34  0.0000000  0  9G04G29G10G26G12G05G25G02G30
 127911306.887 6  99671314.58543  24340712.383                    24340723.348
 123799165.392 7  96466947.817 6  23558205.008                    23558214.289
 118371816.118 7  92237885.46244  22525389.328                    22525396.559
 129885945.732 6 101209892.85343  24716479.273                    24716490.051
 109980236.796 8  85698947.164 7  20928543.820                    20928551.461
 106512640.750 8  82996988.515 8  20268658.188                    20268665.105
 114527763.494 8  89242512.631 7  21793915.922                    21793925.648
 111635838.181 8  86989129.27446  21243578.133                    21243583.914
 114515415.832 7  89232907.45945  21791576.930                    21791585.344
 11  8 23  1 34 30.0000000  0  9G04G29G10G26G12G05G25G02G30
 127990107.219 6  99732717.41942  24355707.867                    24355718.426
 123715861.204 6  96402035.456 6  23542352.891                    23542362.195
 118462451.218 7  92308510.21944  22542636.492                    22542644.156
 129793450.791 6 101137818.98643  24698877.797                    24698889.191
 110012408.531 8  85724016.023 7  20934665.836                    20934673.305
 106506850.198 8  82992476.423 8  20267556.727                    20267563.910
 114493979.003 8  89216187.062 7  21787487.078                    21787496.813
 111668183.881 8  87014333.72646  21249732.984                    21249738.695
 114491972.600 8  89214640.00645  21787116.023                    21787124.332
 11  8 23  1 35  0.0000000  0  9G04G29G10G26G12G05G25G02G30
 128068847.281 6  99794073.28942  24370692.516                    24370702.016
 123632539.659 6  96337109.598 6  23526497.344                    23526506.645
 118553407.452 7  92379385.20844  22559944.703                    22559952.238
 129700836.974 6 101065652.45943  24681254.141                    24681265.430
 110045127.719 8  85749511.489 7  20940891.742                    20940899.246
 106501634.796 8  82988412.506 8  20266563.914                    20266571.063
 114460751.103 7  89190295.201 7  21781163.531                    21781174.109
 111700636.578 8  87039621.53646  21255908.906                    21255914.293
 114469129.074 8  89196839.85045  21782769.055                    21782777.207
 11  8 23  1 35 30.0000000  0  9G04G29G10G26G12G05G25G02G30
 128147526.697 6  99855381.98343  24385664.203                    24385674.137
 123549201.866 6  96272171.093 6  23510638.328                    23510647.477
 118644681.677 7  92450507.95144  22577313.211                    22577321.195
 129608107.146 6 100993395.57643  24663608.516                    24663619.074
 110078392.890 8  85775432.386 7  20947222.352                    20947229.465
 106496993.927 8  82984796.263 8  20265680.867                    20265687.867
 114428080.645 7  89164837.698 7  21774947.070                    21774957.117
 111733195.503 8  87064992.13946  21262104.266                    21262109.555
 114446885.513 8  89179507.22745  21778536.125                    21778544.066
 11  8 23  1 36  0.0000000  0  9G04G29G10G26G12G05G25G02G30
 128226144.861 6  99916642.90543  24400625.359                    24400633.793
 123465849.131 6  96207220.946 6  23494777.734                    23494786.383
 118736270.941 6  92521876.23544  22594741.477                    22594750.207
 129515264.146 6 100921050.49543  24645940.797                    24645951.629
 110112202.730 7  85801777.707 7  20953656.086                    20953663.383
 106492926.740 8  82981627.049 8  20264907.211                    20264914.500
 114395968.617 8  89139815.339 7  21768835.539                    21768846.840
 111765860.132 7  87090445.11246  21268320.102                    21268325.906
 114425242.307 8  89162642.39345  21774417.352                    21774425.848
 11  8 23  1 36 30.0000000  0  9G04G29G10G26G12G05G25G02G30
 128304701.784 6  99977856.10243  24415573.773                    24415582.953
 123382482.852 6  96142260.275 6  23478913.852                    23478922.320
 118828172.681 6  92593487.95044  22612230.109                    22612238.930
 129422310.664 6 100848619.30343  24628252.367                    24628263.086
 110146555.919 8  85828546.411 7  20960193.086                    20960200.457
 106489433.584 8  82978905.126 8  20264242.586                    20264249.520
 114364416.128 8  89115228.993 7  21762831.766                    21762841.898
 111798629.769 7  87115979.90546  21274556.063                    21274561.434
 114404200.067 8  89146245.85445  21770413.227                    21770421.410
 11  8 23  1 37  0.0000000  0  9G04G29G10G26G12G05G25G02G30
 128383196.857 6 100039021.11442  24430510.883                    24430519.715
 123299103.974 7  96077289.762 6  23463046.500                    23463056.012
 118920383.337 7  92665340.40744  22629777.391                    22629785.883
 129329249.850 6 100776104.48143  24610542.906                    24610553.867
 110181450.669 8  85855737.108 7  20966833.461                    20966840.770
 106486513.268 8  82976629.576 8  20263686.406                    20263693.418
 114333423.752 7  89091079.111 7  21756933.938                    21756944.387
 111831503.463 7  87141595.78046  21280811.719                    21280817.488
 114383758.832 8  89130317.62945  21766523.391                    21766531.617
 11  8 23  1 37 30.0000000  0  9G04G29G10G26G12G05G25G02G30
 128461630.436 7 100100138.22243  24445436.672                    24445445.695
 123215714.153 7  96012310.769 6  23447178.352                    23447187.719
 119012900.435 7  92737431.64244  22647382.758                    22647392.215
 129236084.628 6 100703508.35043  24592814.406                    24592825.129
 110216886.356 7  85883349.317 7  20973576.859                    20973584.148
 106484166.007 8  82974800.563 8  20263239.750                    20263247.586
 114302993.079 7  89067366.900 7  21751143.336                    21751153.359
 111864481.393 7  87167292.89246  21287087.156                    21287093.020
 114363919.592 8  89114858.47145  21762748.469                    21762756.805
 11  8 23  1 38  0.0000000  0  9G04G29G10G26G12G05G25G02G30
 128540001.936 7 100161206.95943  24460351.195                    24460359.027
 123132314.563 7  95947324.156 6  23431307.859                    23431316.844
 119105721.375 6  92809759.65544  22665046.227                    22665054.563
 129142818.138 6 100630833.29943  24575066.188                    24575077.203
 110252860.669 8  85911381.237 7  20980422.297                    20980429.961
 106482391.035 8  82973417.481 8  20262901.688                    20262909.520
 114273124.765 8  89044092.900 7  21745459.617                    21745469.309
 111897562.678 7  87193070.52846  21293382.492                    21293388.531
 114344682.422 8  89099868.47045  21759087.273                    21759095.953
 11  8 23  1 38 30.0000000  0  9G04G29G10G26G12G05G25G02G30
 128618311.188 7 100222227.12443  24475252.570                    24475261.773
 123048906.581 7  95882331.017 6  23415435.977                    23415444.930
 119198842.999 7  92882321.94444  22682767.078                    22682775.027
 129049453.445 6 100558081.68743  24557299.813                    24557310.434
 110289372.465 8  85939831.974 7  20987370.398                    20987378.004
 106481188.303 8  82972480.307 8  20262672.898                    20262680.223
 114243819.928 8  89021257.971 7  21739883.344                    21739893.090
 111930746.954 7  87218928.42846  21299697.234                    21299703.094
 114326047.897 8  89085348.06145  21755541.258                    21755550.012
 11  8 23  1 39  0.0000000  0  9G04G29G10G26G12G05G25G02G30
 128696557.838 7 100283198.58343  24490141.672                    24490151.801
 122965491.238 7  95817332.122 6  23399562.445                    23399571.336
 119292262.204 7  92955116.14044  22700544.430                    22700551.453
 128955992.871 6 100485255.36143  24539514.453                    24539524.707
 110326419.618 8  85968699.878 7  20994420.398                    20994427.852
 106480556.296 8  82971987.851 8  20262552.938                    20262560.059
 114215078.900 8  88998862.378 7  21734414.109                    21734424.117
 111964032.975 7  87244865.60246  21306031.578                    21306037.168
 114308015.746 8  89071297.03945  21752110.188                    21752118.801
 11  8 23  1 39 30.0000000  0  9G04G29G10G26G12G05G25G02G30
 128774741.631 6 100344121.00843  24505020.422                    24505029.668
 122882070.195 6  95752328.798 6  23383687.500                    23383696.609
 119385976.309 6  93028140.13444  22718377.195                    22718384.207
 128862439.984 6 100412357.11543  24521711.711                    24521722.379
 110364001.361 8  85997984.331 7  21001571.727                    21001579.152
 106480495.343 8  82971940.376 8  20262541.203                    20262548.070
 114186903.131 8  88976907.258 7  21729052.102                    21729062.070
 111997420.949 7  87270882.22546  21312384.984                    21312390.453
 114290586.843 8  89057716.07045  21748793.391                    21748801.750
 11  8 23  1 40  0.0000000  0  9G04G29G10G26G12G05G25G02G30
 128852862.497 6 100404994.37143  24519884.813                    24519895.527
 122798644.587 7  95687321.884 6  23367812.477                    23367821.098
 119479982.116 6  93101391.39344  22736265.656                    22736273.016
 128768797.422 6 100339388.97343  24503891.250                    24503902.734
 110402115.816 8  86027683.899 7  21008824.625                    21008832.328
 106481004.445 8  82972337.097 8  20262637.891                    20262644.969
 114159293.085 8  88955392.941 7  21723797.641                    21723808.492
 112030909.970 7  87296977.57146  21318757.563                    21318763.055
 114273761.139 8  89044605.13045  21745591.500                    21745600.160
 11  8 23  1 40 30.0000000  0  9G04G29G10G26G12G05G25G02G30
 128930920.264 6 100465818.59243  24534738.656                    24534748.945
 122715216.029 7  95622312.682 6  23351936.641                    23351945.254
 119574277.120 6  93174868.00244  22754209.867                    22754217.023
 128675068.318 6 100266353.37643  24486055.906                    24486066.273
 110440761.715 8  86057797.574 7  21016178.680                    21016186.484
 106482083.264 8  82973177.764 8  20262843.266                    20262850.473
 114132249.905 8  88934320.334 7  21718651.875                    21718662.293
 112064499.627 8  87323151.33846  21325149.563                    21325154.891
 114257539.086 8  89031964.56045  21742504.836                    21742512.871
 11  8 23  1 41  0.0000000  0  9G04G29G10G26G12G05G25G02G30
 129008914.834 6 100526593.51243  24549581.219                    24549590.465
 122631785.899 6  95557302.250 6  23336059.547                    23336068.730
 119668858.128 6  93248567.47644  22772208.789                    22772214.988
 128581255.838 6 100193252.84143  24468203.867                    24468214.602
 110479937.091 8  86088323.829 7  21023633.891                    21023641.551
 106483731.242 8  82974461.916 8  20263156.633                    20263163.980
 114105774.335 8  88913690.024 7  21713613.742                    21713623.992
 112098189.608 8  87349403.27246  21331560.500                    21331565.480
 114241920.914 8  89019794.54645  21739532.195                    21739540.895
 11  8 23  1 41 30.0000000  0  9G04G29G10G26G12G05G25G02G30
 129086845.823 6 100587319.00243  24564410.688                    24564420.328
 122548355.329 6  95492291.454 6  23320183.477                    23320192.543
 119763722.637 6  93322487.87744  22790260.047                    22790267.879
 128487363.003 6 100120089.67643  24450337.258                    24450347.711
 110519640.509 8  86119261.556 7  21031189.031                    21031196.637
 106485947.668 8  82976189.020 8  20263578.305                    20263585.441
 114079866.991 8  88893502.490 7  21708683.930                    21708693.977
 112131979.060 8  87375732.72246  21337990.102                    21337995.496
 114226906.622 8  89008095.11545  21736675.406                    21736683.832
 11  8 23  1 42  0.0000000  0  9G04G29G10G26G12G05G25G02G30
 129164712.748 6 100647994.45343  24579228.297                    24579237.543
 122464925.863 6  95427281.516 6  23304308.023                    23304316.180
 119858867.354 7  93396626.59244  22808365.680                    22808373.023
 128393392.680 6 100046866.12843  24432454.445                    24432464.934
 110559870.082 8  86150609.267 7  21038844.570                    21038851.594
 106488731.481 8  82978358.242 8  20264108.289                    20264115.340
 114054528.428 8  88873758.168 7  21703861.898                    21703871.715
 112165867.250 7  87402139.12146  21344438.914                    21344444.324
 114212496.093 8  88996866.14545  21733933.258                    21733940.828
 11  8 23  1 42 30.0000000  0  9G04G29G10G26G12G05G25G02G30
 129242515.691 6 100708620.09443  24594032.969                    24594043.148
 122381498.651 6  95362273.320 6  23288431.289                    23288441.285
 119954289.290 7  93470981.34844  22826523.609                    22826531.172
 128299347.953 6  99973584.61343  24414558.633                    24414569.113
 110600624.143 8  86182365.675 7  21046599.641                    21046606.973
 106492082.182 7  82980969.189 8  20264746.078                    20264753.195
 114029759.510 7  88854457.734 7  21699148.477                    21699158.664
 112199853.711 7  87428622.08046  21350906.305                    21350911.664
 114198689.750 8  88986107.93945  21731306.234                    21731314.066
 11  8 23  1 43  0.0000000  0  9G04G29G10G26G12G05G25G02G30
 129320254.618 6 100769195.88243  24608826.039                    24608836.414
 122298075.251 6  95297268.128 6  23272556.750                    23272565.633
 120049985.870 7  93545550.11444  22844733.984                    22844742.289
 128205231.813 6  99900247.48143  24396648.883                    24396659.328
 110641900.714 8  86214529.234 7  21054454.281                    21054461.441
 106495999.055 8  82984021.324 8  20265491.367                    20265498.895
 114005560.988 7  88835601.749 7  21694543.586                    21694554.055
 112233938.281 7  87455181.48746  21357392.328                    21357398.379
 114185487.599 8  88975820.55545  21728793.555                    21728801.633
 11  8 23  1 43 30.0000000  0  9G04G29G10G26G12G05G25G02G30
 129397929.273 6 100829721.50843  24623607.695                    24623618.102
 122214657.062 7  95232266.934 6  23256683.625                    23256692.207
 120145954.455 7  93620330.83444  22862996.227                    22863004.320
 128111047.493 6  99826857.20543  24378726.539                    24378736.270
 110683698.728 8  86247099.101 7  21062408.148                    21062415.832
 106500481.486 8  82987514.156 8  20266344.250                    20266351.340
 113981933.583 7  88817190.787 7  21690047.344                    21690057.406
 112268120.670 8  87481817.13646  21363897.289                    21363902.820
 114172889.794 8  88966004.09045  21726396.492                    21726404.770
 11  8 23  1 44  0.0000000  0  9G04G29G10G26G12G05G25G02G30
 129475539.34516 100890196.77553  24638377.063                    24638386.652
 122131245.557 7  95167270.955 6  23240810.313                    23240818.957
 120242191.734 7  93695320.96344  22881309.641                    22881317.246
 128016798.046 6  99753416.20143  24360791.031                    24360801.602
 110726015.859 8  86280073.478 7  21070461.016                    21070468.438
 106505528.497 7  82991446.927 8  20267304.406                    20267311.875
 113958877.737 8  88799225.213 7  21685660.211                    21685670.352
 112302400.205 7  87508528.47146  21370420.133                    21370425.820
 114160896.185 8  88956658.43145  21724113.859                    21724122.520
 11  8 23  1 44 30.0000000  0  9G04G29G10G26G12G05G25G02G30
 129553084.502 6 100950621.54842  24653132.320                    24653143.859
 122047842.253 7  95102281.348 6  23224939.516                    23224947.645
 120338694.657 6  93770518.06644  22899672.945                    22899680.840
 127922486.171 6  99679926.56143  24342843.961                    24342854.266
 110768850.366 8  86313451.006 7  21078612.281                    21078619.578
 106511139.182 8  82995818.918 8  20268372.156                    20268379.086
 113936394.012 8  88781705.442 7  21681381.398                    21681391.703
 112336775.958 7  87535314.78346  21376961.625                    21376967.500
 114149506.729 8  88947783.54045  21721946.797                    21721955.363
 11  8 23  1 45  0.0000000  0  9G04G29G10G26G12G05G25G02G30
 129630564.806 6 101010995.74142  24667876.813                    24667887.383
 121964448.378 7  95037299.099 6  23209069.563                    23209078.641
 120435460.370 6  93845919.90744  22918087.242                    22918094.426
 127828115.195 6  99606390.87143  24324885.016                    24324896.133
 110812200.571 8  86347230.386 7  21086861.391                    21086868.605
 106517312.689 8  83000629.462 8  20269546.898                    20269554.184
 113914483.053 8  88764631.978 7  21677212.539                    21677222.746
 112371247.582 8  87562175.79746  21383521.672                    21383526.961
 114138721.410 8  88939379.37945  21719894.227                    21719902.410
 11  8 23  1 45 30.0000000  0  8G29G10G26G12G05G25G02G30
 121881065.823 7  94972325.669 6  23193202.836                    23193211.637
 120532486.666 6  93921524.84844  22936550.961                    22936558.438
 127733688.769 6  99532811.97843  24306915.922                    24306927.273
 110856065.371 8  86381410.732 7  21095208.406                    21095216.117
 106524048.889 8  83005878.486 8  20270828.328                    20270835.984
 113893145.932 8  88748005.660 7  21673152.039                    21673161.852
 112405815.239 7  87589111.63746  21390099.594                    21390104.691
 114128540.714 8  88931446.37745  21717956.703                    21717965.039
 11  8 23  1 46  0.0000000  0  8G29G10G26G12G05G25G02G30
 121797695.722 7  94907361.951 7  23177337.891                    23177346.949
 120629770.341 7  93997330.30644  22955062.961                    22955071.012
 127639209.774 6  99459192.17343  24288937.422                    24288948.488
 110900442.774 8  86415990.523 7  21103653.156                    21103660.426
 106531346.663 8  83011565.081 8  20272217.398                    20272224.480
 113872382.881 8  88731826.673 7  21669200.945                    21669211.074
 112440477.766 7  87616121.39146  21396695.414                    21396700.688
 114118964.267 8  88923984.21145  21716134.773                    21716142.707
 11  8 23  1 46 30.0000000  0  8G29G10G26G12G05G25G02G30
 121714339.739 7  94842409.242 7  23161476.172                    23161484.586
 120727308.562 7  94073334.08944  22973624.305                    22973632.617
 127544680.806 6  99385533.38543  24270949.625                    24270960.023
 110945329.906 8  86450967.504 7  21112195.008                    21112202.480
 106539204.836 8  83017688.368 8  20273713.008                    20273720.121
 113852194.214 8  88716095.264 7  21665358.984                    21665369.055
 112475235.478 7  87643205.32945  21403309.688                    21403315.379
 114109991.704 8  88916992.62545  21714427.516                    21714435.453
 11  8 23  1 47  0.0000000  0  8G29G10G26G12G05G25G02G30
 121630999.026 7  94777468.423 7  23145616.516                    23145625.844
 120825098.115 7  94149533.73144  22992232.977                    22992241.051
 127450105.251 6  99311838.26643  24252952.180                    24252962.953
 110990725.382 8  86486340.587 7  21120833.414                    21120841.168
 106547622.488 8  83024247.609 8  20275314.734                    20275321.910
 113832580.308 8  88700811.725 7  21661626.563                    21661637.215
 112510087.306 7  87670362.59745  21409942.477                    21409947.035
 114101622.878 7  88910471.48345  21712834.594                    21712842.668
 11  8 23  1 47 30.0000000  0  8G29G10G26G12G05G25G02G30
 121547675.016 7  94712540.628 7  23129760.719                    23129769.664
 120923135.828 7  94225926.76344  23010889.484                    23010897.398
 127355486.201 6  99238109.26443  24234946.711                    24234957.305
 111036626.795 8  86522107.912 7  21129568.273                    21129575.402
 106556598.180 8  83031241.686 8  20277022.484                    20277029.789
 113813541.525 8  88685976.316 7  21658003.469                    21658013.988
 112545032.803 8  87697592.86246  21416591.453                    21416597.188
 114093857.441 8  88904420.49845  21711357.094                    21711364.707
 11  8 23  1 48  0.0000000  0  8G29G10G26G12G05G25G02G30
 121464369.763 6  94647627.483 7  23113907.836                    23113917.074
 121021419.365 6  94302511.31744  23029592.258                    23029599.887
 127260826.890 6  99164348.90843  24216933.695                    24216943.684
 111083033.388 8  86558268.885 7  21138398.945                    21138406.719
 106566131.747 8  83038670.461 8  20278836.742                    20278843.969
 113795078.747 8  88671589.743 7  21654490.297                    21654500.160
 112580071.876 8  87724896.06246  21423259.344                    21423264.934
 114086695.658 7  88898839.89545  21709994.148                    21710002.391
 11  8 23  1 48 30.0000000  0  8G29G10G26G12G05G25G02G30
 121381084.695 7  94582730.065 7  23098059.164                    23098068.539
 121119945.785 6  94379285.16544  23048340.758                    23048348.441
 127166130.716 6  99090559.78943  24198913.492                    24198923.645
 111129942.654 8  86594821.539 7  21147325.648                    21147333.168
 106576222.252 8  83046533.224 8  20280757.484                    20280764.453
 113777192.375 8  88657652.333 7  21651086.969                    21651096.977
 112615204.253 8  87752271.95046  21429944.703                    21429950.555
 114080137.347 8  88893729.53745  21708746.148                    21708754.348
 11  8 23  1 49  0.0000000  0  8G29G10G26G12G05G25G02G30
 121297820.930 7  94517849.257 7  23082214.836                    23082224.164
 121218712.075 6  94456245.92344  23067134.961                    23067142.836
 127071400.491 6  99016744.17243  24180887.461                    24180897.105
 111177352.240 8  86631764.077 7  21156347.609                    21156354.797
 106586867.989 8  83054828.629 8  20282782.680                    20282790.066
 113759882.364 8  88644164.035 7  21647792.313                    21647802.504
 112650428.638 8  87779719.51346  21436647.789                    21436653.527
 114074181.761 8  88889088.83545  21707612.594                    21707620.820
 11  8 23  1 49 30.0000000  0  8G29G10G26G12G05G25G02G30
 121214580.172 7  94452986.392 7  23066374.734                    23066383.520
 121317715.327 6  94533391.29144  23085974.984                    23085983.363
 126976639.570 6  98942904.63343  24162854.898                    24162864.414
 111225260.856 8  86669095.447 7  21165464.172                    21165471.727
 106598068.405 8  83063556.252 8  20284914.039                    20284921.449
 113743149.332 8  88631125.319 7  21644608.555                    21644618.508
 112685745.272 8  87807238.97746  21443368.672                    21443374.047
 114068828.855 8  88884917.73745  21706594.125                    21706602.246
 11  8 23  1 50  0.0000000  0  8G29G10G26G12G05G25G02G30
 121131364.219 7  94388142.860 7  23050539.117                    23050547.906
 121416952.939 6  94610719.33543  23104858.977                    23104867.238
 126881851.142 6  98869043.64143  24144816.789                    24144826.289
 111273666.102 8  86706813.815 7  21174675.578                    21174682.629
 106609822.520 8  83072715.328 8  20287151.086                    20287158.109
 113726993.552 8  88618536.401 7  21641534.102                    21641544.559
 112721153.566 8  87834829.85346  21450106.719                    21450112.074
 114064078.334 7  88881216.01845  21705690.547                    21705698.715
 11  8 23  1 50 30.0000000  0  8G29G10G26G12G05G25G02G30
 121048174.427 7  94323319.710 6  23034708.164                    23034717.324
 121516422.142 6  94688227.82843  23123786.570                    23123795.109
 126787038.659 6  98795163.89543  24126773.516                    24126784.289
 111322565.811 8  86744917.483 7  21183980.500                    21183988.063
 106622129.355 8  83082305.089 8  20289493.070                    20289500.074
 113711415.482 8  88606397.658 7  21638569.656                    21638579.430
 112756653.646 8  87862492.25946  21456861.844                    21456867.422
 114059929.944 7  88877983.52745  21704900.742                    21704908.586
 11  8 23  1 51  0.0000000  0  8G29G10G26G12G05G25G02G30
 120965012.164 7  94258518.020 6  23018883.898                    23018891.977
 121616119.704 6  94765914.22344  23142759.242                    23142767.102
 126692204.873 6  98721267.55943  24108727.492                    24108738.008
 111371958.209 8  86783405.057 7  21193379.859                    21193387.699
 106634987.032 8  83092324.074 8  20291939.703                    20291946.859
 113696415.105 8  88594709.061 7  21635715.086                    21635725.359
 112792244.573 8  87890225.45046  21463634.813                    21463640.316
 114056383.156 7  88875219.81645  21704225.484                    21704233.953
 11  8 23  1 51 30.0000000  0  8G29G10G26G12G05G25G02G30
 120881879.330 7  94193739.234 6  23003063.891                    23003071.727
 121716042.932 7  94843776.49644  23161773.938                    23161781.441
 126597353.106 6  98647357.19143  24090677.445                    24090688.016
 111421841.092 8  86822274.836 7  21202872.000                    21202879.277
 106648395.043 8  83102771.901 8  20294491.063                    20294498.191
 113681992.786 8  88583470.883 7  21632970.672                    21632981.164
 112827926.008 8  87918029.16946  21470424.703                    21470429.652
 114053437.569 7  88872924.54345  21703664.977                    21703673.582
 11  8 23  1 52  0.0000000  0  8G29G10G26G12G05G25G02G30
 120798777.499 7  94128984.617 6  22987249.766                    22987257.906
 121816188.983 7  94921812.35743  23180830.898                    23180838.938
 126502486.712 6  98573435.45743  24072625.344                    24072635.465
 111472212.949 8  86861525.642 7  21212457.594                    21212465.113
 106662352.277 8  83113647.694 8  20297147.094                    20297154.090
 113668148.865 8  88572683.401 7  21630336.398                    21630346.707
 112863697.908 8  87945903.35646  21477232.000                    21477236.816
 114051092.917 8  88871097.54845  21703219.234                    21703227.227
 11  8 23  1 52 30.0000000  0  8G29G10G26G12G05G25G02G30
 120715707.988 7  94064255.183 6  22971442.242                    22971450.223
 121916555.067 7  95000019.69143  23199930.680                    23199937.148
 126407608.963 6  98499504.81743  24054570.422                    24054580.469
 111523070.978 8  86901155.262 7  21222135.438                    21222143.121
 106676857.497 8  83124950.481 8  20299907.164                    20299914.004
 113654883.346 8  88562346.624 7  21627811.859                    21627821.887
 112899559.485 8  87973847.43746  21484056.297                    21484061.695
 114049348.566 7  88869738.31745  21702887.203                    21702895.367
 11  8 23  1 53  0.0000000  0  8G29G10G26G12G05G25G02G30
 120632672.723 7  93999552.439 6  22955641.047                    22955649.387
 122017138.315 7  95078396.24544  23219070.602                    23219077.535
 126312723.123 6  98425567.90543  24036514.258                    24036523.613
 111574413.125 8  86941162.138 7  21231905.125                    21231912.949
 106691909.563 8  83136679.379 8  20302771.109                    20302778.688
 113642196.493 8  88552460.761 7  21625397.820                    21625408.098
 112935510.589 8  88001861.27646  21490897.547                    21490902.520
 114048204.091 7  88868846.51145  21702669.133                    21702677.754
 11  8 23  1 53 30.0000000  0  8G29G10G26G12G05G25G02G30
 120549673.441 7  93934877.734 6  22939846.711                    22939855.043
 122117935.704 7  95156939.66144  23238251.602                    23238259.609
 126217832.646 6  98351627.40543  24018457.016                    24018467.020
 111626237.727 8  86981544.939 7  21241767.594                    21241775.039
 106707507.415 8  83148833.578 8  20305739.453                    20305746.727
 113630088.688 8  88543026.103 7  21623093.734                    21623103.969
 112971551.029 7  88029944.73746  21497755.703                    21497761.066
 114047659.175 8  88868421.87245  21702565.742                    21702574.137
 11  8 23  1 54  0.0000000  0  8G29G10G26G12G05G25G02G30
 120466711.224 7  93870231.903 6  22924059.820                    22924067.848
 122218944.659 7  95235647.93844  23257473.188                    23257481.055
 126122940.816 6  98277685.76743  24000400.109                    24000409.137
 111678542.512 8  87022301.907 7  21251720.836                    21251728.582
 106723649.814 8  83161412.093 8  20308811.430                    20308818.281
 113618560.000 8  88534042.691 7  21620900.008                    21620909.750
 113007680.879 7  88058097.87345  21504630.828                    21504636.043
 114047713.337 7  88868464.06945  21702576.117                    21702584.898
 11  8 23  1 54 30.0000000  0  8G29G10G26G12G05G25G02G30
 120383788.016 7  93805616.475 6  22908279.875                    22908288.531
 122320162.318 7  95314518.85244  23276733.938                    23276743.352
 126028050.386 6  98203745.27243  23982343.148                    23982352.328
 111731324.706 8  87063430.888 7  21261764.555                    21261771.898
 106740335.038 8  83174413.590 8  20311986.617                    20311993.797
 113607610.066 8  88525510.266 7  21618816.320                    21618826.238
 113043899.057 8  88086319.83245  21511522.938                    21511528.578
 114048365.489 7  88868972.21645  21702700.047                    21702708.762
 11  8 23  1 55  0.0000000  0  8G29G10G26G12G05G25G02G30
 120300905.586 7  93741032.821 6  22892507.500                    22892515.895
 122421585.740 7  95393550.10544  23296034.367                    23296043.461
 125933165.050 6  98129808.74643  23964286.195                    23964296.074
 111784582.685 8  87104930.609 7  21271899.734                    21271907.590
 106757562.269 8  83187837.416 8  20315264.453                    20315271.492
 113597239.390 8  88517429.198 7  21616842.648                    21616852.695
 113080205.634 8  88114610.69945  21518431.391                    21518436.809
 114049615.465 7  88869946.22545  21702938.102                    21702946.582
 11  8 23  1 55 30.0000000  0  8G29G10G26G12G05G25G02G30
 120218065.398 7  93676482.069 6  22876743.883                    22876752.289
 122523212.069 7  95472739.46844  23315373.125                    23315382.332
 125838288.070 6  98055878.73643  23946232.500                    23946242.559
 111838314.144 8  87146799.285 7  21282124.391                    21282131.938
 106775330.096 8  83201682.494 8  20318645.953                    20318652.781
 113587447.851 8  88509799.421 7  21614979.672                    21614989.781
 113116600.244 8  88142970.15246  21525357.258                    21525362.914
 114051462.627 8  88871385.55945  21703289.758                    21703297.949
 11  8 23  1 56  0.0000000  0  8G29G10G26G12G05G25G02G30
 120135269.361 7  93611965.720 7  22860988.109                    22860996.352
 122625038.564 7  95552084.75543  23334749.539                    23334759.039
 125743422.872 6  97981957.90443  23928180.313                    23928189.539
 111892517.164 8  87189035.405 7  21292438.891                    21292446.543
 106793637.418 8  83215947.966 8  20322129.633                    20322136.496
 113578235.618 8  88502621.034 7  21613226.195                    21613236.543
 113153082.548 8  88171397.93846  21532299.625                    21532305.559
 114053906.282 8  88873289.68345  21703754.273                    21703762.906
 11  8 23  1 56 30.0000000  0  8G29G10G26G12G05G25G02G30
 120052518.851 7  93547484.855 6  22845240.875                    22845250.047
 122727062.133 7  95631583.64943  23354165.070                    23354172.805
 125648572.480 6  97908048.59743  23910130.383                    23910140.527
 111947189.082 8  87231636.896 7  21302842.383                    21302850.125
 106812482.309 8  83230632.310 8  20325715.469                    20325722.227
 113569602.350 8  88495893.805 7  21611583.445                    21611593.453
 113189652.070 8  88199893.67546  21539258.852                    21539264.465
 114056945.618 7  88875657.97245  21704333.039                    21704341.137
 11  8 23  1 57  0.0000000  0  8G29G10G26G12G05G25G02G30
 119969815.575 7  93483040.805 7  22829502.930                    22829512.168
 122829280.278 7  95711234.17843  23373616.289                    23373623.863
 125553740.344 6  97834153.53943  23892083.523                    23892094.438
 112002327.833 8  87274602.161 7  21313335.156                    21313342.535
 106831863.630 8  83245734.662 8  20329403.539                    20329410.910
 113561548.121 8  88489617.782 7  21610051.055                    21610061.098
 113226308.484 8  88228457.12446  21546234.555                    21546239.859
 114060579.888 7  88878489.85245  21705024.789                    21705032.844
 11  8 23  1 57 30.0000000  0  8G29G10G26G12G05G25G02G30
 119887161.479 7  93418635.081 7  22813774.867                    22813783.348
 122931690.601 7  95791034.45343  23393104.500                    23393111.016
 125458929.956 6  97760275.42243  23874041.844                    23874052.082
 112057931.096 8  87317929.374 7  21323916.070                    21323923.398
 106851780.442 8  83261254.275 8  20333193.320                    20333200.902
 113554073.032 8  88483793.033 7  21608628.836                    21608638.543
 113263051.793 8  88257088.28946  21553226.445                    21553231.531
 114064808.623 7  88881784.96445  21705829.250                    21705837.539
 11  8 23  1 58  0.0000000  0  8G29G10G26G12G05G25G02G30
 119804558.085 7  93354268.878 7  22798055.500                    22798064.168
 123034290.239 7  95870982.21743  23412628.273                    23412635.863
 125364144.749 6  97686416.91943  23856005.242                    23856015.102
 112113996.478 8  87361616.677 7  21334584.945                    21334592.449
 106872231.341 8  83277190.060 8  20337085.289                    20337091.719
 113547177.093 8  88478419.576 7  21607315.969                    21607325.922
 113299881.820 8  88285787.02746  21560235.039                    21560240.098
 114069631.075 8  88885542.70745  21706746.844                    21706755.320
 11  8 23  1 58 30.0000000  0  8G29G10G26G12G05G25G02G30
 119722007.249 7  93289943.621 7  22782346.109                    22782354.676
 123137075.936 7  95951074.98943  23432187.992                    23432194.891
 125269387.976 6  97612580.57343  23837973.219                    23837983.434
 112170521.668 8  87405662.279 7  21345341.484                    21345349.313
 106893214.586 8  83293540.656 8  20341078.398                    20341085.258
 113540859.915 8  88473497.092 7  21606114.016                    21606124.441
 113336798.013 8  88314552.90445  21567259.367                    21567264.820
 114075046.257 7  88889762.32945  21707777.422                    21707785.598
 11  8 23  1 59  0.0000000  0  8G29G10G26G12G05G25G02G30
 119639510.626 7  93225660.613 6  22766647.148                    22766656.434
 123240044.948 7  96031310.59743  23451782.516                    23451789.172
 125174662.869 6  97538768.90743  23819947.055                    23819957.824
 112227504.634 8  87450064.587 7  21356185.086                    21356192.262
 106914728.884 8  83310305.043 8  20345172.250                    20345179.438
 113535121.502 8  88469025.619 7  21605022.133                    21605031.555
 113373800.063 8  88343385.68845  21574300.930                    21574305.906
 114081053.525 8  88894443.31545  21708920.461                    21708929.129
 11  8 23  1 59 30.0000000  0  8G29G10G26G12G05G25G02G30
 119557070.084 7  93161421.287 6  22750959.672                    22750967.871
 123343194.306 7  96111686.71743  23471410.766                    23471418.805
 125079972.757 6  97464984.49843  23801928.211                    23801938.836
 112284942.855 7  87494821.645 7  21367115.227                    21367122.520
 106936772.429 8  83327481.848 8  20349367.195                    20349374.086
 113529961.467 7  88465004.825 7  21604040.063                    21604050.586
 113410887.977 8  88372285.39345  21581358.367                    21581363.973
 114087651.807 8  88899584.81945  21710176.078                    21710184.969
 11  8 23  2  0  0.0000000  0  8G29G10G26G12G05G25G02G30
 119474687.272 7  93097226.936 6  22735282.656                    22735290.859
 123446521.896 7  96192201.72143  23491073.414                    23491081.695
 124985321.307 6  97391230.21444  23783917.313                    23783926.875
 112342833.996 7  87539931.615 7  21378131.469                    21378138.980
 106959344.480 8  83345070.472 8  20353662.266                    20353669.594
 113525379.965 8  88461434.830 7  21603168.078                    21603178.598
 113448061.728 7  88401251.96945  21588432.352                    21588438.020
 114094840.559 8  88905186.44445  21711544.688                    21711552.203
 11  8 23  2  0 30.0000000  0  8G29G10G26G12G05G25G02G30
 119392363.696 7  93033078.742 6  22719616.563                    22719625.449
 123550024.498 6  96272853.13844  23510769.297                    23510777.867
 124890711.659 6  97317508.50243  23765913.531                    23765923.406
 112401175.632 7  87585392.626 7  21389233.328                    21389240.418
 106982442.971 8  83363069.300 8  20358057.945                    20358064.969
 113521376.421 7  88458315.206 7  21602406.398                    21602416.629
 113485320.486 8  88430284.79245  21595521.961                    21595528.094
 114102618.532 8  88911247.23945  21713024.516                    21713031.926
 11  8 23  2  1  0.0000000  0  8G29G10G26G12G05G25G02G30
 119310101.584 7  92968978.442 6  22703962.930                    22703971.789
 123653699.375 6  96353638.72643  23530497.930                    23530506.949
 124796147.367 6  97243822.10443  23747918.266                    23747928.121
 112459965.325 8  87631202.764 7  21400420.320                    21400428.281
 107006066.712 8  83381477.426 8  20362553.273                    20362560.734
 113517950.758 8  88455645.882 7  21601754.477                    21601764.555
 113522664.278 8  88459383.86045  21602628.633                    21602634.145
 114110985.050 8  88917766.61945  21714616.648                    21714624.707
 11  8 23  2  1 30.0000000  0  8G29G10G26G12G05G25G02G30
 119227902.229 7  92904927.046 6  22688321.227                    22688329.496
 123757544.062 7  96434556.64843  23550258.656                    23550267.184
 124701631.727 6  97170173.63843  23729932.930                    23729941.801
 112519200.785 7  87677360.250 7  21411692.844                    21411700.047
 107030214.155 8  83400293.630 8  20367148.617                    20367155.648
 113515102.774 7  88453426.680 7  21601212.906                    21601223.094
 113560093.067 7  88488549.15245  21609751.453                    21609756.660
 114119939.200 7  88924743.89645  21716319.992                    21716328.414
 11  8 23  2  2  0.0000000  0  9G15G29G10G26G12G05G25G02G30
 129354308.22115 100795653.17015  24615315.180                    24615326.367
 119145767.678 7  92840926.145 7  22672691.500                    22672699.641
 123861555.556 7  96515604.54044  23570051.570                    23570060.063
 124607168.217 6  97096565.79343  23711957.375                    23711966.039
 112578879.686 7  87723863.283 7  21423049.633                    21423056.895
 107054883.618 8  83419516.608 8  20371842.641                    20371850.172
 113512831.962 7  88451657.240 7  21600779.930                    21600790.574
 113597606.442 8  88517780.37046  21616889.859                    21616895.219
 114129479.784 8  88932178.13245  21718135.984                    21718144.352
 11  8 23  2  2 30.0000000  0  9G15G29G10G26G12G05G25G02G30
 129261418.788 6 100723271.976 5  24597639.773                    24597650.500
 119063699.572 7  92776977.012 6  22657074.266                    22657082.609
 123965730.854 7  96596780.08043  23589875.672                    23589883.555
 124512759.977 6  97023001.01643  23693991.672                    23694000.699
 112638999.118 8  87770709.577 7  21434489.664                    21434497.359
 107080073.314 8  83439144.958 8  20376636.313                    20376643.281
 113511137.911 8  88450337.223 7  21600458.320                    21600468.379
 113635204.051 7  88547077.21945  21624044.227                    21624049.918
 114139605.755 7  88940068.53445  21720062.445                    21720070.730
 11  8 23  2  3  0.0000000  0  9G15G29G10G26G12G05G25G02G30
 129168398.100 5 100650788.492 5  24579938.461                    24579949.164
 118981699.893 7  92713081.189 6  22641470.180                    22641478.465
 124070067.629 7  96678081.44943  23609730.047                    23609737.586
 124418410.922 7  96949482.37543  23676037.664                    23676046.867
 112699557.201 8  87817897.685 7  21446013.203                    21446020.762
 107105782.043 8  83459177.749 8  20381528.383                    20381535.473
 113510020.434 8  88449466.476 7  21600245.086                    21600255.340
 113672885.741 7  88576439.59146  21631215.125                    21631220.316
 114150316.271 7  88948414.40845  21722101.023                    21722109.172
 11  8 23  2  3 30.0000000  0  9G15G29G10G26G12G05G25G02G30
 129075248.894 6 100578204.881 5  24562212.453                    24562222.840
 118899770.248 7  92649239.920 7  22625879.414                    22625887.949
 124174563.184 7  96759506.55443  23629615.477                    23629622.785
 124324124.122 7  96876012.22343  23658095.070                    23658105.102
 112760551.641 8  87865425.806 7  21457620.344                    21457627.797
 107132008.035 8  83479613.595 8  20386518.883                    20386525.918
 113509479.102 8  88449044.671 7  21600142.375                    21600152.055
 113710651.530 8  88605867.47746  21638401.664                    21638406.914
 114161610.176 8  88957214.87345  21724250.117                    21724258.430
 11  8 23  2  4  0.0000000  0  9G15G29G10G26G12G05G25G02G30
 128981973.462 6 100505522.896 5  24544462.508                    24544472.426
 118817912.576 7  92585454.761 7  22610302.047                    22610311.258
 124279214.490 6  96841053.03443  23649529.445                    23649537.352
 124229903.202 6  96802593.37243  23640165.422                    23640174.980
 112821978.959 7  87913291.235 7  21469309.664                    21469317.594
 107158749.495 8  83500451.106 8  20391607.688                    20391614.672
 113509513.475 7  88449071.471 7  21600148.828                    21600158.660
 113748501.092 8  88635360.67045  21645604.102                    21645609.676
 114173486.402 8  88966469.09446  21726509.828                    21726517.941
 11  8 23  2  4 30.0000000  0  9G15G29G10G26G12G05G25G02G30
 128888574.596 6 100432744.711 5  24526690.000                    24526700.039
 118736128.745 7  92521727.125 7  22594739.398                    22594747.609
 124384019.214 6  96922719.03643  23669472.672                    23669480.707
 124135751.698 6  96729228.64843  23622249.031                    23622258.137
 112883837.337 8  87961492.554 7  21481080.836                    21481088.430
 107186005.433 8  83521689.520 8  20396794.000                    20396801.352
 113510123.323 8  88449546.673 7  21600264.711                    21600274.805
 113786434.325 8  88664919.05445  21652822.406                    21652828.191
 114185943.915 8  88976176.25845  21728880.547                    21728888.852
 11  8 23  2  5  0.0000000  0  9G15G29G10G26G12G05G25G02G30
 128795054.874 6 100359872.356 5  24508893.117                    24508902.805
 118654420.914 7  92458058.720 7  22579191.008                    22579199.129
 124488974.401 6  97004502.28443  23689445.016                    23689454.023
 124041673.033 6  96655920.67843  23604345.539                    23604355.477
 112946124.526 8  88010028.003 7  21492933.703                    21492941.164
 107213774.030 8  83543327.399 8  20402078.672                    20402085.902
 113511308.262 8  88450469.990 7  21600490.367                    21600500.648
 113824451.497 8  88694542.83645  21660056.727                    21660062.508
 114198981.720 8  88986335.60645  21731361.430                    21731369.797
 11  8 23  2  5 30.0000000  0  9G15G29G10G26G12G05G25G02G30
 128701416.473 6 100286907.529 6  24491074.750                    24491084.320
 118572790.492 7  92394450.638 7  22563657.359                    22563665.281
 124594077.355 6  97086400.65643  23709446.063                    23709454.125
 123947670.654 6  96582672.17344  23586458.211                    23586467.746
 113008837.490 8  88058895.225 7  21504867.109                    21504875.055
 107242053.272 8  83565363.175 8  20407459.805                    20407466.961
 113513067.465 8  88451840.797 7  21600825.305                    21600835.699
 113862551.928 7  88724231.50345  21667306.820                    21667312.148
 114212598.420 8  88996946.01845  21733952.563                    21733960.574
 11  8 23  2  6  0.0000000  0  9G15G29G10G26G12G05G25G02G30
 128607661.929 6 100213852.190 6  24473233.477                    24473243.465
 118491239.447 7  92330904.382 7  22548138.563                    22548146.621
 124699325.506 7  97168412.19943  23729474.586                    23729482.211
 123853747.913 6  96509485.68843  23568584.813                    23568594.281
 113071973.961 8  88108092.452 7  21516882.313                    21516889.848
 107270841.434 8  83587795.519 8  20412937.930                    20412945.426
 113515400.491 7  88453658.723 7  21601268.961                    21601279.488
 113900735.432 8  88753984.90845  21674572.953                    21674578.316
 114226792.858 8  89008006.61345  21736653.813                    21736661.941
 11  8 23  2  6 30.0000000  0  9G15G29G10G26G12G05G25G02G30
 128513793.702 6 100140708.261 6  24455370.016                    24455381.004
 118409769.765 7  92267421.562 7  22532635.430                    22532643.891
 124804716.256 7  97250534.85343  23749529.633                    23749536.723
 123759908.467 6  96436364.13444  23550727.969                    23550737.789
 113135531.517 8  88157617.796 7  21528976.813                    21528984.000
 107300136.981 8  83610623.229 8  20418512.789                    20418520.027
 113518306.879 8  88455923.434 7  21601822.375                    21601832.391
 113939002.011 8  88783803.04645  21681854.672                    21681859.996
 114241563.911 8  89019516.52345  21739464.367                    21739472.207
 11  8 23  2  7  0.0000000  0  9G15G29G10G26G12G05G25G02G30
 128419814.813 6 100067478.126 6  24437486.086                    24437497.059
 118328383.487 7  92204003.733 7  22517147.922                    22517156.297
 124910247.030 7  97332766.58543  23769611.102                    23769619.188
 123666156.093 7  96363310.42844  23532887.875                    23532897.422
 113199507.910 8  88207469.512 7  21541151.109                    21541158.449
 107329938.724 8  83633845.379 8  20424184.086                    20424191.359
 113521786.383 8  88458634.732 7  21602484.180                    21602494.293
 113977351.744 8  88813685.97345  21689152.867                    21689158.180
 114256910.575 8  89031474.95745  21742384.898                    21742393.617
 11  8 23  2  7 30.0000000  0  9G15G29G10G26G12G05G25G02G30
 128325727.559 6  99994163.538 6  24419581.492                    24419592.793
 118247082.180 7  92140652.105 7  22501676.883                    22501685.051
 125015914.857 6  97415105.09443  23789719.625                    23789726.715
 123572493.891 7  96290326.99344  23515064.414                    23515073.645
 113263899.832 8  88257645.017 7  21553404.367                    21553412.012
 107360244.455 8  83657460.245 8  20429951.031                    20429958.148
 113525838.026 8  88461791.853 7  21603255.766                    21603265.316
 114015784.269 7  88843633.41245  21696465.648                    21696470.566
 114272831.221 8  89043880.64045  21745414.414                    21745422.980
 11  8 23  2  8  0.0000000  0  9G15G29G10G26G12G05G25G02G30
 128231534.206 6  99920766.330 6  24401658.078                    24401668.691
 118165867.835 7  92077368.243 7  22486222.625                    22486230.641
 125121717.079 6  97497548.36443  23809852.898                    23809860.070
 123478925.297 7  96217416.48544  23497259.273                    23497267.992
 113328704.814 8  88308142.383 7  21565736.109                    21565743.625
 107391052.220 8  83681466.313 8  20435813.609                    20435820.715
 113530461.119 8  88465394.273 7  21604135.117                    21604145.508
 114054299.492 7  88873645.29145  21703795.539                    21703800.469
 114289324.526 8  89056732.54845  21748553.203                    21748561.281
 11  8 23  2  8 30.0000000  0  9G15G29G10G26G12G05G25G02G30
 128137237.266 6  99847288.358 6  24383713.586                    24383723.820
 118084742.185 7  92014153.505 7  22470784.633                    22470793.238
 125227650.886 6  97580094.17243  23830011.156                    23830018.934
 123385453.930 7  96144581.71344  23479472.055                    23479480.766
 113393920.380 8  88358959.692 7  21578146.242                    21578154.223
 107422360.068 8  83705862.046 8  20441771.789                    20441778.504
 113535655.025 8  88469441.486 7  21605123.555                    21605133.719
 114092897.084 7  88903721.35045  21711140.047                    21711145.188
 114306389.242 8  89070029.72945  21751800.063                    21751808.348
 11  8 23  2  9  0.0000000  0  9G15G29G10G26G12G05G25G02G30
 128042839.699 6  99773731.995 5  24365750.117                    24365760.473
 118003707.151 7  91951009.380 7  22455364.094                    22455372.426
 125333713.851 6  97662740.60243  23850193.961                    23850202.176
 123292083.273 7  96071825.44644  23461703.766                    23461712.793
 113459543.765 7  88410094.780 7  21590634.273                    21590641.961
 107454166.526 8  83730646.324 8  20447823.633                    20447830.816
 113541419.170 8  88473933.020 7  21606220.422                    21606230.648
 114131576.949 7  88933861.51345  21718500.883                    21718505.336
 114324024.001 8  89083771.07645  21755156.211                    21755164.391
 11  8 23  2  9 30.0000000  0  9G15G29G10G26G12G05G25G02G30
 127948343.653 6  99700098.862 5  24347767.984                    24347778.082
 117922764.695 7  91887937.393 7  22439961.133                    22439969.535
 125439903.114 6  97745485.48543  23870401.492                    23870409.086
 123198816.688 7  95999150.25844  23443955.422                    23443964.500
 113525572.215 8  88461545.505 7  21603199.078                    21603206.445
 107486469.400 8  83755817.415 8  20453970.781                    20453977.699
 113547752.594 8  88478868.158 7  21607425.813                    21607436.000
 114170338.916 7  88964065.63945  21725877.008                    21725881.492
 114342227.220 8  89097955.39845  21758620.133                    21758628.270
 11  8 23  2 10  0.0000000  0  9G15G29G10G26G12G05G25G02G30
 127853752.202 6  99626391.408 5  24329767.844                    24329777.664
 117841917.072 7  91824939.307 7  22424576.164                    22424584.336
 125546216.633 6  97828327.23943  23890632.000                    23890640.336
 123105658.158 7  95926559.27444  23426228.086                    23426237.523
 113592004.015 7  88513310.531 7  21615840.758                    21615848.305
 107519267.856 8  83781374.667 8  20460212.156                    20460218.797
 113554655.127 8  88484246.765 7  21608739.094                    21608749.133
 114209183.584 7  88994334.21245  21733269.055                    21733274.207
 114360998.020 8  89112581.99445  21762192.359                    21762200.520
 11  8 23  2 10 30.0000000  0  9G15G29G10G26G12G05G25G02G30
 127759067.843 6  99552611.573 5  24311749.875                    24311759.145
 117761166.189 7  91762016.610 6  22409209.734                    22409217.703
 125652651.456 6  97911263.46143  23910886.242                    23910894.418
 123012611.143 7  95854055.17144  23408521.961                    23408530.441
 113658835.943 7  88565387.336 7  21628558.203                    21628565.574
 107552559.860 8  83807316.512 8  20466547.414                    20466554.375
 113562125.841 8  88490068.124 7  21610160.977                    21610170.727
 114248110.510 8  89024666.88745  21740676.688                    21740681.969
 114380334.906 8  89127649.69345  21765871.898                    21765880.086
 11  8 23  2 11  0.0000000  0  9G15G29G10G26G12G05G25G02G30
 127664293.012 6  99478761.241 5  24293714.438                    24293724.063
 117680513.674 7  91699170.547 7  22393862.344                    22393870.500
 125759204.961 6  97994292.16043  23931162.883                    23931171.137
 122919679.149 7  95781640.70744  23390837.094                    23390846.426
 113726064.983 7  88617773.590 7  21641351.797                    21641359.266
 107586343.192 8  83833641.204 8  20472976.109                    20472983.156
 113570163.881 8  88496331.548 7  21611690.734                    21611700.797
 114287119.610 7  89055063.58345  21748099.430                    21748104.855
 114400236.308 8  89143157.26846  21769659.016                    21769667.531
 11  8 23  2 11 30.0000000  0  9G15G29G10G26G12G05G25G02G30
 127569430.280 6  99404842.418 6  24275662.266                    24275672.977
 117599961.620 7  91636402.791 6  22378533.836                    22378541.594
 125865874.141 6  98077410.96043  23951461.539                    23951469.500
 122826865.572 7  95709318.50944  23373176.133                    23373184.328
 113793688.706 7  88670467.382 7  21654220.148                    21654227.738
 107620615.585 8  83860346.986 8  20479497.617                    20479505.098
 113578768.295 8  88503036.308 7  21613327.859                    21613338.000
 114326210.346 7  89085523.89845  21755538.195                    21755544.105
 114420700.626 8  89159103.48845  21773553.016                    21773561.906
 11  8 23  2 12  0.0000000  0  9G15G29G10G26G12G05G25G02G30
 127474482.681 6  99330857.425 6  24257595.188                    24257605.047
 117519512.107 7  91573714.910 6  22363224.922                    22363232.277
 125972657.068 6  98160618.37243  23971781.133                    23971789.547
 122734174.199 7  95637091.55244  23355536.969                    23355545.711
 113861705.080 7  88723467.143 7  21667163.039                    21667170.930
 107655375.978 8  83887433.039 8  20486112.508                    20486119.730
 113587938.593 8  88510182.003 7  21615072.367                    21615082.680
 114365383.372 7  89116048.31145  21762992.742                    21762998.348
 114441726.662 8  89175487.40945  21777554.086                    21777562.516
 11  8 23  2 12 30.0000000  0  9G15G29G10G26G12G05G25G02G30
 127379452.512 6  99256808.130 6  24239510.898                    24239521.566
 117439167.049 7  91511108.447 7  22347935.117                    22347943.637
 126079551.094 6  98243912.41142  23992122.766                    23992130.320
 122641608.551 7  95564962.55144  23337922.086                    23337930.559
 113930110.745 7  88776770.240 7  21680180.305                    21680188.328
 107690622.332 8  83914897.738 8  20492819.523                    20492826.383
 113597673.723 8  88517767.853 7  21616924.992                    21616935.117
 114404638.156 7  89146636.46545  21770462.234                    21770467.883
 114463312.696 8  89192307.72445  21781661.758                    21781669.766
 11  8 23  2 13  0.0000000  0  9G15G29G10G26G12G05G25G02G30
 127284342.335 6  99182696.460 6  24221412.070                    24221422.188
 117358928.286 7  91448584.814 6  22332666.328                    22332674.105
 126186553.065 6  98327290.63043  24012483.453                    24012491.891
 122549171.661 7  95492933.85844  23320332.031                    23320340.957
 113998902.777 7  88830374.405 7  21693270.828                    21693278.844
 107726352.023 8  83942739.077 8  20499618.469                    20499625.672
 113607972.581 8  88525792.968 7  21618884.805                    21618894.898
 114443974.696 7  89177288.30245  21777947.961                    21777954.027
 114485457.040 8  89209563.06745  21785876.047                    21785884.551
 11  8 23  2 13 30.0000000  0  9G15G29G10G26G12G05G25G02G30
 127189155.017 6  99108524.667 6  24203298.359                    24203308.082
 117278797.850 7  91386145.585 6  22317417.906                    22317425.688
 126293660.913 6  98410751.27843  24032865.313                    24032874.910
 122456867.818 7  95421008.85744  23302767.023                    23302775.602
 114068078.759 7  88884277.740 7  21706434.711                    21706442.586
 107762563.954 7  83970956.179 8  20506509.625                    20506516.793
 113618834.609 8  88534256.915 7  21620952.266                    21620962.145
 114483393.121 7  89208003.96245  21785449.016                    21785455.113
 114508158.417 8  89227252.45845  21790195.625                    21790204.191
 11  8 23  2 14  0.0000000  0  9G15G29G10G26G12G05G25G02G30
 127093893.056 6  99034294.700 6  24185170.297                    24185179.965
 117198777.972 7  91323792.493 7  22302190.648                    22302198.262
 126400871.960 6  98494292.33843  24053266.742                    24053276.777
 122364700.359 7  95349190.13844  23285227.844                    23285236.406
 114137636.017 7  88938478.189 7  21719670.820                    21719679.051
 107799255.993 7  83999547.397 8  20513491.609                    20513498.684
 113630258.894 8  88543158.971 7  21623125.641                    21623136.117
 114522893.600 7  89238783.54445  21792965.727                    21792971.855
 114531415.166 8  89245374.62045  21794621.438                    21794629.473
 11  8 23  2 14 30.0000000  0  9G15G29G10G26G12G05G25G02G30
 126998559.055 6  98960008.595 6  24167028.930                    24167038.160
 117118870.459 7  91261526.976 7  22286984.680                    22286992.266
 126508183.192 7  98577911.45043  24073688.320                    24073696.340
 122272672.643 7  95277480.31544  23267715.648                    23267724.559
 114207571.714 7  88992973.521 7  21732979.164                    21732986.859
 107836425.544 7  84028510.706 8  20520565.008                    20520572.055
 113642244.102 8  88552498.117 7  21625406.930                    21625417.207
 114562475.475 7  89269626.55345  21800498.063                    21800503.195
 114555225.491 8  89263928.14945  21799152.531                    21799160.180
 11  8 23  2 15  0.0000000  0  9G15G29G10G26G12G05G25G02G30
 126903155.902 6  98885668.585 6  24148873.969                    24148883.277
 117039077.516 7  91199350.725 7  22271800.734                    22271808.328
 126615592.634 7  98661607.12443  24094127.703                    24094136.398
 122180788.724 7  95205882.52344  23250230.289                    23250239.789
 114277883.372 7  89047761.810 7  21746359.078                    21746367.336
 107874071.539 8  84057845.249 8  20527728.867                    20527735.250
 113654789.637 8  88562273.875 7  21627793.750                    21627804.066
 114602139.298 7  89300533.41345  21808045.602                    21808051.012
 114579588.033 8  89282911.96245  21803788.484                    21803796.371
 11  8 23  2 15 30.0000000  0  9G15G29G10G26G12G05G25G02G30
 126807686.020 6  98811276.579 6  24130706.914                    24130715.523
 116959400.758 7  91137265.001 7  22256638.563                    22256646.770
 126723097.373 6  98745377.00543  24114584.953                    24114594.297
 122089051.698 7  95134399.20844  23232773.852                    23232782.840
 114348567.586 7  89102840.399 7  21759809.836                    21759817.859
 107912191.186 8  84087548.882 8  20534982.844                    20534989.609
 113667894.145 8  88572485.213 7  21630287.266                    21630297.586
 114641884.480 7  89331503.67545  21815609.375                    21815614.820
 114604500.796 8  89302324.52045  21808529.414                    21808537.734
 11  8 23  2 16  0.0000000  0  9G15G29G10G26G12G05G25G02G30
 126712152.799 6  98736835.224 6  24112527.656                    24112536.227
 116879842.504 7  91075271.625 7  22241499.172                    22241507.078
 126830695.132 6  98829219.39043  24135060.398                    24135069.766
 121997465.295 7  95063033.25344  23215345.086                    23215354.160
 114419621.943 7  89158207.405 7  21773331.289                    21773338.984
 107950783.242 8  84117620.623 8  20542326.773                    20542333.281
 113681556.824 8  88583131.470 7  21632887.727                    21632897.566
 114681711.407 7  89362537.63045  21823187.844                    21823193.109
 114629962.233 7  89322164.61245  21813374.211                    21813382.332
 11  8 23  2 16 30.0000000  0  9G15G29G10G26G12G05G25G02G30
 126616558.111 6  98662345.973 6  24094336.375                    24094345.793
 116800404.695 7  91013372.112 7  22226382.125                    22226390.348
 126938383.326 6  98913132.25843  24155552.430                    24155561.613
 121906033.291 7  94991787.61344  23197946.766                    23197955.578
 114491043.819 7  89213860.802 7  21786922.359                    21786930.016
 107989845.284 8  84148058.589 8  20549759.703                    20549766.461
 113695776.618 8  88594211.842 7  21635593.563                    21635603.387
 114721620.266 8  89393635.42945  21830782.695                    21830787.344
 114655970.681 7  89342430.95845  21818323.555                    21818331.840
 11  8 23  2 17  0.0000000  0  9G15G29G10G26G12G05G25G02G30
 126520904.921 6  98587811.142 6  24076134.305                    24076143.824
 116721089.345 7  90951568.009 7  22211289.094                    22211296.961
 127046159.593 6  98997113.74943  24176062.055                    24176070.719
 121814759.193 7  94920665.00644  23180577.211                    23180586.559
 114562830.243 7  89269798.248 7  21800583.055                    21800590.879
 108029375.406 8  84178861.298 8  20557282.336                    20557289.055
 113710552.312 8  88605725.397 7  21638405.313                    21638415.340
 114761610.481 8  89424796.61245  21838392.484                    21838397.648
 114682524.284 8  89363122.09245  21823376.820                    21823384.820
 11  8 23  2 17 30.0000000  0  9G15G29G10G26G12G05G25G02G30
 126425196.211 6  98513233.055 6  24057921.047                    24057930.762
 116641898.679 7  90889861.064 7  22196219.219                    22196227.434
 127154021.370 6  99081161.92742  24196586.938                    24196595.461
 121723646.618 7  94849668.27544  23163239.633                    23163248.191
 114634978.467 7  89326017.623 7  21814312.180                    21814319.828
 108069371.809 8  84210027.349 8  20564892.844                    20564899.977
 113725883.023 8  88617671.422 7  21641322.375                    21641332.445
 114801682.661 8  89456021.69445  21846017.945                    21846022.914
 114709621.536 7  89384236.84545  21828532.953                    21828540.730
 11  8 23  2 18  0.0000000  0  9G15G29G10G26G12G05G25G02G30
 126329434.380 7  98438613.616 6  24039697.844                    24039707.887
 116562834.547 7  90828252.702 7  22181173.938                    22181182.281
 127261966.096 5  99165274.67542  24217128.555                    24217136.684
 121632699.065 7  94778800.12844  23145932.172                    23145940.777
 114707485.774 7  89382516.808 7  21828110.000                    21828117.230
 108109832.027 8  84241554.809 8  20572592.539                    20572599.520
 113741767.291 8  88630048.787 7  21644345.188                    21644355.105
 114841836.660 8  89487310.53045  21853658.898                    21853664.598
 114737260.262 7  89405773.53345  21833792.414                    21833800.379
 11  8 23  2 18 30.0000000  0  9G15G29G10G26G12G05G25G02G30
 126233621.970 7  98363954.700 6  24021465.508                    24021474.637
 116483899.233 7  90766744.730 7  22166152.883                    22166161.305
 127369991.053 6  99249449.97343  24237684.625                    24237693.398
 121541920.279 7  94708063.49344  23128657.766                    23128666.668
 114780348.854 7  89439293.209 7  21841975.492                    21841983.105
 108150753.927 8  84273442.009 7  20580379.516                    20580386.320
 113758204.042 8  88642856.651 7  21647473.234                    21647483.371
 114882072.192 7  89518662.90345  21861315.516                    21861320.914
 114765438.902 7  89427730.91945  21839154.867                    21839162.543
 11  8 23  2 19  0.0000000  0  9G15G29G10G26G12G05G25G02G30
 126137762.336 7  98289258.984 6  24003223.875                    24003232.973
 116405094.855 7  90705338.774 7  22151157.250                    22151165.402
 127478094.139 6  99333686.10543  24258255.148                    24258264.906
 121451314.178 7  94637461.40844  23111415.922                    23111425.000
 114853565.684 7  89496345.276 7  21855908.344                    21855916.535
 108192136.002 8  84305687.799 7  20588254.688                    20588261.008
 113775192.372 8  88656094.315 7  21650705.445                    21650715.996
 114922389.540 7  89550079.01345  21868987.445                    21868993.098
 114794155.765 7  89450107.71645  21844619.211                    21844626.895
 11  8 23  2 19 30.0000000  0  9G15G29G10G26G12G05G25G02G30
 126041858.211 7  98214528.637 6  23984974.227                    23984983.230
 116326423.162 7  90644036.199 7  22136186.781                    22136194.238
 127586272.522 6  99417980.91343  24278842.594                    24278850.480
 121360884.082 7  94566996.45544  23094207.563                    23094216.684
 114927132.850 7  89553670.326 7  21869907.383                    21869914.848
 108233975.725 8  84338290.191 7  20596216.219                    20596223.078
 113792730.865 8  88669760.684 7  21654043.367                    21654053.586
 114962788.722 7  89581558.90945  21876675.141                    21876680.613
 114823408.764 7  89472902.27945  21850185.867                    21850193.813
 11  8 23  2 20  0.0000000  0  9G15G29G10G26G12G05G25G02G30
 125945911.892 7  98139765.367 6  23966715.734                    23966724.898
 116247886.726 7  90582839.004 7  22121241.672                    22121249.211
 127694523.818 6  99502332.55843  24299442.289                    24299450.332
 121270633.641 7  94496671.49144  23077033.477                    23077042.207
 115001047.806 7  89611266.379 7  21883973.016                    21883981.008
 108276271.245 8  84371247.752 8  20604264.563                    20604271.316
 113810818.353 8  88683854.819 7  21657484.797                    21657495.000
 115003269.602 7  89613102.46045  21884378.430                    21884383.457
 114853196.118 7  89496113.21245  21855853.852                    21855862.379
 11  8 23  2 20 30.0000000  0  9G15G29G10G26G12G05G25G02G30
 125849926.398 7  98064971.603 6  23948450.172                    23948459.492
 116169487.292 7  90521748.587 7  22106322.273                    22106330.891
 127802845.668 7  99586739.20343  24320054.797                    24320063.621
 121180566.655 7  94426489.47344  23059894.180                    23059902.883
 115075307.399 7  89669130.960 7  21898104.383                    21898111.871
 108319020.322 7  84404558.741 8  20612399.539                    20612406.297
 113829453.548 8  88698375.756 7  21661031.086                    21661041.410
 115043832.546 7  89644709.97345  21892097.070                    21892102.289
 114883515.935 7  89519739.03945  21861623.547                    21861631.914
 11  8 23  2 21  0.0000000  0  9G15G29G10G26G12G05G25G02G30
 125753904.675 7  97990149.629 6  23930178.172                    23930187.023
 116091226.996 7  90460766.566 7  22091430.336                    22091438.039
 127911235.491 6  99671198.83743  24340680.648                    24340689.832
 121090686.450 7  94356453.01644  23042790.820                    23042799.309
 115149909.167 7  89727262.176 7  21912300.703                    21912308.043
 108362220.756 8  84438221.443 8  20620620.359                    20620627.516
 113848635.129 8  88713322.441 7  21664681.203                    21664691.215
 115084477.358 7  89676381.27445  21899832.023                    21899836.742
 114914366.254 7  89543778.27145  21867494.664                    21867502.625
 11  8 23  2 21 30.0000000  0  9G15G29G10G26G12G05G25G02G30
 125657849.333 7  97915301.414 6  23911898.813                    23911908.609
 116013108.361 7  90399894.947 7  22076564.344                    22076572.672
 128019691.006 6  99755709.60643  24361318.398                    24361328.273
 121000997.052 7  94286565.22044  23025723.719                    23025732.164
 115224849.960 8  89785657.575 7  21926560.914                    21926568.801
 108405870.905 8  84472234.578 8  20628926.656                    20628933.391
 113868362.002 8  88728694.016 7  21668435.125                    21668445.121
 115125204.281 7  89708116.54845  21907581.828                    21907586.922
 114945745.291 7  89568229.46145  21873466.039                    21873474.109
 11  8 23  2 22  0.0000000  0  9G15G29G10G26G12G05G25G02G30
 125561763.208 6  97840429.242 6  23893614.297                    23893623.582
 115935133.106 7  90339135.030 7  22061726.156                    22061733.742
 128128209.949 6  99840269.82743  24381970.023                    24381978.383
 120911501.958 7  94216828.82544  23008692.906                    23008701.699
 115300126.885 7  89844314.902 7  21940886.547                    21940894.184
 108449968.535 8  84506596.389 8  20637317.969                    20637324.996
 113888632.862 8  88744489.485 7  21672292.648                    21672302.105
 115166013.548 8  89739915.99245  21915347.969                    21915352.848
 114977651.132 7  89593091.15645  21879537.391                    21879545.414
 11  8 23  2 22 30.0000000  0  9G15G29G10G26G12G05G25G02G30
 125465648.701 6  97765534.921 6  23875324.422                    23875333.848
 115857303.435 7  90278488.550 7  22046916.109                    22046923.941
 128236789.866 6  99924877.54243  24402631.563                    24402639.918
 120822204.803 7  94147246.66544  22991700.484                    22991709.051
 115375737.568 8  89903232.294 7  21955274.109                    21955281.836
 108494511.090 8  84541304.886 8  20645794.203                    20645801.168
 113909446.087 8  88760707.578 7  21676253.164                    21676263.383
 115206904.889 7  89771779.39245  21923128.813                    21923133.957
 115010081.559 8  89618361.61945  21885708.406                    21885716.004
 11  8 23  2 23  0.0000000  0  9G15G29G10G26G12G05G25G02G30
 125369508.744 6  97690620.790 6  23857029.820                    23857038.789
 115779621.117 7  90217956.898 7  22032133.188                    22032141.430
 128345427.872 6 100009530.53443  24423304.750                    24423313.848
 120733108.819 7  94077821.28144  22974745.586                    22974754.715
 115451677.829 7  89962406.504 7  21969724.664                    21969733.016
 108539495.931 8  84576358.024 8  20654354.766                    20654361.496
 113930800.037 8  88777347.010 7  21680316.945                    21680326.512
 115247878.341 7  89803706.75045  21930926.313                    21930930.973
 115043034.316 7  89644039.08845  21891979.008                    21891987.695
 11  8 23  2 23 30.0000000  0  9G15G29G10G26G12G05G25G02G30
 125273346.251 7  97615689.101 6  23838729.750                    23838739.238
 115702088.470 7  90157541.885 7  22017379.219                    22017387.316
 128454121.690 6 100094227.00443  24443988.414                    24443997.559
 120644217.819 7  94008555.61244  22957829.820                    22957839.848
 115527945.188 8  90021835.585 7  21984238.641                    21984246.344
 108584921.127 8  84611754.283 8  20662998.938                    20663005.715
 113952693.480 8  88794406.825 7  21684483.000                    21684493.074
 115288933.453 8  89835697.74145  21938738.914                    21938743.242
 115076507.512 7  89670122.09245  21898349.094                    21898356.844
 11  8 23  2 24  0.0000000  0  9G15G29G10G26G12G05G25G02G30
 125177164.300 6  97540742.249 6  23820426.758                    23820436.578
 115624708.260 7  90097245.657 7  22002654.813                    22002662.949
 128562869.172 6 100178965.26043  24464682.656                    24464691.211
 120555535.959 7  93939452.89544  22940954.422                    22940963.336
 115604537.342 8  90081517.772 7  21998813.352                    21998821.105
 108630785.294 8  84647492.605 7  20671726.531                    20671733.020
 113975125.426 8  88811886.256 7  21688751.594                    21688761.578
 115330071.491 8  89867753.35945  21946566.828                    21946571.977
 115110499.431 8  89696609.28745  21904817.531                    21904825.527
 11  8 23  2 24 30.0000000  0  9G15G29G10G26G12G05G25G02G30
 125080965.383 7  97465782.176 6  23802120.727                    23802130.285
 115547481.986 7  90037069.401 7  21987958.758                    21987966.863
 128671667.939 6 100263743.56143  24485385.430                    24485394.422
 120467066.215 7  93870515.45644  22924119.031                    22924127.578
 115681450.669 8  90141450.222 7  22013448.953                    22013457.148
 108677085.325 8  84683570.564 7  20680537.250                    20680544.305
 113998093.788 8  88829783.690 7  21693122.656                    21693132.523
 115371291.667 7  89899872.97945  21954410.625                    21954415.641
 115145007.531 8  89723498.69645  21911384.367                    21911392.504
 11  8 23  2 25  0.0000000  0  9G15G29G10G26G12G05G25G02G30
 124984752.971 7  97390811.582 6  23783812.117                    23783821.559
 115470412.416 8  89977015.233 7  21973292.914                    21973300.555
 128780515.396 6 100348559.71042  24506099.469                    24506107.172
 120378813.159 7  93801746.88544  22907325.203                    22907333.102
 115758683.153 8  90201631.353 7  22028146.609                    22028154.523
 108723819.906 8  84719987.124 8  20689430.250                    20689437.172
 114021597.851 8  88848098.529 7  21697595.117                    21697605.391
 115412594.809 8  89932057.25845  21962270.422                    21962275.336
 115180030.373 8  89750789.21145  21918049.398                    21918056.625
 11  8 23  2 25 30.0000000  0  9G15G29G10G26G12G05G25G02G30
 124888529.241 7  97315832.182 6  23765500.859                    23765510.852
 115393501.343 8  89917084.581 7  21958657.102                    21958664.664
 128889409.369 6 100433412.07343  24526821.070                    24526828.988
 120290779.844 7  93733149.53844  22890572.438                    22890581.457
 115836231.430 8  90262058.568 7  22042902.961                    22042911.066
 108770986.399 8  84756740.250 8  20698405.922                    20698412.875
 114045635.749 8  88866829.371 7  21702169.195                    21702179.023
 115453980.718 8  89964306.01145  21970145.977                    21970150.957
 115215565.548 8  89778478.98045  21924810.703                    21924818.695
 11  8 23  2 26  0.0000000  0  9G15G29G10G26G12G05G25G02G30
 124792297.222 7  97240846.282 6  23747189.438                    23747198.160
 115316750.812 8  89857279.033 7  21944051.938                    21944059.656
 128998347.673 5 100518299.08642  24547551.258                    24547559.527
 120202969.835 7  93664726.20644  22873863.445                    22873872.172
 115914092.361 8  90322729.405 7  22057719.688                    22057727.664
 108818582.504 8  84793828.146 8  20707462.680                    20707470.176
 114070205.869 8  88885974.915 7  21706844.758                    21706854.730
 115495449.347 8  89996619.23645  21978036.992                    21978042.234
 115251610.787 8  89806566.17545  21931670.164                    21931678.449
 11  8 23  2 26 30.0000000  0  9G15G29G10G26G12G05G25G02G30
 124696059.724 7  97165856.167 6  23728874.945                    23728884.105
 115240163.137 8  89797600.391 7  21929477.695                    21929484.914
 129107327.70216 100603218.56852  24568289.328                    24568298.262
 120115386.995 7  93596479.87544  22857196.711                    22857205.238
 115992263.140 8  90383641.671 7  22072595.430                    22072603.031
 108866606.012 8  84831249.061 7  20716601.711                    20716608.363
 114095306.649 8  88905533.961 7  21711621.633                    21711631.508
 115537000.924 7  90028997.07245  21985944.102                    21985949.750
 115288163.933 8  89835049.14345  21938625.641                    21938634.133
 11  8 23  2 27  0.0000000  0  9G15G29G10G26G12G05G25G02G30
 124599820.759 7  97090864.880 6  23710561.922                    23710570.336
 115163741.510 7  89738051.144 7  21914935.492                    21914943.180
 129216348.085 6 100688169.59642  24589034.328                    24589044.117
 120028036.050 7  93528414.24944  22840574.109                    22840583.199
 116070741.670 8  90444793.765 7  22087529.336                    22087536.777
 108915055.681 8  84869002.048 7  20725821.367                    20725828.344
 114120937.678 8  88925506.192 7  21716498.508                    21716508.676
 115578636.648 7  90061440.48545  21993867.539                    21993872.508
 115325223.940 8  89863927.07345  21945677.797                    21945685.691
 11  8 23  2 27 30.0000000  0  8G15G29G26G12G05G25G02G30
 124503583.306 7  97015874.768 6  23692248.453                    23692256.887
 115087488.344 8  89678633.167 7  21900424.461                    21900432.645
 119940921.039 7  93460532.46444  22823997.336                    22824006.047
 116149525.532 8  90506183.752 7  22102521.391                    22102528.789
 108963929.733 8  84907085.729 8  20735121.758                    20735128.766
 114147097.647 8  88945890.587 7  21721476.945                    21721486.930
 115620357.032 7  90093949.84445  22001806.281                    22001811.688
 115362788.905 8  89893198.46245  21952826.531                    21952834.668
 11  8 23  2 28  0.0000000  0  8G15G29G26G12G05G25G02G30
 124407348.536 7  96940886.734 6  23673935.234                    23673944.418
 115011404.308 8  89619346.994 7  21885946.266                    21885953.938
 119854043.464 7  93392835.69644  22807464.109                    22807473.043
 116228609.804 8  90567807.844 7  22117570.719                    22117578.441
 109013223.759 8  84945496.654 8  20744502.000                    20744508.926
 114173783.110 8  88966684.456 7  21726555.031                    21726565.074
 115662160.145 7  90126523.69445  22009760.625                    22009766.598
 115400854.733 7  89922860.13945  21960070.211                    21960078.266
 11  8 23  2 28 30.0000000  0  8G15G29G26G12G05G25G02G30
 124311119.881 7  96865903.461 6  23655623.203                    23655632.453
 114935491.987 8  89560194.604 7  21871500.406                    21871508.574
 119767407.923 7  93325327.53744  22790978.422                    22790987.254
 116307992.472 8  90629664.454 7  22132676.281                    22132684.207
 109062936.399 8  84984233.783 8  20753962.016                    20753969.035
 114200993.117 8  88987887.070 7  21731732.672                    21731742.551
 115704047.070 7  90159162.85445  22017731.859                    22017736.711
 115439419.958 8  89952910.95745  21967408.820                    21967416.820
 11  8 23  2 29  0.0000000  0  9G15G29G26G12G05G25G02G30G21
 124214900.380 6  96790927.314 6  23637314.008                    23637322.582
 114859753.552 8  89501177.715 7  21857087.844                    21857095.699
 119681017.886 7  93258010.65944  22774538.820                    22774547.105
 116387669.974 8  90691750.797 7  22147838.703                    22147846.793
 109113065.364 8  85023295.321 7  20763501.367                    20763508.207
 114228725.771 8  89009496.953 7  21737009.984                    21737020.242
 115746017.635 7  90191867.19345  22025718.625                    22025723.711
 115478482.103 8  89983349.00445  21974842.336                    21974850.059
 132051580.26315                  25128622.430
 11  8 23  2 29 30.0000000  0  9G15G29G26G12G05G25G02G30G21
 124118691.801 6  96715959.677 6  23619005.141                    23619014.141
 114784190.464 7  89442297.452 7  21842708.703                    21842716.719
 119594876.121 7  93190887.25944  22758146.328                    22758155.328
 116467638.442 8  90754063.870 7  22163056.195                    22163064.363
 109163607.037 8  85062678.446 7  20773119.141                    20773125.809
 114256978.577 8  89031512.114 7  21742386.273                    21742396.594
 115788071.033 7  90224636.06645  22033721.258                    22033726.590
 115518037.978 8  90014171.76145  21982369.586                    21982377.203
 131995791.066 5                  25118004.852
 11  8 23  2 30  0.0000000  0  9G15G29G26G12G05G25G02G30G21
 124022497.120 6  96641002.862 6  23600700.320                    23600708.957
 114708805.320 7  89383555.853 7  21828363.031                    21828371.105
 119508986.635 7  93123960.44644  22741802.438                    22741811.840
 116547895.406 7  90816601.742 7  22178328.680                    22178336.203
 109214559.694 8  85102381.813 7  20782815.242                    20782821.988
 114285750.006 8  89053931.421 7  21747861.508                    21747871.523
 115830207.688 7  90257469.82545  22041739.320                    22041744.703
 115558085.550 8  90045377.68345  21989990.172                    21989997.840
 131940005.416 5                  25107388.633
 11  8 23  2 30 30.0000000  0  9G15G29G26G12G05G25G02G30G21
 123926320.205 6  96566059.898 6  23582398.250                    23582406.941
 114633600.079 7  89324954.428 7  21814051.813                    21814059.898
 119423353.376 7  93057233.30744  22725506.938                    22725515.770
 116628438.100 7  90879362.268 7  22193655.555                    22193663.160
 109265921.225 8  85142403.796 8  20792588.977                    20792595.633
 114315039.013 8  89076754.040 7  21753435.039                    21753445.109
 115872428.564 7  90290369.19345  22049773.828                    22049779.141
 115598623.170 8  90076965.45545  21997704.367                    21997712.113
 131884223.521 5                  25096773.047
 11  8 23  2 31  0.0000000  0  9G15G29G26G12G05G25G02G30G21
 123830164.256 6  96491133.283 6  23564100.344                    23564109.824
 114558578.175 7  89266495.874 7  21799776.000                    21799783.602
 119337980.841 7  92990709.28944  22709260.531                    22709269.340
 116709264.350 7  90942343.757 7  22209036.219                    22209043.828
 109317690.249 8  85182743.289 8  20802439.844                    20802447.066
 114344844.329 8  89099978.966 7  21759106.961                    21759117.000
 115914734.293 7  90323334.67245  22057824.516                    22057829.570
 115639648.936 8  90108933.58945  22005510.859                    22005519.730
 131828444.572 5                  25086159.633
 11  8 23  2 31 30.0000000  0  9G15G29G26G12G05G25G02G30G21
 123734031.993 7  96416225.116 6  23545807.375                    23545816.293
 114483741.287 8  89208181.475 7  21785534.945                    21785542.586
 119252872.092 7  92924390.83244  22693064.953                    22693073.613
 116790370.423 7  91005543.267 7  22224470.047                    22224478.266
 109369863.902 8  85223398.092 7  20812368.500                    20812375.422
 114375163.633 8  89123604.404 7  21764876.148                    21764885.871
 115957124.590 7  90356366.08645  22065890.664                    22065895.793
 115681160.009 7  90141279.88845  22013411.086                    22013418.469
 131772668.013 5                  25075545.156
 11  8 23  2 32  0.0000000  0  9G15G29G26G12G05G25G02G30G21
 123637926.199 7  96341337.575 6  23527518.500                    23527527.164
 114409091.885 7  89150013.165 7  21771329.500                    21771337.379
 119168031.147 7  92858281.04844  22676920.414                    22676928.621
 116871753.717 7  91068958.796 7  22239956.914                    22239964.336
 109422439.907 8  85264366.420 8  20822373.344                    20822380.473
 114405995.410 8  89147629.170 7  21770743.539                    21770753.680
 115999599.846 7  90389463.69645  22073973.555                    22073978.590
 115723154.241 8  90174002.67745  22021401.727                    22021409.535
 131716893.255 5                  25064931.797
 11  8 23  2 32 30.0000000  0  9G15G29G26G12G05G25G02G30G21
 123541850.289 7  96266473.325 6  23509236.227                    23509244.457
 114334632.559 7  89091992.962 7  21757160.109                    21757168.070
 119083461.795 7  92792382.90544  22660826.984                    22660835.281
 116953411.487 7  91132588.195 7  22255495.852                    22255504.078
 109475416.274 8  85305646.700 7  20832454.656                    20832461.328
 114437338.048 8  89172052.017 7  21776707.828                    21776717.855
 116042160.336 7  90422627.74845  22082072.539                    22082078.113
 115765629.465 8  90207100.27145  22029484.852                    22029492.965
 131661120.404 5                  25054317.891
 11  8 23  2 33  0.0000000  0  9G15G29G26G12G05G25G02G30G21
 123445806.855 7  96191634.390 6  23490958.984                    23490968.137
 114260365.171 7  89034122.297 7  21743027.781                    21743035.512
 118999167.550 7  92726699.11144  22644786.555                    22644795.094
 117035340.286 7  91196428.790 7  22271086.664                    22271094.738
 109528790.602 8  85347237.095 7  20842611.039                    20842617.973
 114469189.745 8  89196871.526 7  21782768.469                    21782779.051
 116084806.294 7  90455858.39745  22090187.766                    22090192.617
 115808583.357 8  90240570.83945  22037658.086                    22037666.633
 131605348.422 5                  25043704.734
 11  8 23  2 33 30.0000000  0  9G15G29G26G12G05G25G02G30G21
 123349798.324 7  96116822.634 6  23472689.617                    23472698.715
 114186291.595 7  88976402.673 7  21728932.094                    21728939.242
 118915151.386 7  92661232.00444  22628799.008                    22628806.852
 117117536.679 7  91260477.907 7  22286728.195                    22286736.027
 109582559.706 8  85389135.089 7  20852843.070                    20852849.965
 114501547.818 8  89222085.597 7  21788926.242                    21788936.492
 116127537.082 7  90489155.12245  22098319.617                    22098324.301
 115852012.647 7  90274411.84745  22045922.820                    22045930.598
 131549575.782 5                  25033091.859
 11  8 23  2 34  0.0000000  0  9G15G29G26G12G05G25G02G30G21
 123253828.074 7  96042040.723 6  23454426.969                    23454435.520
 114112414.045 7  88918835.777 7  21714873.195                    21714880.629
 118831417.230 7  92595984.62444  22612864.852                    22612873.160
 117199997.765 7  91324733.281 7  22302419.906                    22302428.117
 109636721.635 8  85431339.179 7  20863150.086                    20863156.813
 114534410.677 8  89247693.032 7  21795179.961                    21795190.250
 116170353.294 7  90522518.41745  22106467.211                    22106472.082
 115895915.080 8  90308621.55545  22054276.977                    22054285.051
 131493802.416 5                  25022479.453
 11  8 23  2 34 30.0000000  0  9G15G29G26G12G05G25G02G30G21
 123157899.166 7  95967290.992 6  23436172.531                    23436181.211
 114038735.467 7  88861423.917 7  21700853.070                    21700860.617
 118747969.133 7  92530960.20144  22596985.320                    22596994.117
 117282720.883 7  91389192.829 7  22318161.250                    22318169.527
 109691274.276 8  85473847.727 7  20873530.898                    20873537.387
 114567776.797 8  89273692.611 7  21801529.117                    21801539.777
 116213255.348 7  90555948.62545  22114631.133                    22114635.582
 115940288.661 7  90343198.37745  22062720.938                    22062729.313
 131438027.806 5                  25011864.820
 11  8 23  2 35  0.0000000  0  9G15G29G26G12G05G25G02G30G21
 123062014.478 7  95892575.730 6  23417926.258                    23417934.422
 113965257.734 8  88804168.570 7  21686870.453                    21686878.469
 118664810.495 7  92466161.30644  22581160.680                    22581169.469
 117365702.758 7  91453853.990 7  22333952.641                    22333960.379
 109746214.974 8  85516658.669 7  20883985.453                    20883992.672
 114601644.059 8  89300082.688 7  21807974.023                    21807984.250
 116256243.433 7  90589445.85545  22122811.297                    22122816.750
 115985130.683 7  90378140.21545  22071254.148                    22071262.211
 131382251.521 5                  25001250.727
 11  8 23  2 35 30.0000000  0  9G15G29G26G12G05G25G02G30G21
 122966177.172 7  95817897.384 6  23399688.977                    23399696.555
 113891983.472 8  88747071.766 7  21672926.766                    21672934.879
 118581945.259 7  92401591.02144  22565392.133                    22565400.008
 117448940.576 7  91518714.603 7  22349792.469                    22349800.273
 109801541.686 8  85559770.394 8  20894513.563                    20894520.922
 114636010.606 8  89326861.798 7  21814513.758                    21814523.965
 116299317.986 7  90623010.45145  22131008.102                    22131013.930
 116030438.777 8  90413445.21745  22079876.398                    22079884.113
 131326473.05915                  24990636.711
 11  8 23  2 36  0.0000000  0  9G15G29G26G12G05G25G02G30G21
 122870389.368 7  95743257.617 6  23381460.797                    23381469.539
 113818914.194 8  88690134.686 7  21659021.867                    21659029.859
 118499376.355 7  92337251.66044  22549679.758                    22549687.836
 117532430.637 7  91583771.764 7  22365679.680                    22365687.781
 109857251.088 8  85603180.333 7  20905114.797                    20905122.195
 114670873.986 8  89354028.064 7  21821148.281                    21821158.309
 116342478.653 7  90656642.14045  22139220.945                    22139226.742
 116076209.939 7  90449111.06045  22088585.430                    22088594.156
 131270691.386 5                  24980021.070
 11  8 23  2 36 30.0000000  0  9G15G29G26G12G05G25G02G30G21
 122774654.900 7  95668659.397 6  23363242.867                    23363251.316
 113746052.828 8  88633359.617 7  21645157.016                    21645164.582
 118417108.257 7  92273146.68844  22534024.109                    22534033.172
 117616170.696 7  91649023.715 7  22381615.383                    22381623.254
 109913341.759 8  85646887.363 7  20915788.469                    20915795.789
 114706232.958 8  89381580.498 7  21827877.016                    21827886.984
 116385726.422 7  90690341.70545  22147451.102                    22147456.406
 116122442.396 7  90485136.33845  22097383.711                    22097391.840
 131214906.339 5 102245576.14052  24969406.430                    24969414.316
 11  8 23  2 37  0.0000000  0  9G15G29G26G12G05G25G02G30G21
 122678977.370 7  95594105.548 6  23345036.484                    23345044.684
 113673402.374 8  88576748.897 7  21631332.188                    21631339.938
 118335145.075 7  92209279.32544  22518427.766                    22518435.785
 117700158.283 7  91714468.562 7  22397597.016                    22397605.367
 109969812.016 8  85690890.162 7  20926534.750                    20926541.816
 114742085.965 8  89409517.877 7  21834699.234                    21834709.930
 116429061.662 7  90724109.44645  22155697.484                    22155703.422
 116169133.952 7  90521519.36645  22106268.727                    22106277.305
 131159117.699 5 102202104.55642  24958788.117                    24958799.008
 11  8 23  2 37 30.0000000  0  9G15G29G26G12G05G25G02G30G21
 122583359.347 7  95519598.042 6  23326840.406                    23326849.195
 113600965.011 8  88520304.223 7  21617548.156                    21617555.199
 118253490.090 7  92145652.09845  22502888.805                    22502897.594
 117784389.949 7  91780103.597 7  22413626.078                    22413634.238
 110026658.980 8  85735186.491 7  20937352.078                    20937358.996
 114778430.663 8  89437838.417 7  21841615.695                    21841626.176
 116472484.593 7  90757945.51045  22163960.813                    22163966.664
 116216281.749 7  90558257.91245  22115240.445                    22115248.734
 131103324.830 5                  24948172.219
 11  8 23  2 38  0.0000000  0  9G15G29G26G12G05G25G02G30G21
 122487803.052 7  95445138.646 6  23308656.766                    23308665.926
 113528741.951 8  88464026.538 7  21603804.336                    21603811.809
 118172146.312 7  92082267.39245  22487409.453                    22487418.203
 117868862.012 7  91845925.965 7  22429701.000                    22429708.453
 110083879.487 8  85779773.887 7  20948241.109                    20948247.855
 114815264.323 8  89466539.947 7  21848624.789                    21848634.789
 116515994.621 7  90791849.43445  22172240.367                    22172246.527
 116263882.597 7  90595349.45745  22124298.875                    22124306.859
 131047526.702 5                  24937554.813
 11  8 23  2 38 30.0000000  0  9G15G29G26G12G05G25G02G30G21
 122392311.461 7  95370729.669 6  23290484.859                    23290494.094
 113456735.615 8  88407917.729 7  21590102.344                    21590110.016
 118091117.210 7  92019127.87945  22471990.578                    22471998.961
 117953570.959 7  91911932.925 6  22445820.383                    22445827.332
 110141471.071 8  85824650.439 7  20959200.430                    20959207.043
 114852584.796 8  89495620.821 7  21855726.742                    21855737.008
 116559592.041 7  90825821.45845  22180536.625                    22180542.617
 116311933.721 7  90632791.90045  22133442.438                    22133450.500
 130991722.264 5                  24926935.031
 11  8 23  2 39  0.0000000  0  9G15G29G26G12G05G25G02G30G21
 122296888.052 7  95296373.817 6  23272326.508                    23272335.383
 113384948.579 8  88351979.804 7  21576441.023                    21576448.867
 118010406.902 7  91956236.77545  22456632.016                    22456640.074
 118038514.146 8  91978122.404 6  22461984.609                    22461991.914
 110199431.623 8  85869814.499 7  20970229.633                    20970236.656
 114890390.414 8  89525079.728 7  21862920.828                    21862930.777
 116603277.316 7  90859861.95045  22188849.484                    22188855.176
 116360432.989 7  90670583.51245  22142671.766                    22142679.996
 130935911.217 5                  24916314.414
 11  8 23  2 39 30.0000000  0  9G15G29G26G12G05G25G02G30G21
 122201535.625 7  95222073.283 6  23254181.789                    23254191.055
 113313382.686 8  88296214.195 7  21562822.508                    21562830.723
 117930018.846 7  91893596.78144  22441333.922                    22441342.254
 118123688.470 7  92044491.984 7  22478192.836                    22478200.277
 110257758.333 8  85915263.877 7  20981328.852                    20981336.422
 114928678.897 8  89554914.903 7  21870207.039                    21870216.695
 116647050.784 7  90893971.17245  22197179.078                    22197185.656
 116409377.603 7  90708722.15845  22151985.422                    22151993.465
 130880093.288 5                  24905692.539
 11  8 23  2 40  0.0000000  0  9G15G29G26G12G05G25G02G30G21
 122106258.219 7  95147831.204 6  23236051.352                    23236059.871
 113242041.774 8  88240623.910 7  21549247.094                    21549255.027
 117849957.447 7  91831211.30845  22426098.938                    22426107.480
 118209092.200 7  92111040.321 7  22494443.984                    22494452.434
 110316450.223 8  85960997.820 7  20992497.781                    20992504.906
 114967449.064 8  89585125.389 7  21877584.898                    21877594.832
 116690913.382 7  90928149.81345  22205526.109                    22205531.586
 116458765.841 7  90747206.46845  22161384.383                    22161391.813
 130824268.403 5                  24895068.719
 11  8 23  2 40 30.0000000  0  9G15G29G26G12G05G25G02G30G21
 122011058.244 7  95073649.445 6  23217934.781                    23217943.863
 113170927.463 8  88185210.201 7  21535714.586                    21535722.441
 117770225.738 7  91769082.73845  22410926.375                    22410935.059
 118294721.009 7  92177764.053 6  22510738.961                    22510746.746
 110375503.948 8  86007013.710 7  21003735.086                    21003742.340
 115006698.085 8  89615709.012 7  21885053.227                    21885064.063
 116734864.878 7  90962397.74545  22213889.781                    22213895.523
 116508594.336 7  90786033.84545  22170866.188                    22170874.496
 130768435.220 6                  24884444.383
 11  8 23  2 41  0.0000000  0  9G15G29G26G12G05G25G02G30G21
 121915938.585 7  94999530.285 6  23199833.859                    23199843.105
 113100041.998 8  88129974.796 7  21522225.203                    21522232.652
 117690827.504 7  91707214.02545  22395817.859                    22395826.113
 118380572.099 7  92244661.000 7  22527076.148                    22527083.711
 110434916.934 8  86053309.532 7  21015041.188                    21015047.984
 115046423.878 8  89646664.155 7  21892613.172                    21892623.367
 116778905.371 7  90996715.01545  22222270.195                    22222275.633
 116558860.519 7  90825202.27845  22180431.430                    22180440.176
 130712593.574 6                  24873819.023
 11  8 23  2 41 30.0000000  0  9G15G29G26G12G05G25G02G30G21
 121820902.013 7  94925475.868 6  23181749.859                    23181757.582
 113029387.335 8  88074919.230 7  21508780.414                    21508787.461
 117611766.146 7  91645607.82545  22380772.445                    22380780.914
 118466642.224 7  92311728.603 7  22543454.172                    22543462.355
 110494687.031 8  86099883.613 7  21026415.219                    21026422.043
 115086624.218 8  89677989.074 7  21900263.023                    21900273.152
 116823035.531 7  91031102.17445  22230668.453                    22230673.867
 116609561.715 7  90864709.67145  22190079.406                    22190087.641
 130656742.766 6                  24863189.742
 11  8 23  2 42  0.0000000  0  9G15G29G26G12G05G25G02G30G21
 121725951.685 7  94851488.656 6  23163680.352                    23163689.027
 112958966.316 8  88020045.736 7  21495379.000                    21495386.566
 117533045.267 7  91584266.92145  22365792.242                    22365800.313
 118552928.254 7  92378964.447 7  22559873.516                    22559882.395
 110554811.499 8  86146733.837 8  21037856.648                    21037863.559
 115127296.829 8  89709682.024 7  21908002.727                    21908012.988
 116867255.285 7  91065559.14245  22239083.172                    22239087.953
 116660695.071 7  90904553.82245  22199809.680                    22199817.422
 130600882.229 5                  24852560.102
 11  8 23  2 42 30.0000000  0  9G15G29G26G12G05G25G02G30G21
 121631091.110 7  94777571.374 6  23145629.609                    23145637.859
 112888781.110 8  87965355.987 7  21482024.031                    21482031.109
 117454668.609 7  91523194.21745  22350878.203                    22350885.574
 118639427.361 7  92446366.320 7  22576334.180                    22576342.379
 110615288.324 8  86193858.652 7  21049364.813                    21049371.484
 115168439.761 8  89741741.432 7  21915831.852                    21915841.738
 116911565.648 7  91100086.72645  22247514.539                    22247520.035
 116712258.106 7  90944732.78945  22209622.633                    22209629.867
 130545011.428 5                  24841928.305
 11  8 23  2 43  0.0000000  0  9G15G29G26G12G05G25G02G30G21
 121536322.820 7  94703726.002 6  23127595.695                    23127603.711
 112818833.824 8  87910851.621 7  21468712.859                    21468720.016
 117376639.811 7  91462392.58444  22336029.078                    22336037.379
 118726136.528 7  92513931.896 7  22592834.438                    22592842.234
 110676114.699 8  86241255.810 7  21060939.555                    21060946.090
 115210050.655 8  89774165.503 7  21923750.305                    21923760.172
 116955966.290 7  91134684.64745  22255963.703                    22255969.277
 116764248.045 7  90985244.41545  22219515.391                    22219523.867
 130489129.889 5                  24831293.266
 11  8 23  2 43 30.0000000  0  9G15G29G26G12G05G25G02G30G21
 121441650.272 7  94629955.230 6  23109580.008                    23109588.027
 112749127.157 8  87856534.770 7  21455448.102                    21455455.902
 117298962.583 7  91401864.92345  22321247.898                    22321256.000
 118813052.729 7  92581658.780 7  22609374.203                    22609382.340
 110737288.447 8  86288923.686 7  21072580.539                    21072587.406
 115252127.326 7  89806952.499 7  21931756.969                    21931767.422
 117000457.511 7  91169353.15945  22264430.250                    22264435.516
 116816662.133 7  91026086.52345  22229489.797                    22229497.508
 130433236.917 6                  24820659.156
 11  8 23  2 44  0.0000000  0  9G15G29G26G12G05G25G02G30G21
 121347076.182 7  94556261.210 6  23091583.188                    23091591.758
 112679663.325 8  87802407.143 7  21442229.523                    21442237.066
 117221640.270 7  91341613.81145  22306534.023                    22306541.949
 118900172.722 7  92649544.470 7  22625952.242                    22625960.195
 110798806.966 8  86336860.215 7  21084287.539                    21084294.121
 115294667.478 8  89840100.662 7  21939852.414                    21939862.328
 117045039.540 7  91204092.41445  22272913.914                    22272919.383
 116869497.735 7  91067257.09945  22239543.742                    22239552.199
 130377332.169 6 101592914.51952  24810019.422                    24810027.879
 11  8 23  2 44 30.0000000  0  9G15G29G26G12G05G25G02G30G21
 121252603.936 7  94482646.541 6  23073605.477                    23073614.203
 112610444.535 7  87748470.447 7  21429057.844                    21429065.332
 117144676.729 7  91281642.25345  22291888.508                    22291896.547
 118987493.185 7  92717586.364 7  22642568.883                    22642577.230
 110860667.861 8  86385063.529 7  21096059.031                    21096065.895
 115337668.882 8  89873608.251 7  21948034.938                    21948045.176
 117089712.975 7  91238902.90045  22281414.555                    22281420.871
 116922751.918 7  91108753.84545  22249677.852                    22249685.539
 130321414.801 6 101549342.71542  24799378.250                    24799387.656
 11  8 23  2 45  0.0000000  0  9G15G29G26G12G05G25G02G30G21
 121158236.250 7  94409113.364 6  23055647.906                    23055656.566
 112541473.439 8  87694726.774 7  21415932.672                    21415940.250
 117068075.146 7  91221952.73945  22277311.539                    22277319.668
 119075011.517 7  92785782.440 7  22659223.523                    22659231.250
 110922868.486 8  86433531.546 7  21107895.711                    21107902.324
 115381129.202 8  89907473.415 7  21956305.555                    21956316.316
 117134478.311 7  91273784.98545  22289933.273                    22289938.941
 116976422.051 7  91150574.70845  22259890.672                    22259899.258
 130265484.343 6 101505760.71042  24788735.180                    24788744.082
 11  8 23  2 45 30.0000000  0  9G15G29G26G12G05G25G02G30G21
 121063976.203 7  94335664.052 6  23037710.648                    23037718.824
 112472752.241 8  87641177.814 7  21402855.914                    21402862.906
 116991839.471 7  91162548.34645  22262804.695                    22262812.500
 119162724.199 7  92854129.966 7  22675914.445                    22675922.434
 110985406.391 8  86482262.377 7  21119796.039                    21119803.086
 115425046.118 8  89941694.378 7  21964662.953                    21964673.063
 117179335.543 7  91308738.67245  22298469.477                    22298474.582
 117030505.241 7  91192717.42445  22270182.492                    22270191.109
 130209540.282 6 101462168.00142  24778090.047                    24778098.766
 11  8 23  2 46  0.0000000  0  9G15G29G26G12G05G25G02G30G21
 120969827.562 7  94262301.543 6  23019795.320                    23019803.199
 112404283.493 8  87587825.559 7  21389827.211                    21389833.813
 116915973.409 7  91103431.96945  22248367.172                    22248375.438
 119250628.841 7  92922627.066 7  22692642.148                    22692650.551
 111048279.638 8  86531254.530 7  21131760.477                    21131767.246
 115469417.538 8  89976269.516 7  21973106.086                    21973116.195
 117224285.249 7  91343764.43545  22307023.516                    22307028.336
 117084998.976 7  91235180.04745  22280552.117                    22280561.195
 130153582.191 6 101418564.38442  24767441.172                    24767450.063
 11  8 23  2 46 30.0000000  0  9G15G29G26G12G05G25G02G30G21
 120875792.544 7  94189027.548 6  23001900.664                    23001908.188
 112336069.221 8  87534671.617 7  21376846.047                    21376853.152
 116840480.118 7  91044606.05545  22234001.672                    22234009.520
 119338721.653 7  92991270.775 7  22709405.484                    22709414.020
 111111485.192 8  86580505.600 7  21143788.148                    21143794.742
 115514240.768 8  90011196.700 7  21981635.633                    21981646.008
 117269327.492 7  91378862.30545  22315594.477                    22315599.656
 117139900.094 7  91277960.11745  22290999.805                    22291008.504
 130097609.448 6 101374949.39142  24756789.430                    24756799.086
 11  8 23  2 47  0.0000000  0  9G15G29G26G12G05G25G02G30G21
 120781874.578 7  94115844.771 6  22984028.359                    22984036.637
 112268112.021 8  87481717.990 7  21363914.078                    21363921.195
 116765363.296 7  90986073.50845  22219707.297                    22219715.391
 119426999.642 7  93060058.791 7  22726204.961                    22726212.656
 111175020.586 8  86630013.704 7  21155878.445                    21155885.910
 115559513.560 8  90046474.198 7  21990251.086                    21990260.563
 117314462.625 7  91414032.55545  22324183.500                    22324188.500
 117195205.826 7  91321055.47445  22301524.258                    22301532.590
 130041621.499 6 101331322.48642  24746135.320                    24746144.684
 11  8 23  2 47 30.0000000  0 10G15G29G18G26G12G05G25G02G30G21
 120688076.831 7  94042755.700 6  22966179.172                    22966187.785
 112200414.338 8  87428966.595 7  21351031.656                    21351039.113
 129753981.57216 101107056.41552  24691364.875                    24691376.098
 116690626.522 7  90927837.08245  22205485.156                    22205493.977
 119515460.056 7  93128988.946 7  22743038.016                    22743045.699
 111238883.824 8  86679777.295 7  21168030.875                    21168038.145
 115605233.645 8  90082100.234 7  21998951.422                    21998961.387
 117359691.226 7  91449275.62345  22332790.297                    22332795.234
 117250913.470 7  91364464.03045  22312124.914                    22312132.762
 129985617.886 6 101287683.46442  24735477.492                    24735487.195
 11  8 23  2 48  0.0000000  0 10G15G29G18G26G12G05G25G02G30G21
 120594402.051 7  93969762.413 6  22948353.539                    22948361.555
 112132978.398 8  87376419.144 7  21338199.063                    21338206.117
 129664451.089 6 101037292.63242  24674328.508                    24674338.922
 116616273.300 7  90869899.53545  22191336.289                    22191344.691
 119604099.580 7  93198058.667 7  22759906.000                    22759913.266
 111303072.084 8  86729794.125 7  21180245.273                    21180252.758
 115651398.489 8  90118072.842 7  22007736.047                    22007745.992
 117405013.361 7  91484591.58145  22341414.734                    22341419.871
 117307020.105 7  91408183.46745  22322801.797                    22322809.629
 129929597.973 6 101244031.72942  24724817.031                    24724825.969
 11  8 23  2 48 30.0000000  0 10G15G29G18G26G12G05G25G02G30G21
 120500853.066 7  93896867.154 6  22930551.672                    22930559.727
 112065805.788 8  87324076.892 7  21325416.617                    21325423.914
 129575084.114 6 100967656.24043  24657321.883                    24657332.234
 116542306.490 7  90812263.12045  22177260.898                    22177269.348
 119692914.393 7  93267264.988 6  22776806.742                    22776814.410
 111367582.234 8  86780061.774 7  21192521.789                    21192528.492
 115698005.058 8  90154389.647 7  22016604.891                    22016614.813
 117450428.923 7  91519980.33545  22350057.172                    22350062.406
 117363522.232 7  91452211.08245  22333553.813                    22333562.063
 129873560.541 6 101200366.27542  24714153.594                    24714162.676
 11  8 23  2 49  0.0000000  0 10G15G29G18G26G12G05G25G02G30G21
 120407433.459 7  93824072.718 6  22912774.438                    22912782.633
 111998899.872 8  87271942.443 7  21312684.922                    21312691.770
 129485882.431 6 100898148.63943  24640347.094                    24640357.379
 116468730.241 7  90754931.01245  22163259.547                    22163267.980
 119781902.113 7  93336606.048 7  22793740.805                    22793747.883
 111432412.418 8  86830578.806 7  21204857.852                    21204865.297
 115745051.589 8  90191049.290 7  22025557.648                    22025566.992
 117495938.990 8  91555442.72845  22358717.359                    22358722.918
 117420417.525 7  91496545.05345  22344380.563                    22344388.773
 129817505.835 6 101156687.39242  24703487.203                    24703495.754
 11  8 23  2 49 30.0000000  0 10G15G29G18G26G12G05G25G02G30G21
 120314146.596 7  93751381.706 6  22895022.617                    22895030.578
 111932263.021 8  87220017.678 7  21300003.945                    21300011.727
 129396847.686 6 100828771.05743  24623404.023                    24623414.828
 116395548.458 7  90697906.30745  22149333.492                    22149341.609
 119871060.236 7  93406079.875 7  22810706.984                    22810714.543
 111497560.632 8  86881343.647 7  21217255.570                    21217262.879
 115792535.957 7  90228050.108 7  22034593.547                    22034603.387
 117541544.082 7  91590979.17345  22367395.570                    22367400.934
 117477703.545 7  91541183.49545  22355281.641                    22355289.789
 129761433.538 6 101112994.77143  24692816.961                    24692825.629
 11  8 23  2 50  0.0000000  0 10G15G29G18G26G12G05G25G02G30G21
 120220995.284 7  93678796.314 6  22877297.305                    22877304.652
 111865897.746 8  87168304.527 7  21287374.633                    21287382.168
 129307980.933 6 100759524.44743  24606493.219                    24606504.051
 116322764.500 7  90641191.59645  22135482.852                    22135491.457
 119960385.203 7  93475683.715 7  22827704.875                    22827713.086
 111563024.072 8  86932354.142 7  21229713.047                    21229719.957
 115840455.578 8  90265390.081 7  22043712.539                    22043722.336
 117587244.448 7  91626589.84645  22376092.109                    22376097.332
 117535377.263 7  91586124.03545  22366256.930                    22366265.184
 129705343.102 6 101069288.06543  24682143.523                    24682151.887
 11  8 23  2 50 30.0000000  0 10G15G29G18G26G12G05G25G02G30G21
 120127982.692 7  93606319.011 6  22859596.898                    22859604.434
 111799806.085 8  87116804.581 7  21274798.211                    21274805.441
 129219283.673 6 100690409.93943  24589615.047                    24589625.086
 116250381.629 7  90584789.41145  22121709.273                    22121718.020
 120049873.853 7  93545415.092 7  22844734.070                    22844741.938
 111628800.213 8  86983608.286 7  21242229.586                    21242236.828
 115888807.846 8  90303067.171 7  22052913.281                    22052923.262
 117633040.229 7  91662274.85845  22384807.281                    22384811.363
 117593435.624 7  91631364.30045  22377304.586                    22377313.055
 129649233.907 6 101025566.70143  24671466.352                    24671474.242
 11  8 23  2 51  0.0000000  0 10G15G29G18G26G12G05G25G02G30G21
 120035112.055 7  93533952.322 6  22841924.484                    22841931.801
 111733990.779 8  87065519.962 7  21262273.859                    21262281.258
 129130757.632 6 100621428.87942  24572769.508                    24572778.934
 116178403.820 7  90528702.86245  22108012.375                    22108020.172
 120139523.540 7  93615271.951 7  22861793.445                    22861801.664
 111694887.174 8  87035104.623 7  21254805.773                    21254812.223
 115937590.565 8  90341079.680 7  22062196.617                    22062206.664
 117678931.804 7  91698034.54045  22393539.984                    22393544.902
 117651875.911 7  91676902.16345  22388426.164                    22388434.555
 129593105.532 6 100981830.40443  24660784.219                    24660793.551
 11  8 23  2 51 30.0000000  0 10G15G29G18G26G12G05G25G02G30G21
 119942385.975 6  93461698.302 6  22824279.109                    22824286.551
 111668453.657 8  87014452.121 7  21249802.508                    21249809.602
 129042403.472 6 100552581.68742  24555954.523                    24555964.230
 116106833.798 7  90472934.07945  22094392.727                    22094401.277
 120229330.785 7  93685251.602 7  22878883.422                    22878891.918
 111761281.869 8  87086840.753 7  21267439.711                    21267446.965
 115986800.753 8  90379425.281 7  22071561.156                    22071571.211
 117724919.872 7  91733869.38645  22402291.227                    22402296.199
 117710694.879 7  91722735.09545  22399618.484                    22399627.070
 129536957.073 6 100938078.48243  24650100.141                    24650108.824
 11  8 23  2 52  0.0000000  0 10G15G29G18G26G12G05G25G02G30G21
 119849808.188 7  93389559.822 6  22806661.945                    22806670.258
 111603197.428 8  86963603.154 7  21237384.570                    21237391.777
 128954222.173 6 100483869.22342  24539174.828                    24539183.688
 116035675.546 7  90417486.13945  22080851.719                    22080860.402
 120319292.618 7  93755351.717 7  22896002.922                    22896010.703
 111827981.549 8  87138814.537 7  21280132.617                    21280139.387
 116036436.066 8  90418102.154 7  22081006.180                    22081016.234
 117771004.539 7  91769779.50645  22411060.531                    22411065.875
 117769889.652 7  91768860.87245  22410882.602                    22410891.125
 129480788.504 6 100894310.88443  24639411.422                    24639420.391
 11  8 23  2 52 30.0000000  0 10G15G29G18G26G12G05G25G02G30G21
 119757381.721 7  93317539.268 7  22789073.469                    22789082.098
 111538224.510 8  86912974.949 7  21225020.180                    21225027.477
 128866215.366 6 100415292.66642  24522426.508                    24522436.848
 115964932.739 7  90362361.94345  22067389.672                    22067397.914
 120409405.982 7  93825569.903 7  22913150.453                    22913158.691
 111894984.270 8  87191024.457 7  21292882.414                    21292889.945
 116086494.239 8  90457108.539 7  22090531.922                    22090541.957
 117817186.605 7  91805765.52545  22419848.828                    22419854.477
 117829457.577 7  91815277.44345  22422218.219                    22422225.813
 129424599.054 6 100850526.99043  24628719.047                    24628727.078
 11  8 23  2 53  0.0000000  0 10G15G29G18G26G12G05G25G02G30G21
 119665109.446 7  93245638.859 6  22771514.703                    22771523.078
 111473537.242 8  86862569.342 7  21212710.938                    21212717.969
 128778384.466 6 100346853.21042  24505712.797                    24505723.355
 115894608.399 7  90307563.80545  22054007.328                    22054015.633
 120499667.659 7  93895903.643 7  22930326.430                    22930334.922
 111962287.295 8  87243468.386 7  21305689.984                    21305697.043
 116136972.447 8  90496442.220 7  22100137.422                    22100148.203
 117863466.107 7  91841827.44345  22428655.500                    22428660.520
 117889395.466 7  91861982.30544  22433623.477                    22433632.234
 129368388.246 6 100806726.48743  24618022.531                    24618030.977
 11  8 23  2 53 30.0000000  0 10G15G29G18G26G12G05G25G02G30G21
 119572994.592 7  93173861.101 7  22753986.078                    22753993.949
 111409138.110 8  86812388.239 7  21200456.500                    21200463.262
 128690730.585 6 100278551.68943  24489032.664                    24489043.348
 115824706.185 7  90253094.60245  22040705.586                    22040713.391
 120590074.800 7  93966350.731 7  22947530.703                    22947538.766
 112029888.285 8  87296144.494 7  21318554.133                    21318561.332
 116187868.299 8  90536101.334 7  22109822.719                    22109833.023
 117909843.439 7  91877965.60745  22437480.539                    22437486.359
 117949700.523 7  91908973.26245  22445099.445                    22445107.770
 129312155.947 6 100762909.15943  24607322.477                    24607330.902
 11  8 23  2 54  0.0000000  0 10G15G29G18G26G12G05G25G02G30G21
 119481040.083 7  93102208.302 7  22736487.383                    22736495.848
 111345028.991 8  86762433.130 7  21188256.672                    21188263.813
 128603254.997 6 100210389.12243  24472386.602                    24472397.336
 115755229.256 7  90198956.80445  22027484.602                    22027492.914
 120680624.138 7  94036908.618 6  22964761.789                    22964769.473
 112097784.733 8  87349050.833 7  21331474.180                    21331481.531
 116239178.990 8  90576083.701 7  22119587.156                    22119597.301
 117956318.812 7  91914180.16145  22446324.141                    22446329.840
 118010369.491 7  91956247.76445  22456644.906                    22456652.328
 129255901.266 6 100719074.47943  24596616.703                    24596625.719
 11  8 23  2 54 30.0000000  0 10G15G29G18G26G12G05G25G02G30G21
 119389249.264 7  93030683.053 7  22719019.828                    22719028.301
 111281212.760 7  86712706.239 7  21176112.383                    21176120.262
 128515959.220 6 100142366.65343  24455775.695                    24455784.770
 115686181.338 7  90145153.31445  22014345.203                    22014353.223
 120771312.875 7  94107575.133 6  22982019.172                    22982026.891
 112165974.470 8  87402185.712 7  21344450.148                    21344457.320
 116290902.227 8  90616387.510 7  22129429.297                    22129439.637
 118002892.783 7  91950471.57145  22455186.922                    22455192.094
 118071399.730 7  92003803.78145  22468258.203                    22468266.492
 129199623.792 6 100675222.00643  24585906.383                    24585915.883
 11  8 23  2 55  0.0000000  0 10G15G29G18G26G12G05G25G02G30G21
 119297625.387 7  92959287.895 7  22701584.914                    22701593.121
 111217691.921 7  86663209.531 7  21164024.906                    21164032.223
 128428844.018 6 100074484.88143  24439198.102                    24439207.145
 115617565.789 7  90091686.70845  22001287.969                    22001295.805
 120862137.675 7  94178347.684 6  22999302.883                    22999310.363
 112234454.801 8  87455547.019 7  21357482.047                    21357488.660
 116343035.382 8  90657010.741 7  22139350.141                    22139360.246
 118049566.161 7  91986840.43645  22464068.656                    22464073.887
 118132788.197 7  92051638.93645  22479940.352                    22479948.539
 129143323.038 6 100631351.42843  24575193.773                    24575202.180
 11  8 23  2 55 30.0000000  0 10G15G29G18G26G12G05G25G02G30G21
 119206171.186 7  92888024.946 7  22684181.633                    22684189.367
 111154468.492 7  86613944.562 7  21151994.055                    21152001.309
 128341910.676 6 100006744.83043  24422654.680                    24422664.449
 115549385.778 7  90038559.48445  21988313.984                    21988321.813
 120953095.475 7  94249223.864 6  23016612.133                    23016619.684
 112303222.736 8  87509132.426 7  21370567.836                    21370574.965
 116395575.486 8  90697951.087 7  22149348.188                    22149358.406
 118096338.882 7  92023286.69444  22472969.461                    22472975.180
 118194531.563 7  92099750.64845  22491689.602                    22491698.070
 129086998.394 6 100587462.25243  24564474.938                    24564483.684
 11  8 23  2 56  0.0000000  0 10G15G29G18G26G12G05G25G02G30G21
 119114890.058 7  92816896.853 7  22666811.469                    22666819.746
 111091545.582 8  86564913.766 7  21140019.898                    21140026.941
 128255160.565 6  99939147.59643  24406146.602                    24406155.719
 115481645.066 7  89985774.57245  21975422.875                    21975430.684
 121044183.473 7  94320201.494 6  23033945.461                    23033953.066
 112372276.364 8  87562940.451 7  21383708.734                    21383715.316
 116448520.308 8  90739206.776 7  22159422.656                    22159433.266
 118143211.516 7  92059810.81845  22481889.320                    22481894.844
 118256627.123 7  92148136.79045  22503506.188                    22503514.484
 129030649.878 6 100543554.39543  24553752.742                    24553761.613
 11  8 23  2 56 30.0000000  0 10G15G29G18G26G12G05G25G02G30G21
 119023784.736 7  92745905.729 7  22649474.867                    22649482.348
 111028924.460 8  86516118.116 7  21128103.813                    21128110.664
 128168594.673 6  99871693.90543  24389672.078                    24389683.016
 115414346.827 7  89933334.44245  21962616.383                    21962624.555
 121135398.367 7  94391277.998 6  23051302.695                    23051310.629
 112441613.040 8  87616969.047 7  21396902.547                    21396909.699
 116501866.865 8  90780775.508 7  22169574.617                    22169584.789
 118190184.357 7  92096413.02645  22490827.773                    22490833.391
 118319071.570 7  92196794.79945  22515388.703                    22515396.906
 128974276.400 6 100499627.13443  24543025.555                    24543033.379
 11  8 23  2 57  0.0000000  0 10G15G29G18G26G12G05G25G02G30G21
 118932858.659 7  92675054.282 7  22632171.672                    22632179.648
 110966607.965 8  86467559.837 7  21116245.445                    21116252.418
 128082214.386 6  99804384.77743  24373235.117                    24373244.902
 115347494.346 7  89881241.64345  21949895.148                    21949902.758
 121226736.949 7  94462450.884 6  23068683.781                    23068691.625
 112511230.470 8  87671216.412 7  21410150.414                    21410157.336
 116555612.745 8  90822655.399 7  22179802.234                    22179812.191
 118237257.826 7  92133093.65145  22499785.719                    22499790.605
 118381862.085 7  92245722.47445  22527337.766                    22527346.063
 128917877.820 6 100455680.28243  24532292.383                    24532300.762
 11  8 23  2 57 30.0000000  0 10G15G29G18G26G12G05G25G02G30G21
 118842115.180 7  92604345.118 7  22614903.500                    22614911.762
 110904599.043 7  86419241.222 7  21104445.234                    21104452.379
 127996021.057 6  99737221.35043  24356833.188                    24356842.332
 115281091.325 7  89829499.08945  21937258.813                    21937267.086
 121318196.856 7  94533718.319 6  23086088.555                    23086095.879
 112581126.409 8  87725680.796 7  21423451.234                    21423458.063
 116609755.576 8  90864844.609 7  22190105.547                    22190115.434
 118284432.587 7  92169853.20145  22508762.453                    22508767.863
 118444996.033 7  92294917.75645  22539351.867                    22539359.922
 128861454.041 6 100411713.79643  24521555.211                    24521563.309
 11  8 23  2 58  0.0000000  0 10G15G29G18G26G12G05G25G02G30G21
 118751557.073 7  92533780.410 7  22597670.992                    22597679.078
 110842899.238 8  86371163.475 7  21092704.586                    21092711.090
 127910015.124 6  99670203.93743  24340466.383                    24340476.242
 115215140.512 7  89778108.89545  21924708.781                    21924716.621
 121409774.413 7  94605077.413 6  23103514.406                    23103522.477
 112651297.692 8  87780359.741 7  21436804.242                    21436811.152
 116664292.065 8  90907340.550 7  22200483.250                    22200493.582
 118331708.830 7  92206691.83245  22517758.953                    22517764.164
 118508469.729 7  92344377.77445  22551430.031                    22551438.176
 128805004.107 6 100367726.94343  24510813.148                    24510820.930
 11  8 23  2 58 30.0000000  0 10G15G29G18G26G12G05G25G02G30G21
 118661187.250 7  92463362.411 7  22580474.352                    22580482.465
 110781510.927 8  86323328.434 7  21081022.570                    21081029.738
 127824198.089 6  99603333.70543  24324136.102                    24324145.539
 115149645.284 8  89727073.70245  21912245.539                    21912252.855
 121501466.276 7  94676525.573 6  23120962.969                    23120971.059
 112721741.411 8  87835250.969 7  21450209.211                    21450215.781
 116719219.482 8  90950141.112 7  22210935.398                    22210945.938
 118379086.744 7  92243609.68145  22526774.953                    22526779.723
 118572280.000 7  92394100.04545  22563572.773                    22563581.070
 128748527.517 6 100323719.34443  24500066.391                    24500074.246
 11  8 23  2 59  0.0000000  0 10G15G29G18G26G12G05G25G02G30G21
 118571009.110 7  92393093.768 7  22563313.695                    22563321.699
 110720437.037 8  86275738.417 7  21069400.539                    21069407.793
 127738571.405 6  99536611.78643  24307841.703                    24307851.340
 115084609.266 8  89676396.33545  21899869.352                    21899877.184
 121593270.014 7  94748060.908 6  23138432.555                    23138441.180
 112792456.188 8  87890353.403 7  21463665.703                    21463672.816
 116774535.484 8  90993244.479 7  22221462.078                    22221472.184
 118426567.067 7  92280607.33945  22535810.297                    22535815.191
 118636424.234 7  92444082.54345  22575779.320                    22575787.047
 128692023.896 6 100279690.66143  24489313.492                    24489322.242
 11  8 23  2 59 30.0000000  0 10G15G29G18G26G12G05G25G02G30G21
 118481025.754 7  92322976.908 7  22546190.539                    22546198.590
 110659679.528 8  86228394.911 7  21057838.617                    21057845.727
 127653136.487 6  99470039.31843  24291583.352                    24291592.953
 115020035.911 7  89626079.48245  21887581.344                    21887589.770
 121685182.425 7  94819680.921 6  23155923.148                    23155931.172
 112863439.173 8  87945664.838 7  21477173.492                    21477180.254
 116830237.302 8  91036648.469 7  22232061.367                    22232071.805
 118474150.091 8  92317685.01945  22544864.898                    22544870.328
 118700899.278 7  92494322.82245  22588048.664                    22588056.129
 128635492.532 7 100235640.37043  24478555.703                    24478564.371
 11  8 23  3  0  0.0000000  0 10G15G29G18G26G12G05G25G02G30G21
 118391240.433 7  92253014.370 7  22529105.172                    22529113.184
 110599241.247 7  86181300.168 7  21046337.938                    21046344.883
 127567894.120 6  99403616.82843  24275362.664                    24275371.973
 114955928.288 7  89576125.54845  21875381.641                    21875390.273
 121777200.617 7  94891383.381 6  23173433.594                    23173441.871
 112934688.072 8  88001183.485 7  21490731.469                    21490738.410
 116886322.341 7  91080351.077 7  22242734.258                    22242744.543
 118521836.478 7  92354843.23345  22553938.922                    22553944.531
 118765702.225 7  92544818.60445  22600379.711                    22600388.129
 128578933.608 6 100191568.60243  24467793.102                    24467801.141
 11  8 23  3  0 30.0000000  0 10G15G29G18G26G12G05G25G02G30G21
 118301655.950 7  92183208.329 7  22512057.820                    22512065.617
 110539123.931 8  86134455.526 7  21034897.766                    21034904.867
 127482845.026 6  99337344.95043  24259177.727                    24259187.301
 114892289.423 7  89526536.85545  21863272.172                    21863280.152
 121869320.909 6  94963165.393 6  23190963.359                    23190972.145
 113006200.241 8  88056907.279 7  21504339.695                    21504346.664
 116942787.432 7  91124349.820 7  22253479.172                    22253489.914
 118569626.427 7  92392082.14645  22563033.445                    22563038.691
 118830829.509 7  92595567.11345  22612773.008                    22612781.535
 128522346.273 6 100147474.68543  24457024.883                    24457032.086
 11  8 23  3  1  0.0000000  0 10G15G29G18G26G12G05G25G02G30G21
 118212275.901 7  92113561.585 7  22495048.906                    22495057.270
 110479330.783 8  86087863.476 7  21023519.586                    21023526.223
 127397991.109 6  99271225.12643  24243031.227                    24243039.695
 114829123.254 7  89477316.49045  21851252.195                    21851259.527
 121961540.934 7  95035025.110 6  23208512.430                    23208521.223
 113077973.689 8  88112834.655 7  21517997.789                    21518004.305
 116999630.435 7  91168643.035 7  22264296.063                    22264305.801
 118617520.695 7  92429402.32945  22572147.359                    22572152.738
 118896278.669 7  92646566.42945  22625227.961                    22625236.109
 128465730.310 6 100103358.46643  24446251.430                    24446258.930
 11  8 23  3  1 30.0000000  0 10G15G29G18G26G12G05G25G02G30G21
 118123103.503 7  92044076.657 7  22478080.086                    22478088.344
 110419863.861 7  86041525.617 7  21012203.117                    21012210.594
 127313333.254 6  99205258.10243  24226919.664                    24226929.938
 114766432.662 7  89428466.70445  21839322.031                    21839329.840
 122053857.485 6  95106960.057 6  23226078.664                    23226088.371
 113150005.648 8  88168963.478 7  21531705.313                    21531711.797
 117056848.409 7  91213228.447 7  22275184.625                    22275193.961
 118665519.466 7  92466803.93445  22581280.523                    22581287.004
 118962046.474 7  92697814.02945  22637743.141                    22637751.375
 128409085.435 6 100059219.70343  24435471.836                    24435480.090
 11  8 23  3  2  0.0000000  0 10G15G29G18G26G12G05G25G02G30G21
 118034141.363 7  91974755.557 7  22461151.219                    22461159.430
 110360725.511 7  85995443.806 7  21000949.391                    21000956.582
 127228872.609 6  99139444.74643  24210848.938                    24210857.289
 114704220.717 7  89379989.90145  21827483.602                    21827491.285
 122146267.767 7  95178968.020 6  23243664.750                    23243673.152
 113222293.514 8  88225291.708 7  21545461.008                    21545467.652
 117114438.501 7  91258103.834 7  22286143.688                    22286153.320
 118713623.294 7  92504287.41445  22590434.766                    22590440.629
 119028129.685 7  92749307.43245  22650318.195                    22650326.414
 128352410.980 6 100015057.92443  24424686.828                    24424695.594
 11  8 23  3  2 30.0000000  0 10G15G29G18G26G12G05G25G02G30G21
 117945392.591 7  91905600.727 7  22444262.641                    22444270.629
 110301917.666 8  85949619.532 7  20989758.859                    20989766.332
 127144609.648 6  99073785.42243  24194812.922                    24194822.711
 114642490.802 7  89331888.69045  21815736.875                    21815744.176
 122238768.092 7  95251046.154 6  23261267.008                    23261275.859
 113294834.777 8  88281817.388 7  21559265.383                    21559271.813
 117172397.582 7  91303266.734 7  22297172.656                    22297182.535
 118761832.684 7  92541853.12545  22599608.727                    22599614.629
 119094524.906 7  92801043.93445  22662952.539                    22662961.309
 128295706.259 6  99970872.55743  24413896.438                    24413904.527
 11  8 23  3  3  0.0000000  0 10G15G29G18G26G12G05G25G02G30G21
 117856860.349 7  91836614.608 7  22427415.672                    22427423.172
 110243442.945 7  85904054.825 7  20978631.445                    20978638.785
 127060545.863 6  99008281.26943  24178817.008                    24178825.848
 114581245.945 7  89284165.44745  21804082.313                    21804090.133
 122331355.757 7  95323192.349 6  23278886.055                    23278894.063
 113367627.002 8  88338538.627 7  21573117.078                    21573123.598
 117230723.157 7  91348715.216 7  22308271.805                    22308281.500
 118810147.779 7  92579501.22145  22608803.094                    22608808.977
 119161229.294 7  92853021.34844  22675646.266                    22675654.371
 128238971.075 6  99926663.42143  24403100.008                    24403107.266
 11  8 23  3  3 30.0000000  0 10G15G29G18G26G12G05G25G02G30G21
 117768548.152 7  91767799.946 7  22410610.250                    22410618.168
 110185303.690 7  85858751.513 7  20967568.078                    20967575.227
 126976682.516 6  98942933.33043  24162858.578                    24162867.543
 114520489.395 7  89236822.71745  21792520.789                    21792528.473
 122424027.949 7  95395404.401 6  23296521.422                    23296528.859
 113440667.512 8  88395453.325 7  21587016.359                    21587023.008
 117289412.364 7  91394447.048 7  22319439.828                    22319449.629
 118858569.146 7  92617232.12945  22618017.320                    22618022.828
 119228239.678 7  92905237.21844  22688397.133                    22688405.840
 128182204.959 6  99882430.19343  24392297.383                    24392305.398
 11  8 23  3  4  0.0000000  0 10G15G29G18G26G12G05G25G02G30G21
 117680458.827 7  91699158.968 7  22393847.922                    22393855.164
 110127502.381 8  85813711.589 7  20956568.797                    20956575.859
 126893020.510 6  98877742.27443  24146938.078                    24146946.691
 114460224.227 7  89189862.86645  21781052.813                    21781060.672
 122516781.340 7  95467679.717 6  23314171.344                    23314179.676
 113513954.296 8  88452559.930 7  21600962.023                    21600968.801
 117348462.453 7  91440460.076 7  22330676.773                    22330686.777
 118907097.352 7  92655046.28845  22627251.461                    22627257.160
 119295553.002 7  92957689.13244  22701207.023                    22701215.355
 128125407.301 6  99838172.40343  24381489.359                    24381496.836
 11  8 23  3  4 30.0000000  0 10G15G29G18G26G12G05G25G02G30G21
 117592595.450 7  91630694.045 6  22377127.563                    22377135.152
 110070041.482 8  85768936.887 7  20945634.000                    20945641.211
 126809561.195 6  98812709.15643  24131056.070                    24131064.961
 114400453.856 7  89143288.59945  21769678.672                    21769686.211
 122609613.232 7  95540016.213 6  23331836.648                    23331845.156
 113587484.974 8  88509856.578 7  21614954.711                    21614961.535
 117407870.515 7  91486752.051 7  22341982.055                    22341992.477
 118955732.859 7  92692944.04844  22636506.617                    22636512.684
 119363166.062 7  93010374.62245  22714073.969                    22714082.117
 128068577.962 6  99793889.92643  24370674.773                    24370682.523
 11  8 23  3  5  0.0000000  0 10G15G29G18G26G12G05G25G02G30G21
 117504961.004 7  91562407.519 7  22360451.102                    22360458.590
 110012922.959 7  85724428.970 7  20934764.867                    20934772.191
 126726305.040 6  98747834.37343  24115211.938                    24115221.711
 114341181.069 7  89097102.04545  21758399.641                    21758407.137
 122702520.367 7  95612411.341 6  23349516.430                    23349524.730
 113661256.580 8  88567340.951 7  21628993.219                    21628999.770
 117467633.652 7  91533320.695 7  22353354.219                    22353364.980
 119004475.958 7  92730925.66545  22645782.133                    22645787.727
 119431075.595 7  93063291.11044  22726996.234                    22727004.891
 128011716.651 6  99749582.48443  24359853.766                    24359862.203
 11  8 23  3  5 30.0000000  0 10G15G29G18G26G12G05G25G02G30G21
 117417559.468 7  91494302.467 7  22343819.320                    22343826.926
 109956149.790 7  85680190.179 7  20923961.289                    20923968.574
 126643253.969 6  98683119.38643  24099407.844                    24099417.570
 114282409.852 7  89051306.33545  21747215.406                    21747223.684
 122795500.091 7  95684863.040 6  23367209.914                    23367218.355
 113735267.540 8  88625011.838 7  21643076.563                    21643083.434
 117527749.476 7  91580164.161 7  22364794.242                    22364804.531
 119053327.391 7  92768991.67344  22655078.500                    22655084.195
 119499279.097 7  93116436.66745  22739975.125                    22739983.762
 127954823.270 6  99705250.11243  24349027.867                    24349035.059
 11  8 23  3  6  0.0000000  0 10G15G29G18G26G12G05G25G02G30G21
 117330393.217 7  91426380.755 7  22327231.500                    22327239.605
 109899723.815 8  85636221.920 7  20913223.664                    20913231.078
 126560408.502 6  98618564.61343  24083643.008                    24083652.043
 114224142.604 7  89005903.31645  21736127.273                    21736135.578
 122888549.268 7  95757368.859 6  23384916.445                    23384925.121
 113809515.060 8  88682867.065 7  21657205.281                    21657212.359
 117588214.837 7  91627280.012 7  22376300.242                    22376310.840
 119102287.498 7  92807142.36744  22664395.688                    22664400.773
 119567773.006 7  93169808.52644  22753008.719                    22753017.234
 127897896.917 6  99660892.01643  24338195.305                    24338202.480
 11  8 23  3  6 30.0000000  0 10G15G29G18G26G12G05G25G02G30G21
 117243465.420 7  91358644.865 7  22310690.352                    22310697.793
 109843647.548 7  85592526.143 7  20902552.828                    20902559.891
 126477769.682 6  98554170.89343  24067917.719                    24067926.063
 114166382.523 7  88960895.49945  21725136.063                    21725143.391
 122981664.805 7  95829926.364 6  23402636.344                    23402644.906
 113883996.598 8  88740904.659 7  21671378.656                    21671385.422
 117649026.977 7  91674666.070 7  22387872.625                    22387882.535
 119151356.704 7  92845378.10144  22673733.422                    22673738.602
 119636554.278 7  93223404.30044  22766097.891                    22766106.305
 127840937.520 6  99616508.16343  24327355.734                    24327363.590
 11  8 23  3  7  0.0000000  0 10G15G29G18G26G12G05G25G02G30G21
 117156779.404 7  91291097.372 7  22294194.391                    22294202.340
 109787923.418 8  85549104.762 7  20891948.969                    20891956.027
 126395338.709 6  98489939.05743  24052231.266                    24052240.715
 114109132.667 7  88916285.25245  21714241.484                    21714249.961
 123074843.739 7  95902533.285 6  23420367.656                    23420375.680
 113958709.667 8  88799122.658 7  21685595.680                    21685602.941
 117710182.910 7  91722320.019 7  22399510.023                    22399520.129
 119200535.455 7  92883699.20545  22683091.617                    22683097.359
 119705619.647 7  93277221.45044  22779240.617                    22779249.238
 127783944.523 6  99572098.11943  24316510.992                    24316518.113
 11  8 23  3  7 30.0000000  0 10G15G29G18G26G12G05G25G02G30G21
 117070337.731 7  91223740.271 7  22277745.281                    22277753.309
 109732553.447 8  85505959.356 7  20881412.070                    20881418.914
 126313116.302 6  98425869.77543  24036584.906                    24036593.754
 114052395.997 7  88872074.89345  21703445.320                    21703453.641
 123168083.009 7  95975187.208 6  23438110.297                    23438118.336
 114033651.633 8  88857519.022 7  21699857.070                    21699864.258
 117771679.523 7  91770239.423 7  22411212.570                    22411222.594
 119249824.072 7  92922105.91044  22692471.328                    22692476.141
 119774965.712 7  93331257.30944  22792436.898                    22792445.152
 127726917.523 6  99527661.59443  24305658.359                    24305665.832
 11  8 23  3  8  0.0000000  0 10G15G29G18G26G12G05G25G02G30G21
 116984143.480 7  91156575.944 7  22261343.023                    22261350.699
 109677539.592 8  85463091.448 7  20870943.508                    20870950.121
 126231103.135 6  98361963.55443  24020978.023                    24020987.230
 113996175.187 7  88828266.47945  21692747.063                    21692754.410
 123261379.377 6  96047885.621 6  23455864.039                    23455872.625
 114108820.185 8  88916091.930 7  21714161.453                    21714168.020
 117833513.721 7  91818421.875 7  22422979.039                    22422989.383
 119299223.035 7  92960598.60345  22701871.203                    22701876.688
 119844589.137 7  93385509.31944  22805685.625                    22805693.973
 127669855.881 6  99483198.09343  24294799.906                    24294807.492
 11  8 23  3  8 30.0000000  0 10G15G29G18G26G12G05G25G02G30G21
 116898200.495 7  91089607.427 7  22244988.688                    22244996.184
 109622884.770 8  85420503.280 7  20860542.891                    20860549.625
 126149300.681 6  98298221.48143  24005412.289                    24005420.813
 113940473.761 7  88784862.78445  21682146.703                    21682154.762
 123354730.048 7  96120626.360 6  23473628.250                    23473636.512
 114184213.311 8  88974839.827 7  21728508.508                    21728514.875
 117895683.208 8  91866865.598 7  22434810.023                    22434819.641
 119348733.102 7  92999177.87045  22711291.945                    22711298.480
 119914487.293 7  93439975.40444  22818986.367                    22818994.742
 127612759.764 6  99438707.68943  24283935.031                    24283942.195
 11  8 23  3  9  0.0000000  0 10G15G29G18G26G12G05G25G02G30G21
 116812511.804 7  91022837.055 7  22228682.047                    22228689.906
 109568591.557 8  85378196.902 7  20850211.711                    20850217.992
 126067710.241 6  98234644.61743  23989885.203                    23989894.293
 113885294.877 7  88741866.27245  21671647.047                    21671654.980
 123448132.522 6  96193407.490 6  23491402.172                    23491410.121
 114259828.462 8  89033760.724 7  21742897.375                    21742903.988
 117958185.135 7  91915568.366 7  22446703.742                    22446713.887
 119398354.687 7  93037844.00345  22720735.305                    22720741.316
 119984657.095 7  93494653.14644  22832339.242                    22832347.434
 127555628.830 6  99394190.17543  24273063.063                    24273070.895
 11  8 23  3  9 30.0000000  0 10G15G29G18G26G12G05G25G02G30G21
 116727080.097 7  90956266.920 7  22212424.813                    22212432.273
 109514661.753 8  85336173.694 7  20839948.547                    20839955.672
 125986332.361 6  98171233.39643  23974399.688                    23974408.293
 113830641.272 7  88699279.07445  21661246.773                    21661254.422
 123541583.385 6  96266226.305 6  23509185.102                    23509193.238
 114335663.120 8  89092852.672 7  21757328.344                    21757334.742
 118021016.127 7  91964527.558 7  22458659.734                    22458670.016
 119448088.105 7  93076597.29645  22730199.664                    22730205.633
 120055095.053 7  93549539.82644  22845743.109                    22845751.648
 127498462.194 6  99349644.85043  24262184.445                    24262191.742
 11  8 23  3 10  0.0000000  0 10G15G29G18G26G12G05G25G02G30G21
 116641908.478 7  90889899.480 7  22196217.695                    22196225.031
 109461097.748 8  85294435.523 7  20829755.859                    20829762.582
 125905168.242 6  98107988.74243  23958954.852                    23958963.254
 113776515.832 7  88657103.41845  21650946.984                    21650954.246
 123635079.576 7  96339080.438 6  23526976.789                    23526985.164
 114411714.788 8  89152113.717 7  21771800.430                    21771806.801
 118084173.436 7  92013741.029 7  22470678.266                    22470687.934
 119497933.886 7  93115438.14045  22739684.977                    22739690.914
 120125797.979 7  93604632.98544  22859197.953                    22859206.258
 127441259.791 6  99305071.63343  24251299.461                    24251307.055
 11  8 23  3 10 30.0000000  0 10G15G29G18G26G12G05G25G02G30G21
 116557000.571 7  90823737.533 7  22180059.805                    22180067.688
 109407902.352 8  85252984.576 7  20819632.906                    20819640.105
 125824218.906 6  98044911.48743  23943550.383                    23943559.020
 113722921.793 7  88615341.84745  21640748.594                    21640756.195
 123728618.598 6  96411967.945 6  23544776.492                    23544785.340
 114487981.442 8  89211542.279 7  21786313.336                    21786319.988
 118147654.440 7  92063206.727 7  22482758.016                    22482768.836
 119547892.661 7  93154367.02945  22749191.938                    22749197.344
 120196763.114 7  93659930.45144  22872701.688                    22872710.344
 127384021.727 6  99260470.62143  24240407.367                    24240415.293
 11  8 23  3 11  0.0000000  0 10G15G29G18G26G12G05G25G02G30G21
 116472359.202 7  90757783.268 7  22163952.984                    22163960.500
 109355077.783 8  85211822.591 7  20809580.844                    20809587.934
 125743485.151 6  97982002.17043  23928186.703                    23928195.781
 113669862.116 8  88573996.65845  21630651.070                    21630658.465
 123822197.433 6  96484886.459 6  23562584.086                    23562593.160
 114564460.762 8  89271136.548 7  21800866.469                    21800873.352
 118211456.092 7  92112922.259 7  22494899.469                    22494909.816
 119597964.842 7  93193384.30545  22758720.289                    22758725.750
 120267987.199 7  93715429.69644  22886255.906                    22886263.699
 127326747.477 6  99215841.43543  24229508.695                    24229515.770
 11  8 23  3 11 30.0000000  0 10G15G29G18G26G12G05G25G02G30G21
 116387987.206 7  90692038.903 7  22147897.477                    22147905.414
 109302625.573 8  85170950.756 7  20799599.508                    20799606.105
 125662967.960 6  97919261.60543  23912866.211                    23912873.137
 113617339.401 7  88533069.85645  21620657.000                    21620664.250
 123915812.742 6  96557833.412 6  23580399.336                    23580407.414
 114641149.592 8  89330894.075 7  21815460.398                    21815467.063
 118275575.100 7  92162885.105 7  22507100.617                    22507110.535
 119648150.740 7  93232490.18745  22768269.344                    22768276.188
 120339466.559 7  93771127.87244  22899857.617                    22899866.984
 127269436.252 6  99171183.41843  24218602.109                    24218609.859
 11  8 23  3 12  0.0000000  0 10G15G29G18G26G12G05G25G02G30G21
 116303887.817 7  90626506.965 7  22131894.320                    22131901.930
 109250548.643 8  85130371.344 7  20789689.289                    20789696.406
 125582668.246 7  97856690.49443  23897584.305                    23897591.734
 113565356.484 7  88492563.70645  21610764.594                    21610772.492
 124009461.883 6  96630806.723 6  23598219.969                    23598228.176
 114718046.214 8  89390813.522 7  21830093.031                    21830099.707
 118340008.716 7  92213093.099 7  22519362.430                    22519372.246
 119698451.126 7  93271685.26045  22777841.609                    22777847.992
 120411198.318 7  93827022.70544  22913507.688                    22913516.793
 127212087.960 6  99126496.54443  24207689.000                    24207696.406
 11  8 23  3 12 30.0000000  0 10G15G29G18G26G12G05G25G02G30G21
 116220064.021 7  90561189.768 7  22115943.320                    22115951.043
 109198848.782 8  85090085.755 7  20779851.359                    20779858.559
 125502586.808 6  97794289.45543  23882345.461                    23882353.285
 113513916.120 8  88452480.32145  21600975.852                    21600983.434
 124103141.588 7  96703803.856 6  23616046.500                    23616055.582
 114795147.921 8  89450892.754 7  21844764.914                    21844771.805
 118404753.787 7  92263543.768 7  22531682.367                    22531693.441
 119748866.200 7  93310969.67844  22787435.781                    22787441.129
 120483179.077 7  93883111.57244  22927205.195                    22927213.770
 127154702.410 6  99081780.63143  24196768.961                    24196776.332
 11  8 23  3 13  0.0000000  0 10G15G29G18G26G12G05G25G02G30G21
 116136518.999 7  90496089.797 7  22100044.906                    22100052.395
 109147528.741 8  85050096.117 7  20770086.016                    20770092.836
 125422724.688 6  97732059.36143  23867148.031                    23867156.234
 113463021.529 8  88412822.22345  21591290.883                    21591298.789
 124196849.285 7  96776822.803 6  23633878.586                    23633887.176
 114872452.654 8  89511130.196 7  21859475.844                    21859482.273
 118469807.605 7  92314235.021 7  22544062.047                    22544072.688
 119799396.605 7  93350343.99444  22797051.406                    22797057.156
 120555405.909 7  93939392.17944  22940949.523                    22940958.285
 127097279.023 6  99037035.26443  24185840.906                    24185848.965
 11  8 23  3 13 30.0000000  0 10G15G29G18G26G12G05G25G02G30G21
 116053255.981 7  90431209.566 7  22084200.000                    22084208.027
 109096590.772 7  85010404.216 8  20760392.273                    20760399.629
 125343082.979 6  97670001.02843  23851991.938                    23852001.379
 113412675.577 8  88373591.64445  21581710.492                    21581717.605
 124290582.011 7  96849861.261 6  23651715.031                    23651723.711
 114949958.014 8  89571523.972 7  21874224.789                    21874231.469
 118535167.275 7  92365164.602 7  22556499.594                    22556510.418
 119850042.913 7  93389808.59845  22806689.305                    22806695.121
 120627875.686 7  93995862.09644  22954740.281                    22954748.758
 127039817.721 6  98992260.31943  24174907.102                    24174914.359
 11  8 23  3 14  0.0000000  0 10G15G29G18G26G12G05G25G02G30G21
 115970278.290 7  90366551.677 7  22068410.367                    22068417.734
 109046037.302 8  84971011.927 8  20750772.273                    20750779.453
 125263662.637 6  97608115.17843  23836879.188                    23836888.176
 113362881.195 8  88334790.83245  21572234.898                    21572242.207
 124384337.103 7  96922917.139 6  23669555.828                    23669564.293
 115027661.564 8  89632072.171 7  21889010.766                    21889017.445
 118600829.974 7  92416330.314 7  22568995.313                    22569005.426
 119900805.657 7  93429363.96045  22816348.719                    22816354.832
 120700585.296 7  94052518.91244  22968576.539                    22968584.371
 126982318.409 6  98947455.76343  24163964.633                    24163972.477
 11  8 23  3 14 30.0000000  0 10G15G29G18G26G12G05G25G02G30G21
 115887588.253 7  90302117.967 7  22052674.602                    22052682.508
 108995870.173 8  84931920.672 7  20741225.945                    20741232.621
 125184464.176 6  97546402.20543  23821807.773                    23821816.762
 113313640.688 8  88296421.61745  21562864.242                    21562871.801
 124478111.300 7  96995987.911 6  23687400.781                    23687408.523
 115105560.771 8  89692772.845 7  21903834.773                    21903841.594
 118666792.263 7  92467729.468 7  22581547.023                    22581557.914
 119951685.149 7  93469010.28544  22826030.695                    22826036.945
 120773531.244 7  94109359.90344  22982457.430                    22982465.602
 126924780.312 6  98902620.97543  24153016.047                    24153022.590
 11  8 23  3 15  0.0000000  0 10G15G29G18G26G12G05G25G02G30G21
 115805189.512 7  90237911.221 7  22036994.523                    22037002.293
 108946092.140 8  84893132.611 7  20731753.703                    20731760.355
 125105488.865 6  97484863.11043  23806779.266                    23806788.395
 113264957.274 8  88258486.50345  21553600.625                    21553608.125
 124571901.852 7  97069071.421 6  23705248.266                    23705256.578
 115183653.996 8  89753624.700 7  21918695.719                    21918702.852
 118733051.531 7  92519360.034 7  22594155.414                    22594166.219
 120002681.886 7  93508747.96744  22835735.078                    22835741.098
 120846710.547 7  94166382.71144  22996383.813                    22996392.102
 126867203.668 6  98857756.13143  24142059.352                    24142066.160
 11  8 23  3 15 30.0000000  0 10G15G29G18G26G12G05G25G02G30G21
 115723084.498 7  90173933.337 7  22021370.539                    22021377.715
 108896704.580 8  84854648.807 7  20722355.039                    20722362.352
 125026737.087 6  97423498.18943  23791793.336                    23791802.043
 113216833.079 7  88220987.16345  21544442.719                    21544449.785
 124665705.430 7  97142165.064 6  23723098.141                    23723107.738
 115261937.875 8  89814625.117 7  21933592.492                    21933599.449
 118799604.175 7  92571219.198 7  22606820.578                    22606830.578
 120053796.226 7  93548577.28244  22845461.828                    22845467.207
 120920119.481 7  94223584.44244  23010352.820                    23010361.105
 126809587.616 7  98812860.59543  24131095.023                    24131102.102
 11  8 23  3 16  0.0000000  0 10G15G29G18G26G12G05G25G02G30G21
 115641276.443 7  90110186.849 7  22005803.180                    22005811.012
 108847709.977 7  84816471.210 8  20713031.938                    20713039.137
 124948209.945 6  97362308.33144  23776850.703                    23776858.691
 113169270.968 7  88183925.80345  21535391.688                    21535399.266
 124759519.169 7  97215266.634 6  23740950.266                    23740959.961
 115340410.473 8  89875772.592 7  21948525.086                    21948532.129
 118866447.337 7  92623304.761 7  22619540.406                    22619549.559
 120105028.515 7  93588498.52645  22855211.789                    22855216.422
 120993755.016 7  94280962.76044  23024365.148                    23024373.660
 126751932.048 7  98767934.25743  24120124.141                    24120130.945
 11  8 23  3 16 30.0000000  0 10G15G29G18G26G12G05G25G02G30G21
 115559768.810 7  90046674.481 7  21990292.547                    21990300.074
 108799111.074 7  84778601.954 8  20703783.852                    20703790.836
 124869908.267 7  97301294.15843  23761950.398                    23761958.031
 113122274.214 7  88147304.97545  21526449.008                    21526456.652
 124853340.633 7  97288374.230 6  23758805.320                    23758813.387
 115419069.545 8  89937065.345 7  21963493.422                    21963500.180
 118933578.470 7  92675614.710 7  22632315.219                    22632325.129
 120156379.924 7  93628512.57944  22864983.492                    22864988.473
 121067614.320 7  94338515.43544  23038420.156                    23038428.711
 126694236.747 6  98722976.95443  24109145.367                    24109151.871
